<?xml version="1.0" encoding="UTF-8" standalone="no" ?>
<gpx xmlns="http://www.topografix.com/GPX/1/1" xmlns:xsi="http://www.w3.org/2001/XMLSchema-instance" xsi:schemaLocation="http://www.topografix.com/GPX/1/1 http://www.topografix.com/GPX/1/1/gpx.xsd" version="1.1" creator="VisuGPX - https://www.visugpx.com">
  <metadata>
    <name>HRP - PEDESTRE - 65/Espagne/65 - Du point côté 2028 augave d'Arratille au refuge de Bayssellance</name>
    <desc><![CDATA[Notre quatrième étape en passant par le petit Vignemale]]></desc>
  </metadata>
  <trk>
    <name><![CDATA[ACTIVE LOG 009]]></name>
    <trkseg>
      <trkpt lat="42.80536" lon="-0.18423">
        <ele>2038.6130371094</ele>
        <time>2015-09-09T06:13:12Z</time>
      </trkpt>
      <trkpt lat="42.80536" lon="-0.18423">
        <ele>2038.6130371094</ele>
        <time>2015-09-09T06:13:13Z</time>
      </trkpt>
      <trkpt lat="42.80536" lon="-0.18423">
        <ele>2041.4968261719</ele>
        <time>2015-09-09T06:13:23Z</time>
      </trkpt>
      <trkpt lat="42.80537" lon="-0.18423">
        <ele>2045.8229980469</ele>
        <time>2015-09-09T06:13:47Z</time>
      </trkpt>
      <trkpt lat="42.80537" lon="-0.18423">
        <ele>2044.8615722656</ele>
        <time>2015-09-09T06:13:48Z</time>
      </trkpt>
      <trkpt lat="42.80538" lon="-0.18425">
        <ele>2045.8229980469</ele>
        <time>2015-09-09T06:14:29Z</time>
      </trkpt>
      <trkpt lat="42.80538" lon="-0.18424">
        <ele>2047.2648925781</ele>
        <time>2015-09-09T06:15:06Z</time>
      </trkpt>
      <trkpt lat="42.80537" lon="-0.18423">
        <ele>2046.7841796875</ele>
        <time>2015-09-09T06:15:29Z</time>
      </trkpt>
      <trkpt lat="42.80537" lon="-0.18424">
        <ele>2048.2260742188</ele>
        <time>2015-09-09T06:15:41Z</time>
      </trkpt>
      <trkpt lat="42.8054" lon="-0.1842">
        <ele>2047.7456054688</ele>
        <time>2015-09-09T06:15:59Z</time>
      </trkpt>
      <trkpt lat="42.80541" lon="-0.18419">
        <ele>2047.2648925781</ele>
        <time>2015-09-09T06:16:33Z</time>
      </trkpt>
      <trkpt lat="42.80551" lon="-0.18418">
        <ele>2045.8229980469</ele>
        <time>2015-09-09T06:16:47Z</time>
      </trkpt>
      <trkpt lat="42.80563" lon="-0.18409">
        <ele>2044.8615722656</ele>
        <time>2015-09-09T06:17:01Z</time>
      </trkpt>
      <trkpt lat="42.80576" lon="-0.18403">
        <ele>2042.9387207031</ele>
        <time>2015-09-09T06:17:17Z</time>
      </trkpt>
      <trkpt lat="42.80583" lon="-0.18398">
        <ele>2039.57421875</ele>
        <time>2015-09-09T06:17:29Z</time>
      </trkpt>
      <trkpt lat="42.8059" lon="-0.18394">
        <ele>2039.0935058594</ele>
        <time>2015-09-09T06:17:45Z</time>
      </trkpt>
      <trkpt lat="42.8059" lon="-0.18388">
        <ele>2039.57421875</ele>
        <time>2015-09-09T06:17:56Z</time>
      </trkpt>
      <trkpt lat="42.80596" lon="-0.18391">
        <ele>2039.0935058594</ele>
        <time>2015-09-09T06:18:10Z</time>
      </trkpt>
      <trkpt lat="42.80608" lon="-0.18391">
        <ele>2039.57421875</ele>
        <time>2015-09-09T06:18:26Z</time>
      </trkpt>
      <trkpt lat="42.80608" lon="-0.1839">
        <ele>2039.0935058594</ele>
        <time>2015-09-09T06:18:27Z</time>
      </trkpt>
      <trkpt lat="42.8061" lon="-0.18388">
        <ele>2039.0935058594</ele>
        <time>2015-09-09T06:18:30Z</time>
      </trkpt>
      <trkpt lat="42.80621" lon="-0.18384">
        <ele>2039.0935058594</ele>
        <time>2015-09-09T06:18:46Z</time>
      </trkpt>
      <trkpt lat="42.80632" lon="-0.18378">
        <ele>2040.0549316406</ele>
        <time>2015-09-09T06:18:59Z</time>
      </trkpt>
      <trkpt lat="42.80646" lon="-0.18384">
        <ele>2038.1323242188</ele>
        <time>2015-09-09T06:19:15Z</time>
      </trkpt>
      <trkpt lat="42.80655" lon="-0.18382">
        <ele>2038.1323242188</ele>
        <time>2015-09-09T06:19:28Z</time>
      </trkpt>
      <trkpt lat="42.80666" lon="-0.1839">
        <ele>2039.0935058594</ele>
        <time>2015-09-09T06:19:43Z</time>
      </trkpt>
      <trkpt lat="42.80678" lon="-0.18391">
        <ele>2042.4582519531</ele>
        <time>2015-09-09T06:19:55Z</time>
      </trkpt>
      <trkpt lat="42.80682" lon="-0.1839">
        <ele>2042.4582519531</ele>
        <time>2015-09-09T06:20:15Z</time>
      </trkpt>
      <trkpt lat="42.80689" lon="-0.18386">
        <ele>2043.9001464844</ele>
        <time>2015-09-09T06:20:31Z</time>
      </trkpt>
      <trkpt lat="42.80692" lon="-0.18376">
        <ele>2045.8229980469</ele>
        <time>2015-09-09T06:20:45Z</time>
      </trkpt>
      <trkpt lat="42.80693" lon="-0.1836">
        <ele>2048.7067871094</ele>
        <time>2015-09-09T06:21:02Z</time>
      </trkpt>
      <trkpt lat="42.80693" lon="-0.18346">
        <ele>2049.6682128906</ele>
        <time>2015-09-09T06:21:18Z</time>
      </trkpt>
      <trkpt lat="42.80694" lon="-0.18334">
        <ele>2052.5520019531</ele>
        <time>2015-09-09T06:21:30Z</time>
      </trkpt>
      <trkpt lat="42.80697" lon="-0.18318">
        <ele>2055.4360351562</ele>
        <time>2015-09-09T06:21:49Z</time>
      </trkpt>
      <trkpt lat="42.807" lon="-0.18303">
        <ele>2057.8393554688</ele>
        <time>2015-09-09T06:22:06Z</time>
      </trkpt>
      <trkpt lat="42.80705" lon="-0.1831">
        <ele>2059.28125</ele>
        <time>2015-09-09T06:22:17Z</time>
      </trkpt>
      <trkpt lat="42.80714" lon="-0.18327">
        <ele>2060.7233886719</ele>
        <time>2015-09-09T06:22:35Z</time>
      </trkpt>
      <trkpt lat="42.80724" lon="-0.18329">
        <ele>2063.6071777344</ele>
        <time>2015-09-09T06:22:49Z</time>
      </trkpt>
      <trkpt lat="42.80731" lon="-0.18335">
        <ele>2065.5300292969</ele>
        <time>2015-09-09T06:23:02Z</time>
      </trkpt>
      <trkpt lat="42.80744" lon="-0.18339">
        <ele>2066.0104980469</ele>
        <time>2015-09-09T06:23:18Z</time>
      </trkpt>
      <trkpt lat="42.80754" lon="-0.1835">
        <ele>2066.4912109375</ele>
        <time>2015-09-09T06:23:34Z</time>
      </trkpt>
      <trkpt lat="42.80761" lon="-0.18351">
        <ele>2067.9331054688</ele>
        <time>2015-09-09T06:23:47Z</time>
      </trkpt>
      <trkpt lat="42.80771" lon="-0.1835">
        <ele>2069.3752441406</ele>
        <time>2015-09-09T06:24:01Z</time>
      </trkpt>
      <trkpt lat="42.80775" lon="-0.18345">
        <ele>2070.3364257812</ele>
        <time>2015-09-09T06:24:13Z</time>
      </trkpt>
      <trkpt lat="42.80783" lon="-0.18341">
        <ele>2071.2976074219</ele>
        <time>2015-09-09T06:24:27Z</time>
      </trkpt>
      <trkpt lat="42.80791" lon="-0.18341">
        <ele>2074.6623535156</ele>
        <time>2015-09-09T06:24:41Z</time>
      </trkpt>
      <trkpt lat="42.80785" lon="-0.18333">
        <ele>2075.1428222656</ele>
        <time>2015-09-09T06:24:56Z</time>
      </trkpt>
      <trkpt lat="42.80782" lon="-0.18322">
        <ele>2077.0659179688</ele>
        <time>2015-09-09T06:25:12Z</time>
      </trkpt>
      <trkpt lat="42.80778" lon="-0.18309">
        <ele>2078.0270996094</ele>
        <time>2015-09-09T06:25:29Z</time>
      </trkpt>
      <trkpt lat="42.80773" lon="-0.18302">
        <ele>2079.9497070312</ele>
        <time>2015-09-09T06:25:41Z</time>
      </trkpt>
      <trkpt lat="42.80766" lon="-0.18297">
        <ele>2082.3530273438</ele>
        <time>2015-09-09T06:25:57Z</time>
      </trkpt>
      <trkpt lat="42.80761" lon="-0.18293">
        <ele>2082.3530273438</ele>
        <time>2015-09-09T06:26:11Z</time>
      </trkpt>
      <trkpt lat="42.80757" lon="-0.18282">
        <ele>2085.2368164062</ele>
        <time>2015-09-09T06:26:23Z</time>
      </trkpt>
      <trkpt lat="42.80755" lon="-0.18279">
        <ele>2083.794921875</ele>
        <time>2015-09-09T06:26:35Z</time>
      </trkpt>
      <trkpt lat="42.80755" lon="-0.18263">
        <ele>2084.7563476562</ele>
        <time>2015-09-09T06:26:52Z</time>
      </trkpt>
      <trkpt lat="42.8075" lon="-0.18244">
        <ele>2087.1594238281</ele>
        <time>2015-09-09T06:27:12Z</time>
      </trkpt>
      <trkpt lat="42.80751" lon="-0.18232">
        <ele>2089.08203125</ele>
        <time>2015-09-09T06:27:27Z</time>
      </trkpt>
      <trkpt lat="42.80757" lon="-0.18233">
        <ele>2090.0434570312</ele>
        <time>2015-09-09T06:27:40Z</time>
      </trkpt>
      <trkpt lat="42.80759" lon="-0.18231">
        <ele>2091.4853515625</ele>
        <time>2015-09-09T06:27:46Z</time>
      </trkpt>
      <trkpt lat="42.80762" lon="-0.18233">
        <ele>2092.9274902344</ele>
        <time>2015-09-09T06:27:57Z</time>
      </trkpt>
      <trkpt lat="42.80765" lon="-0.18233">
        <ele>2094.3693847656</ele>
        <time>2015-09-09T06:28:09Z</time>
      </trkpt>
      <trkpt lat="42.80767" lon="-0.18233">
        <ele>2096.7727050781</ele>
        <time>2015-09-09T06:28:26Z</time>
      </trkpt>
      <trkpt lat="42.80769" lon="-0.18242">
        <ele>2099.1760253906</ele>
        <time>2015-09-09T06:28:40Z</time>
      </trkpt>
      <trkpt lat="42.80773" lon="-0.18248">
        <ele>2099.1760253906</ele>
        <time>2015-09-09T06:28:53Z</time>
      </trkpt>
      <trkpt lat="42.80782" lon="-0.18252">
        <ele>2102.0598144531</ele>
        <time>2015-09-09T06:29:10Z</time>
      </trkpt>
      <trkpt lat="42.80786" lon="-0.18247">
        <ele>2104.4631347656</ele>
        <time>2015-09-09T06:29:32Z</time>
      </trkpt>
      <trkpt lat="42.80791" lon="-0.18245">
        <ele>2105.4245605469</ele>
        <time>2015-09-09T06:29:44Z</time>
      </trkpt>
      <trkpt lat="42.80795" lon="-0.18239">
        <ele>2106.8664550781</ele>
        <time>2015-09-09T06:29:59Z</time>
      </trkpt>
      <trkpt lat="42.80794" lon="-0.1823">
        <ele>2108.30859375</ele>
        <time>2015-09-09T06:30:11Z</time>
      </trkpt>
      <trkpt lat="42.80795" lon="-0.18217">
        <ele>2110.2312011719</ele>
        <time>2015-09-09T06:30:26Z</time>
      </trkpt>
      <trkpt lat="42.80796" lon="-0.18207">
        <ele>2112.6345214844</ele>
        <time>2015-09-09T06:30:40Z</time>
      </trkpt>
      <trkpt lat="42.80802" lon="-0.18203">
        <ele>2114.0764160156</ele>
        <time>2015-09-09T06:30:52Z</time>
      </trkpt>
      <trkpt lat="42.80803" lon="-0.18189">
        <ele>2115.9990234375</ele>
        <time>2015-09-09T06:31:11Z</time>
      </trkpt>
      <trkpt lat="42.80792" lon="-0.18182">
        <ele>2117.4409179688</ele>
        <time>2015-09-09T06:31:27Z</time>
      </trkpt>
      <trkpt lat="42.80785" lon="-0.18169">
        <ele>2119.8442382812</ele>
        <time>2015-09-09T06:31:43Z</time>
      </trkpt>
      <trkpt lat="42.80779" lon="-0.18149">
        <ele>2121.7668457031</ele>
        <time>2015-09-09T06:32:02Z</time>
      </trkpt>
      <trkpt lat="42.80769" lon="-0.18128">
        <ele>2122.2475585938</ele>
        <time>2015-09-09T06:32:22Z</time>
      </trkpt>
      <trkpt lat="42.80756" lon="-0.1812">
        <ele>2123.208984375</ele>
        <time>2015-09-09T06:32:39Z</time>
      </trkpt>
      <trkpt lat="42.80752" lon="-0.18108">
        <ele>2126.5737304688</ele>
        <time>2015-09-09T06:32:53Z</time>
      </trkpt>
      <trkpt lat="42.80746" lon="-0.18105">
        <ele>2129.4575195312</ele>
        <time>2015-09-09T06:33:07Z</time>
      </trkpt>
      <trkpt lat="42.80736" lon="-0.18108">
        <ele>2129.9382324219</ele>
        <time>2015-09-09T06:33:23Z</time>
      </trkpt>
      <trkpt lat="42.80729" lon="-0.18105">
        <ele>2130.8996582031</ele>
        <time>2015-09-09T06:33:38Z</time>
      </trkpt>
      <trkpt lat="42.80728" lon="-0.18105">
        <ele>2130.8996582031</ele>
        <time>2015-09-09T06:33:39Z</time>
      </trkpt>
      <trkpt lat="42.80726" lon="-0.18103">
        <ele>2130.4189453125</ele>
        <time>2015-09-09T06:33:42Z</time>
      </trkpt>
      <trkpt lat="42.80714" lon="-0.18096">
        <ele>2129.9382324219</ele>
        <time>2015-09-09T06:33:58Z</time>
      </trkpt>
      <trkpt lat="42.80704" lon="-0.18089">
        <ele>2132.3415527344</ele>
        <time>2015-09-09T06:34:13Z</time>
      </trkpt>
      <trkpt lat="42.80693" lon="-0.18084">
        <ele>2131.3801269531</ele>
        <time>2015-09-09T06:34:26Z</time>
      </trkpt>
      <trkpt lat="42.80684" lon="-0.1808">
        <ele>2131.8608398438</ele>
        <time>2015-09-09T06:34:36Z</time>
      </trkpt>
      <trkpt lat="42.80669" lon="-0.18073">
        <ele>2132.3415527344</ele>
        <time>2015-09-09T06:34:53Z</time>
      </trkpt>
      <trkpt lat="42.80659" lon="-0.18063">
        <ele>2135.2253417969</ele>
        <time>2015-09-09T06:35:10Z</time>
      </trkpt>
      <trkpt lat="42.80659" lon="-0.18058">
        <ele>2135.7060546875</ele>
        <time>2015-09-09T06:35:25Z</time>
      </trkpt>
      <trkpt lat="42.80656" lon="-0.18055">
        <ele>2136.1867675781</ele>
        <time>2015-09-09T06:35:56Z</time>
      </trkpt>
      <trkpt lat="42.80645" lon="-0.18046">
        <ele>2136.6672363281</ele>
        <time>2015-09-09T06:36:13Z</time>
      </trkpt>
      <trkpt lat="42.80639" lon="-0.18041">
        <ele>2140.0322265625</ele>
        <time>2015-09-09T06:36:25Z</time>
      </trkpt>
      <trkpt lat="42.80638" lon="-0.1804">
        <ele>2140.0322265625</ele>
        <time>2015-09-09T06:36:26Z</time>
      </trkpt>
      <trkpt lat="42.80636" lon="-0.18038">
        <ele>2140.5126953125</ele>
        <time>2015-09-09T06:36:30Z</time>
      </trkpt>
      <trkpt lat="42.80628" lon="-0.18029">
        <ele>2142.435546875</ele>
        <time>2015-09-09T06:36:44Z</time>
      </trkpt>
      <trkpt lat="42.80625" lon="-0.18016">
        <ele>2143.8774414062</ele>
        <time>2015-09-09T06:36:59Z</time>
      </trkpt>
      <trkpt lat="42.80625" lon="-0.18014">
        <ele>2144.8386230469</ele>
        <time>2015-09-09T06:37:01Z</time>
      </trkpt>
      <trkpt lat="42.8063" lon="-0.18002">
        <ele>2147.2419433594</ele>
        <time>2015-09-09T06:37:17Z</time>
      </trkpt>
      <trkpt lat="42.80632" lon="-0.17996">
        <ele>2148.203125</ele>
        <time>2015-09-09T06:37:28Z</time>
      </trkpt>
      <trkpt lat="42.80627" lon="-0.17989">
        <ele>2151.0871582031</ele>
        <time>2015-09-09T06:37:42Z</time>
      </trkpt>
      <trkpt lat="42.80623" lon="-0.17986">
        <ele>2151.5678710938</ele>
        <time>2015-09-09T06:37:56Z</time>
      </trkpt>
      <trkpt lat="42.80618" lon="-0.17977">
        <ele>2152.5290527344</ele>
        <time>2015-09-09T06:38:12Z</time>
      </trkpt>
      <trkpt lat="42.80609" lon="-0.17974">
        <ele>2156.3745117188</ele>
        <time>2015-09-09T06:38:28Z</time>
      </trkpt>
      <trkpt lat="42.806" lon="-0.17972">
        <ele>2155.8935546875</ele>
        <time>2015-09-09T06:38:40Z</time>
      </trkpt>
      <trkpt lat="42.8059" lon="-0.17972">
        <ele>2156.3745117188</ele>
        <time>2015-09-09T06:38:53Z</time>
      </trkpt>
      <trkpt lat="42.80578" lon="-0.17972">
        <ele>2156.3745117188</ele>
        <time>2015-09-09T06:39:07Z</time>
      </trkpt>
      <trkpt lat="42.80567" lon="-0.17978">
        <ele>2156.8552246094</ele>
        <time>2015-09-09T06:39:24Z</time>
      </trkpt>
      <trkpt lat="42.80554" lon="-0.17987">
        <ele>2157.8166503906</ele>
        <time>2015-09-09T06:39:41Z</time>
      </trkpt>
      <trkpt lat="42.80547" lon="-0.17983">
        <ele>2159.2585449219</ele>
        <time>2015-09-09T06:39:57Z</time>
      </trkpt>
      <trkpt lat="42.80539" lon="-0.17975">
        <ele>2160.7004394531</ele>
        <time>2015-09-09T06:40:12Z</time>
      </trkpt>
      <trkpt lat="42.80531" lon="-0.17968">
        <ele>2161.6618652344</ele>
        <time>2015-09-09T06:40:27Z</time>
      </trkpt>
      <trkpt lat="42.80522" lon="-0.17964">
        <ele>2162.623046875</ele>
        <time>2015-09-09T06:40:42Z</time>
      </trkpt>
      <trkpt lat="42.80516" lon="-0.17963">
        <ele>2163.5842285156</ele>
        <time>2015-09-09T06:40:52Z</time>
      </trkpt>
      <trkpt lat="42.80512" lon="-0.17961">
        <ele>2167.4294433594</ele>
        <time>2015-09-09T06:41:02Z</time>
      </trkpt>
      <trkpt lat="42.80506" lon="-0.17951">
        <ele>2168.3908691406</ele>
        <time>2015-09-09T06:41:16Z</time>
      </trkpt>
      <trkpt lat="42.80501" lon="-0.17949">
        <ele>2168.8715820312</ele>
        <time>2015-09-09T06:41:27Z</time>
      </trkpt>
      <trkpt lat="42.80492" lon="-0.17948">
        <ele>2169.8327636719</ele>
        <time>2015-09-09T06:41:40Z</time>
      </trkpt>
      <trkpt lat="42.80483" lon="-0.17941">
        <ele>2171.2746582031</ele>
        <time>2015-09-09T06:41:53Z</time>
      </trkpt>
      <trkpt lat="42.80477" lon="-0.17935">
        <ele>2174.1589355469</ele>
        <time>2015-09-09T06:42:07Z</time>
      </trkpt>
      <trkpt lat="42.8047" lon="-0.17931">
        <ele>2174.6396484375</ele>
        <time>2015-09-09T06:42:19Z</time>
      </trkpt>
      <trkpt lat="42.80461" lon="-0.17927">
        <ele>2175.6008300781</ele>
        <time>2015-09-09T06:42:35Z</time>
      </trkpt>
      <trkpt lat="42.80456" lon="-0.17922">
        <ele>2176.0815429688</ele>
        <time>2015-09-09T06:42:48Z</time>
      </trkpt>
      <trkpt lat="42.8045" lon="-0.17912">
        <ele>2176.0815429688</ele>
        <time>2015-09-09T06:43:03Z</time>
      </trkpt>
      <trkpt lat="42.80444" lon="-0.17901">
        <ele>2178.4848632812</ele>
        <time>2015-09-09T06:43:18Z</time>
      </trkpt>
      <trkpt lat="42.80443" lon="-0.1789">
        <ele>2178.9653320312</ele>
        <time>2015-09-09T06:43:30Z</time>
      </trkpt>
      <trkpt lat="42.80444" lon="-0.17876">
        <ele>2180.8881835938</ele>
        <time>2015-09-09T06:43:45Z</time>
      </trkpt>
      <trkpt lat="42.80451" lon="-0.17882">
        <ele>2183.7719726562</ele>
        <time>2015-09-09T06:43:58Z</time>
      </trkpt>
      <trkpt lat="42.8046" lon="-0.17886">
        <ele>2185.6945800781</ele>
        <time>2015-09-09T06:44:15Z</time>
      </trkpt>
      <trkpt lat="42.8046" lon="-0.17873">
        <ele>2188.5788574219</ele>
        <time>2015-09-09T06:44:38Z</time>
      </trkpt>
      <trkpt lat="42.80457" lon="-0.17864">
        <ele>2190.9819335938</ele>
        <time>2015-09-09T06:44:50Z</time>
      </trkpt>
      <trkpt lat="42.80449" lon="-0.17854">
        <ele>2190.9819335938</ele>
        <time>2015-09-09T06:45:03Z</time>
      </trkpt>
      <trkpt lat="42.80447" lon="-0.17846">
        <ele>2191.943359375</ele>
        <time>2015-09-09T06:45:17Z</time>
      </trkpt>
      <trkpt lat="42.80457" lon="-0.17845">
        <ele>2193.3852539062</ele>
        <time>2015-09-09T06:45:33Z</time>
      </trkpt>
      <trkpt lat="42.80464" lon="-0.17844">
        <ele>2196.2692871094</ele>
        <time>2015-09-09T06:45:49Z</time>
      </trkpt>
      <trkpt lat="42.80468" lon="-0.1785">
        <ele>2197.7111816406</ele>
        <time>2015-09-09T06:46:03Z</time>
      </trkpt>
      <trkpt lat="42.80473" lon="-0.17842">
        <ele>2199.6337890625</ele>
        <time>2015-09-09T06:46:17Z</time>
      </trkpt>
      <trkpt lat="42.80478" lon="-0.17841">
        <ele>2201.5563964844</ele>
        <time>2015-09-09T06:46:31Z</time>
      </trkpt>
      <trkpt lat="42.80481" lon="-0.17836">
        <ele>2203.4790039062</ele>
        <time>2015-09-09T06:46:45Z</time>
      </trkpt>
      <trkpt lat="42.80484" lon="-0.17832">
        <ele>2206.3630371094</ele>
        <time>2015-09-09T06:47:04Z</time>
      </trkpt>
      <trkpt lat="42.80483" lon="-0.17823">
        <ele>2208.2856445312</ele>
        <time>2015-09-09T06:47:19Z</time>
      </trkpt>
      <trkpt lat="42.80479" lon="-0.17822">
        <ele>2210.2082519531</ele>
        <time>2015-09-09T06:47:29Z</time>
      </trkpt>
      <trkpt lat="42.80474" lon="-0.17817">
        <ele>2209.7275390625</ele>
        <time>2015-09-09T06:47:48Z</time>
      </trkpt>
      <trkpt lat="42.80477" lon="-0.17807">
        <ele>2213.0922851562</ele>
        <time>2015-09-09T06:48:02Z</time>
      </trkpt>
      <trkpt lat="42.8048" lon="-0.17797">
        <ele>2215.0148925781</ele>
        <time>2015-09-09T06:48:16Z</time>
      </trkpt>
      <trkpt lat="42.80475" lon="-0.17789">
        <ele>2215.4956054688</ele>
        <time>2015-09-09T06:48:31Z</time>
      </trkpt>
      <trkpt lat="42.80471" lon="-0.1778">
        <ele>2216.4567871094</ele>
        <time>2015-09-09T06:48:45Z</time>
      </trkpt>
      <trkpt lat="42.8046" lon="-0.1778">
        <ele>2219.3408203125</ele>
        <time>2015-09-09T06:49:00Z</time>
      </trkpt>
      <trkpt lat="42.80453" lon="-0.17775">
        <ele>2220.3022460938</ele>
        <time>2015-09-09T06:49:15Z</time>
      </trkpt>
      <trkpt lat="42.80445" lon="-0.17771">
        <ele>2222.2248535156</ele>
        <time>2015-09-09T06:49:30Z</time>
      </trkpt>
      <trkpt lat="42.80441" lon="-0.17766">
        <ele>2224.1474609375</ele>
        <time>2015-09-09T06:49:44Z</time>
      </trkpt>
      <trkpt lat="42.80438" lon="-0.17759">
        <ele>2225.5893554688</ele>
        <time>2015-09-09T06:49:57Z</time>
      </trkpt>
      <trkpt lat="42.80435" lon="-0.17747">
        <ele>2225.5893554688</ele>
        <time>2015-09-09T06:50:13Z</time>
      </trkpt>
      <trkpt lat="42.80427" lon="-0.17736">
        <ele>2226.55078125</ele>
        <time>2015-09-09T06:50:29Z</time>
      </trkpt>
      <trkpt lat="42.80425" lon="-0.17722">
        <ele>2228.9538574219</ele>
        <time>2015-09-09T06:50:44Z</time>
      </trkpt>
      <trkpt lat="42.80421" lon="-0.17717">
        <ele>2230.8767089844</ele>
        <time>2015-09-09T06:50:52Z</time>
      </trkpt>
      <trkpt lat="42.80413" lon="-0.17705">
        <ele>2232.3186035156</ele>
        <time>2015-09-09T06:51:10Z</time>
      </trkpt>
      <trkpt lat="42.80404" lon="-0.17708">
        <ele>2233.7604980469</ele>
        <time>2015-09-09T06:51:27Z</time>
      </trkpt>
      <trkpt lat="42.80398" lon="-0.17706">
        <ele>2232.7990722656</ele>
        <time>2015-09-09T06:51:45Z</time>
      </trkpt>
      <trkpt lat="42.8039" lon="-0.17708">
        <ele>2233.2797851562</ele>
        <time>2015-09-09T06:52:06Z</time>
      </trkpt>
      <trkpt lat="42.80386" lon="-0.17709">
        <ele>2233.2797851562</ele>
        <time>2015-09-09T06:52:20Z</time>
      </trkpt>
      <trkpt lat="42.80388" lon="-0.177">
        <ele>2233.7604980469</ele>
        <time>2015-09-09T06:52:57Z</time>
      </trkpt>
      <trkpt lat="42.80388" lon="-0.17695">
        <ele>2233.7604980469</ele>
        <time>2015-09-09T06:53:10Z</time>
      </trkpt>
      <trkpt lat="42.80386" lon="-0.1769">
        <ele>2233.7604980469</ele>
        <time>2015-09-09T06:53:18Z</time>
      </trkpt>
      <trkpt lat="42.80381" lon="-0.17692">
        <ele>2234.7219238281</ele>
        <time>2015-09-09T06:53:33Z</time>
      </trkpt>
      <trkpt lat="42.80374" lon="-0.17696">
        <ele>2237.6059570312</ele>
        <time>2015-09-09T06:53:44Z</time>
      </trkpt>
      <trkpt lat="42.80364" lon="-0.17706">
        <ele>2237.6059570312</ele>
        <time>2015-09-09T06:54:00Z</time>
      </trkpt>
      <trkpt lat="42.80356" lon="-0.1771">
        <ele>2238.0866699219</ele>
        <time>2015-09-09T06:54:13Z</time>
      </trkpt>
      <trkpt lat="42.8035" lon="-0.17709">
        <ele>2239.0478515625</ele>
        <time>2015-09-09T06:54:20Z</time>
      </trkpt>
      <trkpt lat="42.80343" lon="-0.17707">
        <ele>2241.451171875</ele>
        <time>2015-09-09T06:54:32Z</time>
      </trkpt>
      <trkpt lat="42.80335" lon="-0.17704">
        <ele>2240.4897460938</ele>
        <time>2015-09-09T06:54:47Z</time>
      </trkpt>
      <trkpt lat="42.80323" lon="-0.17697">
        <ele>2240.4897460938</ele>
        <time>2015-09-09T06:55:02Z</time>
      </trkpt>
      <trkpt lat="42.8032" lon="-0.17696">
        <ele>2240.9704589844</ele>
        <time>2015-09-09T06:55:05Z</time>
      </trkpt>
      <trkpt lat="42.8031" lon="-0.1769">
        <ele>2242.8930664062</ele>
        <time>2015-09-09T06:55:20Z</time>
      </trkpt>
      <trkpt lat="42.80306" lon="-0.17684">
        <ele>2242.8930664062</ele>
        <time>2015-09-09T06:55:27Z</time>
      </trkpt>
      <trkpt lat="42.80296" lon="-0.17671">
        <ele>2243.3737792969</ele>
        <time>2015-09-09T06:55:43Z</time>
      </trkpt>
      <trkpt lat="42.80287" lon="-0.17659">
        <ele>2242.8930664062</ele>
        <time>2015-09-09T06:55:59Z</time>
      </trkpt>
      <trkpt lat="42.80275" lon="-0.17649">
        <ele>2243.8544921875</ele>
        <time>2015-09-09T06:56:17Z</time>
      </trkpt>
      <trkpt lat="42.80266" lon="-0.17642">
        <ele>2245.2963867188</ele>
        <time>2015-09-09T06:56:29Z</time>
      </trkpt>
      <trkpt lat="42.80258" lon="-0.1763">
        <ele>2244.3349609375</ele>
        <time>2015-09-09T06:56:47Z</time>
      </trkpt>
      <trkpt lat="42.80251" lon="-0.17622">
        <ele>2244.3349609375</ele>
        <time>2015-09-09T06:57:00Z</time>
      </trkpt>
      <trkpt lat="42.80243" lon="-0.17616">
        <ele>2244.8156738281</ele>
        <time>2015-09-09T06:57:11Z</time>
      </trkpt>
      <trkpt lat="42.80227" lon="-0.17607">
        <ele>2245.7770996094</ele>
        <time>2015-09-09T06:57:29Z</time>
      </trkpt>
      <trkpt lat="42.80219" lon="-0.17594">
        <ele>2246.73828125</ele>
        <time>2015-09-09T06:57:44Z</time>
      </trkpt>
      <trkpt lat="42.80218" lon="-0.17588">
        <ele>2246.73828125</ele>
        <time>2015-09-09T06:57:56Z</time>
      </trkpt>
      <trkpt lat="42.80215" lon="-0.17587">
        <ele>2246.73828125</ele>
        <time>2015-09-09T06:58:29Z</time>
      </trkpt>
      <trkpt lat="42.80204" lon="-0.17579">
        <ele>2246.2578125</ele>
        <time>2015-09-09T06:58:46Z</time>
      </trkpt>
      <trkpt lat="42.80203" lon="-0.17579">
        <ele>2246.2578125</ele>
        <time>2015-09-09T06:58:48Z</time>
      </trkpt>
      <trkpt lat="42.80197" lon="-0.1758">
        <ele>2247.6997070312</ele>
        <time>2015-09-09T06:59:02Z</time>
      </trkpt>
      <trkpt lat="42.80191" lon="-0.1758">
        <ele>2248.6608886719</ele>
        <time>2015-09-09T06:59:16Z</time>
      </trkpt>
      <trkpt lat="42.80181" lon="-0.1758">
        <ele>2249.1416015625</ele>
        <time>2015-09-09T06:59:33Z</time>
      </trkpt>
      <trkpt lat="42.80164" lon="-0.1758">
        <ele>2250.1030273438</ele>
        <time>2015-09-09T06:59:52Z</time>
      </trkpt>
      <trkpt lat="42.80151" lon="-0.17577">
        <ele>2251.544921875</ele>
        <time>2015-09-09T07:00:08Z</time>
      </trkpt>
      <trkpt lat="42.80145" lon="-0.17584">
        <ele>2254.4289550781</ele>
        <time>2015-09-09T07:00:21Z</time>
      </trkpt>
      <trkpt lat="42.80143" lon="-0.17584">
        <ele>2254.4289550781</ele>
        <time>2015-09-09T07:00:39Z</time>
      </trkpt>
      <trkpt lat="42.80144" lon="-0.17585">
        <ele>2254.4289550781</ele>
        <time>2015-09-09T07:01:20Z</time>
      </trkpt>
      <trkpt lat="42.8014" lon="-0.17593">
        <ele>2254.9096679688</ele>
        <time>2015-09-09T07:01:36Z</time>
      </trkpt>
      <trkpt lat="42.80133" lon="-0.17596">
        <ele>2256.8322753906</ele>
        <time>2015-09-09T07:01:49Z</time>
      </trkpt>
      <trkpt lat="42.80126" lon="-0.17598">
        <ele>2256.8322753906</ele>
        <time>2015-09-09T07:01:59Z</time>
      </trkpt>
      <trkpt lat="42.80124" lon="-0.17601">
        <ele>2257.3129882812</ele>
        <time>2015-09-09T07:02:15Z</time>
      </trkpt>
      <trkpt lat="42.80115" lon="-0.17612">
        <ele>2258.2741699219</ele>
        <time>2015-09-09T07:02:32Z</time>
      </trkpt>
      <trkpt lat="42.80104" lon="-0.17623">
        <ele>2260.6774902344</ele>
        <time>2015-09-09T07:02:50Z</time>
      </trkpt>
      <trkpt lat="42.80101" lon="-0.17624">
        <ele>2260.1967773438</ele>
        <time>2015-09-09T07:03:12Z</time>
      </trkpt>
      <trkpt lat="42.80097" lon="-0.1763">
        <ele>2259.2355957031</ele>
        <time>2015-09-09T07:03:26Z</time>
      </trkpt>
      <trkpt lat="42.80092" lon="-0.17636">
        <ele>2257.3129882812</ele>
        <time>2015-09-09T07:03:44Z</time>
      </trkpt>
      <trkpt lat="42.80086" lon="-0.17642">
        <ele>2255.3903808594</ele>
        <time>2015-09-09T07:04:02Z</time>
      </trkpt>
      <trkpt lat="42.80084" lon="-0.17643">
        <ele>2254.4289550781</ele>
        <time>2015-09-09T07:04:06Z</time>
      </trkpt>
      <trkpt lat="42.80079" lon="-0.17649">
        <ele>2253.9484863281</ele>
        <time>2015-09-09T07:04:13Z</time>
      </trkpt>
      <trkpt lat="42.80066" lon="-0.17656">
        <ele>2252.0256347656</ele>
        <time>2015-09-09T07:04:30Z</time>
      </trkpt>
      <trkpt lat="42.80066" lon="-0.17656">
        <ele>2254.4289550781</ele>
        <time>2015-09-09T07:04:31Z</time>
      </trkpt>
      <trkpt lat="42.80055" lon="-0.17664">
        <ele>2254.9096679688</ele>
        <time>2015-09-09T07:04:46Z</time>
      </trkpt>
      <trkpt lat="42.80045" lon="-0.17667">
        <ele>2254.9096679688</ele>
        <time>2015-09-09T07:05:02Z</time>
      </trkpt>
      <trkpt lat="42.80038" lon="-0.17674">
        <ele>2252.0256347656</ele>
        <time>2015-09-09T07:05:17Z</time>
      </trkpt>
      <trkpt lat="42.80024" lon="-0.17681">
        <ele>2250.5834960938</ele>
        <time>2015-09-09T07:05:34Z</time>
      </trkpt>
      <trkpt lat="42.80012" lon="-0.17688">
        <ele>2251.0642089844</ele>
        <time>2015-09-09T07:05:46Z</time>
      </trkpt>
      <trkpt lat="42.80005" lon="-0.17685">
        <ele>2250.5834960938</ele>
        <time>2015-09-09T07:05:52Z</time>
      </trkpt>
      <trkpt lat="42.79989" lon="-0.17677">
        <ele>2254.4289550781</ele>
        <time>2015-09-09T07:06:10Z</time>
      </trkpt>
      <trkpt lat="42.79988" lon="-0.17676">
        <ele>2254.9096679688</ele>
        <time>2015-09-09T07:06:12Z</time>
      </trkpt>
      <trkpt lat="42.79984" lon="-0.1767">
        <ele>2255.3903808594</ele>
        <time>2015-09-09T07:06:19Z</time>
      </trkpt>
      <trkpt lat="42.79974" lon="-0.17668">
        <ele>2255.3903808594</ele>
        <time>2015-09-09T07:06:33Z</time>
      </trkpt>
      <trkpt lat="42.79968" lon="-0.17669">
        <ele>2255.3903808594</ele>
        <time>2015-09-09T07:06:38Z</time>
      </trkpt>
      <trkpt lat="42.79954" lon="-0.1766">
        <ele>2256.3515625</ele>
        <time>2015-09-09T07:06:56Z</time>
      </trkpt>
      <trkpt lat="42.79944" lon="-0.17651">
        <ele>2257.3129882812</ele>
        <time>2015-09-09T07:07:11Z</time>
      </trkpt>
      <trkpt lat="42.79943" lon="-0.17647">
        <ele>2257.3129882812</ele>
        <time>2015-09-09T07:07:14Z</time>
      </trkpt>
      <trkpt lat="42.79938" lon="-0.17639">
        <ele>2257.3129882812</ele>
        <time>2015-09-09T07:07:21Z</time>
      </trkpt>
      <trkpt lat="42.79934" lon="-0.17627">
        <ele>2257.7937011719</ele>
        <time>2015-09-09T07:07:32Z</time>
      </trkpt>
      <trkpt lat="42.7993" lon="-0.17624">
        <ele>2258.7548828125</ele>
        <time>2015-09-09T07:07:36Z</time>
      </trkpt>
      <trkpt lat="42.79918" lon="-0.17617">
        <ele>2261.6389160156</ele>
        <time>2015-09-09T07:07:52Z</time>
      </trkpt>
      <trkpt lat="42.79918" lon="-0.17613">
        <ele>2263.0808105469</ele>
        <time>2015-09-09T07:07:55Z</time>
      </trkpt>
      <trkpt lat="42.79914" lon="-0.17603">
        <ele>2265.9645996094</ele>
        <time>2015-09-09T07:08:11Z</time>
      </trkpt>
      <trkpt lat="42.79912" lon="-0.17592">
        <ele>2266.4453125</ele>
        <time>2015-09-09T07:08:26Z</time>
      </trkpt>
      <trkpt lat="42.79911" lon="-0.17591">
        <ele>2265.9645996094</ele>
        <time>2015-09-09T07:08:27Z</time>
      </trkpt>
      <trkpt lat="42.79907" lon="-0.17583">
        <ele>2266.4453125</ele>
        <time>2015-09-09T07:08:42Z</time>
      </trkpt>
      <trkpt lat="42.79902" lon="-0.17582">
        <ele>2265.4841308594</ele>
        <time>2015-09-09T07:09:10Z</time>
      </trkpt>
      <trkpt lat="42.79901" lon="-0.17582">
        <ele>2265.4841308594</ele>
        <time>2015-09-09T07:09:11Z</time>
      </trkpt>
      <trkpt lat="42.7988" lon="-0.1758">
        <ele>2265.4841308594</ele>
        <time>2015-09-09T07:09:30Z</time>
      </trkpt>
      <trkpt lat="42.79868" lon="-0.17574">
        <ele>2265.9645996094</ele>
        <time>2015-09-09T07:09:44Z</time>
      </trkpt>
      <trkpt lat="42.79848" lon="-0.17571">
        <ele>2263.5612792969</ele>
        <time>2015-09-09T07:10:03Z</time>
      </trkpt>
      <trkpt lat="42.7984" lon="-0.17562">
        <ele>2263.0808105469</ele>
        <time>2015-09-09T07:10:17Z</time>
      </trkpt>
      <trkpt lat="42.79823" lon="-0.17552">
        <ele>2264.0419921875</ele>
        <time>2015-09-09T07:10:34Z</time>
      </trkpt>
      <trkpt lat="42.79807" lon="-0.17536">
        <ele>2266.4453125</ele>
        <time>2015-09-09T07:10:51Z</time>
      </trkpt>
      <trkpt lat="42.79798" lon="-0.1754">
        <ele>2269.3295898438</ele>
        <time>2015-09-09T07:11:06Z</time>
      </trkpt>
      <trkpt lat="42.7979" lon="-0.17529">
        <ele>2272.2133789062</ele>
        <time>2015-09-09T07:11:22Z</time>
      </trkpt>
      <trkpt lat="42.79786" lon="-0.17534">
        <ele>2273.1748046875</ele>
        <time>2015-09-09T07:11:36Z</time>
      </trkpt>
      <trkpt lat="42.7978" lon="-0.17528">
        <ele>2276.05859375</ele>
        <time>2015-09-09T07:11:49Z</time>
      </trkpt>
      <trkpt lat="42.79772" lon="-0.1752">
        <ele>2277.0200195312</ele>
        <time>2015-09-09T07:12:04Z</time>
      </trkpt>
      <trkpt lat="42.79769" lon="-0.1752">
        <ele>2278.4619140625</ele>
        <time>2015-09-09T07:12:09Z</time>
      </trkpt>
      <trkpt lat="42.79761" lon="-0.17526">
        <ele>2279.9038085938</ele>
        <time>2015-09-09T07:12:25Z</time>
      </trkpt>
      <trkpt lat="42.7976" lon="-0.1754">
        <ele>2281.8264160156</ele>
        <time>2015-09-09T07:12:42Z</time>
      </trkpt>
      <trkpt lat="42.79751" lon="-0.17544">
        <ele>2282.3071289062</ele>
        <time>2015-09-09T07:12:52Z</time>
      </trkpt>
      <trkpt lat="42.79746" lon="-0.17549">
        <ele>2281.8264160156</ele>
        <time>2015-09-09T07:12:58Z</time>
      </trkpt>
      <trkpt lat="42.79729" lon="-0.17546">
        <ele>2283.7490234375</ele>
        <time>2015-09-09T07:13:15Z</time>
      </trkpt>
      <trkpt lat="42.79719" lon="-0.17534">
        <ele>2283.2683105469</ele>
        <time>2015-09-09T07:13:29Z</time>
      </trkpt>
      <trkpt lat="42.79715" lon="-0.17527">
        <ele>2283.7490234375</ele>
        <time>2015-09-09T07:13:36Z</time>
      </trkpt>
      <trkpt lat="42.79706" lon="-0.17521">
        <ele>2284.7106933594</ele>
        <time>2015-09-09T07:13:47Z</time>
      </trkpt>
      <trkpt lat="42.797" lon="-0.17515">
        <ele>2284.2299804688</ele>
        <time>2015-09-09T07:14:02Z</time>
      </trkpt>
      <trkpt lat="42.79686" lon="-0.17504">
        <ele>2283.2683105469</ele>
        <time>2015-09-09T07:14:18Z</time>
      </trkpt>
      <trkpt lat="42.79681" lon="-0.17496">
        <ele>2283.7490234375</ele>
        <time>2015-09-09T07:14:26Z</time>
      </trkpt>
      <trkpt lat="42.7968" lon="-0.17487">
        <ele>2284.7106933594</ele>
        <time>2015-09-09T07:14:35Z</time>
      </trkpt>
      <trkpt lat="42.7967" lon="-0.17476">
        <ele>2287.5944824219</ele>
        <time>2015-09-09T07:14:50Z</time>
      </trkpt>
      <trkpt lat="42.79661" lon="-0.17463">
        <ele>2289.9978027344</ele>
        <time>2015-09-09T07:15:08Z</time>
      </trkpt>
      <trkpt lat="42.79661" lon="-0.17459">
        <ele>2291.4396972656</ele>
        <time>2015-09-09T07:15:13Z</time>
      </trkpt>
      <trkpt lat="42.79662" lon="-0.17451">
        <ele>2292.4011230469</ele>
        <time>2015-09-09T07:15:25Z</time>
      </trkpt>
      <trkpt lat="42.79662" lon="-0.17435">
        <ele>2293.8430175781</ele>
        <time>2015-09-09T07:15:41Z</time>
      </trkpt>
      <trkpt lat="42.7966" lon="-0.17427">
        <ele>2296.7268066406</ele>
        <time>2015-09-09T07:15:53Z</time>
      </trkpt>
      <trkpt lat="42.79659" lon="-0.17427">
        <ele>2297.2075195312</ele>
        <time>2015-09-09T07:15:54Z</time>
      </trkpt>
      <trkpt lat="42.79649" lon="-0.17424">
        <ele>2297.6882324219</ele>
        <time>2015-09-09T07:16:10Z</time>
      </trkpt>
      <trkpt lat="42.79639" lon="-0.1742">
        <ele>2298.1687011719</ele>
        <time>2015-09-09T07:16:25Z</time>
      </trkpt>
      <trkpt lat="42.79628" lon="-0.17411">
        <ele>2300.091796875</ele>
        <time>2015-09-09T07:16:41Z</time>
      </trkpt>
      <trkpt lat="42.79621" lon="-0.17398">
        <ele>2301.0529785156</ele>
        <time>2015-09-09T07:16:58Z</time>
      </trkpt>
      <trkpt lat="42.79615" lon="-0.17397">
        <ele>2301.5336914062</ele>
        <time>2015-09-09T07:17:10Z</time>
      </trkpt>
      <trkpt lat="42.79611" lon="-0.17388">
        <ele>2302.4948730469</ele>
        <time>2015-09-09T07:17:19Z</time>
      </trkpt>
      <trkpt lat="42.79607" lon="-0.17373">
        <ele>2303.4562988281</ele>
        <time>2015-09-09T07:17:33Z</time>
      </trkpt>
      <trkpt lat="42.79599" lon="-0.17366">
        <ele>2306.3400878906</ele>
        <time>2015-09-09T07:17:46Z</time>
      </trkpt>
      <trkpt lat="42.79593" lon="-0.17356">
        <ele>2307.7822265625</ele>
        <time>2015-09-09T07:18:00Z</time>
      </trkpt>
      <trkpt lat="42.79588" lon="-0.1735">
        <ele>2309.2241210938</ele>
        <time>2015-09-09T07:18:13Z</time>
      </trkpt>
      <trkpt lat="42.7958" lon="-0.17344">
        <ele>2311.6274414062</ele>
        <time>2015-09-09T07:18:30Z</time>
      </trkpt>
      <trkpt lat="42.79573" lon="-0.17331">
        <ele>2314.0305175781</ele>
        <time>2015-09-09T07:18:45Z</time>
      </trkpt>
      <trkpt lat="42.79566" lon="-0.17324">
        <ele>2315.47265625</ele>
        <time>2015-09-09T07:18:59Z</time>
      </trkpt>
      <trkpt lat="42.79562" lon="-0.17317">
        <ele>2316.9147949219</ele>
        <time>2015-09-09T07:19:09Z</time>
      </trkpt>
      <trkpt lat="42.79556" lon="-0.17306">
        <ele>2320.279296875</ele>
        <time>2015-09-09T07:19:23Z</time>
      </trkpt>
      <trkpt lat="42.7955" lon="-0.17301">
        <ele>2322.2019042969</ele>
        <time>2015-09-09T07:19:34Z</time>
      </trkpt>
      <trkpt lat="42.79544" lon="-0.17294">
        <ele>2323.1633300781</ele>
        <time>2015-09-09T07:19:45Z</time>
      </trkpt>
      <trkpt lat="42.79536" lon="-0.17288">
        <ele>2326.0471191406</ele>
        <time>2015-09-09T07:20:01Z</time>
      </trkpt>
      <trkpt lat="42.7953" lon="-0.17286">
        <ele>2327.9697265625</ele>
        <time>2015-09-09T07:20:14Z</time>
      </trkpt>
      <trkpt lat="42.79523" lon="-0.17284">
        <ele>2330.373046875</ele>
        <time>2015-09-09T07:20:33Z</time>
      </trkpt>
      <trkpt lat="42.79516" lon="-0.1728">
        <ele>2333.7377929688</ele>
        <time>2015-09-09T07:20:47Z</time>
      </trkpt>
      <trkpt lat="42.79512" lon="-0.17275">
        <ele>2334.69921875</ele>
        <time>2015-09-09T07:20:57Z</time>
      </trkpt>
      <trkpt lat="42.79509" lon="-0.17277">
        <ele>2337.1022949219</ele>
        <time>2015-09-09T07:21:08Z</time>
      </trkpt>
      <trkpt lat="42.79506" lon="-0.17286">
        <ele>2339.0249023438</ele>
        <time>2015-09-09T07:21:23Z</time>
      </trkpt>
      <trkpt lat="42.79498" lon="-0.17287">
        <ele>2342.3896484375</ele>
        <time>2015-09-09T07:21:37Z</time>
      </trkpt>
      <trkpt lat="42.7949" lon="-0.17291">
        <ele>2344.3120117188</ele>
        <time>2015-09-09T07:21:53Z</time>
      </trkpt>
      <trkpt lat="42.79484" lon="-0.17296">
        <ele>2346.2348632812</ele>
        <time>2015-09-09T07:22:07Z</time>
      </trkpt>
      <trkpt lat="42.79481" lon="-0.17299">
        <ele>2346.7153320312</ele>
        <time>2015-09-09T07:22:12Z</time>
      </trkpt>
      <trkpt lat="42.79465" lon="-0.17295">
        <ele>2347.1960449219</ele>
        <time>2015-09-09T07:22:31Z</time>
      </trkpt>
      <trkpt lat="42.79455" lon="-0.17291">
        <ele>2349.1188964844</ele>
        <time>2015-09-09T07:22:47Z</time>
      </trkpt>
      <trkpt lat="42.79445" lon="-0.17285">
        <ele>2351.5222167969</ele>
        <time>2015-09-09T07:23:02Z</time>
      </trkpt>
      <trkpt lat="42.79433" lon="-0.17282">
        <ele>2353.4448242188</ele>
        <time>2015-09-09T07:23:18Z</time>
      </trkpt>
      <trkpt lat="42.79424" lon="-0.17285">
        <ele>2354.88671875</ele>
        <time>2015-09-09T07:23:31Z</time>
      </trkpt>
      <trkpt lat="42.7941" lon="-0.17285">
        <ele>2355.3674316406</ele>
        <time>2015-09-09T07:23:51Z</time>
      </trkpt>
      <trkpt lat="42.79398" lon="-0.17283">
        <ele>2354.88671875</ele>
        <time>2015-09-09T07:24:09Z</time>
      </trkpt>
      <trkpt lat="42.79389" lon="-0.17285">
        <ele>2355.8479003906</ele>
        <time>2015-09-09T07:24:27Z</time>
      </trkpt>
      <trkpt lat="42.7939" lon="-0.17286">
        <ele>2355.8479003906</ele>
        <time>2015-09-09T07:24:51Z</time>
      </trkpt>
      <trkpt lat="42.79388" lon="-0.17294">
        <ele>2356.3286132812</ele>
        <time>2015-09-09T07:25:08Z</time>
      </trkpt>
      <trkpt lat="42.79385" lon="-0.17295">
        <ele>2356.3286132812</ele>
        <time>2015-09-09T07:25:19Z</time>
      </trkpt>
      <trkpt lat="42.79389" lon="-0.17277">
        <ele>2356.3286132812</ele>
        <time>2015-09-09T07:25:37Z</time>
      </trkpt>
      <trkpt lat="42.79382" lon="-0.17262">
        <ele>2356.8093261719</ele>
        <time>2015-09-09T07:26:02Z</time>
      </trkpt>
      <trkpt lat="42.79378" lon="-0.17257">
        <ele>2358.2512207031</ele>
        <time>2015-09-09T07:26:14Z</time>
      </trkpt>
      <trkpt lat="42.79375" lon="-0.17248">
        <ele>2359.2126464844</ele>
        <time>2015-09-09T07:26:29Z</time>
      </trkpt>
      <trkpt lat="42.79373" lon="-0.17237">
        <ele>2361.1352539062</ele>
        <time>2015-09-09T07:26:43Z</time>
      </trkpt>
      <trkpt lat="42.7937" lon="-0.17236">
        <ele>2364.0192871094</ele>
        <time>2015-09-09T07:26:55Z</time>
      </trkpt>
      <trkpt lat="42.79362" lon="-0.17236">
        <ele>2365.4614257812</ele>
        <time>2015-09-09T07:27:09Z</time>
      </trkpt>
      <trkpt lat="42.79357" lon="-0.17242">
        <ele>2366.9033203125</ele>
        <time>2015-09-09T07:27:22Z</time>
      </trkpt>
      <trkpt lat="42.79351" lon="-0.17245">
        <ele>2370.2678222656</ele>
        <time>2015-09-09T07:27:37Z</time>
      </trkpt>
      <trkpt lat="42.79348" lon="-0.17243">
        <ele>2372.6711425781</ele>
        <time>2015-09-09T07:27:51Z</time>
      </trkpt>
      <trkpt lat="42.79342" lon="-0.17248">
        <ele>2374.1130371094</ele>
        <time>2015-09-09T07:28:02Z</time>
      </trkpt>
      <trkpt lat="42.79337" lon="-0.1725">
        <ele>2376.0356445312</ele>
        <time>2015-09-09T07:28:16Z</time>
      </trkpt>
      <trkpt lat="42.79333" lon="-0.17245">
        <ele>2377.4775390625</ele>
        <time>2015-09-09T07:28:27Z</time>
      </trkpt>
      <trkpt lat="42.79328" lon="-0.17238">
        <ele>2379.4001464844</ele>
        <time>2015-09-09T07:28:40Z</time>
      </trkpt>
      <trkpt lat="42.79327" lon="-0.17225">
        <ele>2381.3229980469</ele>
        <time>2015-09-09T07:28:56Z</time>
      </trkpt>
      <trkpt lat="42.79332" lon="-0.17215">
        <ele>2384.20703125</ele>
        <time>2015-09-09T07:29:11Z</time>
      </trkpt>
      <trkpt lat="42.79329" lon="-0.17214">
        <ele>2385.6489257812</ele>
        <time>2015-09-09T07:29:28Z</time>
      </trkpt>
      <trkpt lat="42.79323" lon="-0.17216">
        <ele>2388.5329589844</ele>
        <time>2015-09-09T07:29:42Z</time>
      </trkpt>
      <trkpt lat="42.79318" lon="-0.17205">
        <ele>2390.9360351562</ele>
        <time>2015-09-09T07:29:58Z</time>
      </trkpt>
      <trkpt lat="42.79316" lon="-0.17194">
        <ele>2392.8586425781</ele>
        <time>2015-09-09T07:30:13Z</time>
      </trkpt>
      <trkpt lat="42.79313" lon="-0.1721">
        <ele>2394.3005371094</ele>
        <time>2015-09-09T07:30:39Z</time>
      </trkpt>
      <trkpt lat="42.79307" lon="-0.17195">
        <ele>2396.7041015625</ele>
        <time>2015-09-09T07:30:50Z</time>
      </trkpt>
      <trkpt lat="42.79302" lon="-0.17188">
        <ele>2398.1459960938</ele>
        <time>2015-09-09T07:31:03Z</time>
      </trkpt>
      <trkpt lat="42.79299" lon="-0.17189">
        <ele>2399.107421875</ele>
        <time>2015-09-09T07:31:15Z</time>
      </trkpt>
      <trkpt lat="42.79296" lon="-0.17182">
        <ele>2402.4719238281</ele>
        <time>2015-09-09T07:31:28Z</time>
      </trkpt>
      <trkpt lat="42.79289" lon="-0.17166">
        <ele>2404.39453125</ele>
        <time>2015-09-09T07:31:43Z</time>
      </trkpt>
      <trkpt lat="42.79286" lon="-0.17174">
        <ele>2408.2397460938</ele>
        <time>2015-09-09T07:31:56Z</time>
      </trkpt>
      <trkpt lat="42.79281" lon="-0.17179">
        <ele>2410.6430664062</ele>
        <time>2015-09-09T07:32:16Z</time>
      </trkpt>
      <trkpt lat="42.79277" lon="-0.17181">
        <ele>2412.0852050781</ele>
        <time>2015-09-09T07:32:29Z</time>
      </trkpt>
      <trkpt lat="42.79274" lon="-0.17185">
        <ele>2412.0852050781</ele>
        <time>2015-09-09T07:32:39Z</time>
      </trkpt>
      <trkpt lat="42.79271" lon="-0.17189">
        <ele>2414.9692382812</ele>
        <time>2015-09-09T07:32:47Z</time>
      </trkpt>
      <trkpt lat="42.79265" lon="-0.172">
        <ele>2417.8530273438</ele>
        <time>2015-09-09T07:33:07Z</time>
      </trkpt>
      <trkpt lat="42.79263" lon="-0.17206">
        <ele>2419.7756347656</ele>
        <time>2015-09-09T07:33:19Z</time>
      </trkpt>
      <trkpt lat="42.79264" lon="-0.17213">
        <ele>2420.7370605469</ele>
        <time>2015-09-09T07:33:35Z</time>
      </trkpt>
      <trkpt lat="42.79263" lon="-0.17224">
        <ele>2424.1015625</ele>
        <time>2015-09-09T07:33:51Z</time>
      </trkpt>
      <trkpt lat="42.79257" lon="-0.17225">
        <ele>2426.5048828125</ele>
        <time>2015-09-09T07:34:05Z</time>
      </trkpt>
      <trkpt lat="42.79251" lon="-0.17227">
        <ele>2427.9467773438</ele>
        <time>2015-09-09T07:34:19Z</time>
      </trkpt>
      <trkpt lat="42.79248" lon="-0.17228">
        <ele>2428.908203125</ele>
        <time>2015-09-09T07:34:32Z</time>
      </trkpt>
      <trkpt lat="42.79245" lon="-0.17225">
        <ele>2430.8310546875</ele>
        <time>2015-09-09T07:34:46Z</time>
      </trkpt>
      <trkpt lat="42.7924" lon="-0.17231">
        <ele>2432.7534179688</ele>
        <time>2015-09-09T07:35:00Z</time>
      </trkpt>
      <trkpt lat="42.79239" lon="-0.17234">
        <ele>2436.1181640625</ele>
        <time>2015-09-09T07:35:16Z</time>
      </trkpt>
      <trkpt lat="42.79239" lon="-0.17234">
        <ele>2435.6374511719</ele>
        <time>2015-09-09T07:35:17Z</time>
      </trkpt>
      <trkpt lat="42.79239" lon="-0.17236">
        <ele>2436.1181640625</ele>
        <time>2015-09-09T07:35:29Z</time>
      </trkpt>
      <trkpt lat="42.79235" lon="-0.1724">
        <ele>2437.0793457031</ele>
        <time>2015-09-09T07:35:42Z</time>
      </trkpt>
      <trkpt lat="42.79226" lon="-0.17237">
        <ele>2439.4826660156</ele>
        <time>2015-09-09T07:36:01Z</time>
      </trkpt>
      <trkpt lat="42.79221" lon="-0.17237">
        <ele>2442.8471679688</ele>
        <time>2015-09-09T07:36:13Z</time>
      </trkpt>
      <trkpt lat="42.79221" lon="-0.17243">
        <ele>2444.2893066406</ele>
        <time>2015-09-09T07:36:26Z</time>
      </trkpt>
      <trkpt lat="42.79216" lon="-0.17251">
        <ele>2446.6926269531</ele>
        <time>2015-09-09T07:36:42Z</time>
      </trkpt>
      <trkpt lat="42.79211" lon="-0.17249">
        <ele>2447.6540527344</ele>
        <time>2015-09-09T07:36:58Z</time>
      </trkpt>
      <trkpt lat="42.79209" lon="-0.1725">
        <ele>2449.5766601562</ele>
        <time>2015-09-09T07:37:12Z</time>
      </trkpt>
      <trkpt lat="42.79211" lon="-0.17249">
        <ele>2450.5378417969</ele>
        <time>2015-09-09T07:37:34Z</time>
      </trkpt>
      <trkpt lat="42.79207" lon="-0.17247">
        <ele>2451.0185546875</ele>
        <time>2015-09-09T07:37:57Z</time>
      </trkpt>
      <trkpt lat="42.79202" lon="-0.17247">
        <ele>2451.9797363281</ele>
        <time>2015-09-09T07:38:13Z</time>
      </trkpt>
      <trkpt lat="42.79198" lon="-0.17244">
        <ele>2455.3444824219</ele>
        <time>2015-09-09T07:38:27Z</time>
      </trkpt>
      <trkpt lat="42.79192" lon="-0.17233">
        <ele>2457.2670898438</ele>
        <time>2015-09-09T07:38:44Z</time>
      </trkpt>
      <trkpt lat="42.79189" lon="-0.17228">
        <ele>2460.6318359375</ele>
        <time>2015-09-09T07:38:56Z</time>
      </trkpt>
      <trkpt lat="42.79183" lon="-0.17224">
        <ele>2461.1125488281</ele>
        <time>2015-09-09T07:39:11Z</time>
      </trkpt>
      <trkpt lat="42.7918" lon="-0.17221">
        <ele>2461.1125488281</ele>
        <time>2015-09-09T07:39:25Z</time>
      </trkpt>
      <trkpt lat="42.79176" lon="-0.17217">
        <ele>2463.515625</ele>
        <time>2015-09-09T07:39:39Z</time>
      </trkpt>
      <trkpt lat="42.79171" lon="-0.17218">
        <ele>2465.4384765625</ele>
        <time>2015-09-09T07:39:52Z</time>
      </trkpt>
      <trkpt lat="42.79172" lon="-0.17217">
        <ele>2466.3996582031</ele>
        <time>2015-09-09T07:40:09Z</time>
      </trkpt>
      <trkpt lat="42.79169" lon="-0.17214">
        <ele>2469.2836914062</ele>
        <time>2015-09-09T07:40:20Z</time>
      </trkpt>
      <trkpt lat="42.79164" lon="-0.1721">
        <ele>2471.2060546875</ele>
        <time>2015-09-09T07:40:35Z</time>
      </trkpt>
      <trkpt lat="42.7916" lon="-0.17206">
        <ele>2473.12890625</ele>
        <time>2015-09-09T07:40:48Z</time>
      </trkpt>
      <trkpt lat="42.79158" lon="-0.17205">
        <ele>2474.5708007812</ele>
        <time>2015-09-09T07:40:51Z</time>
      </trkpt>
      <trkpt lat="42.79156" lon="-0.17206">
        <ele>2475.5319824219</ele>
        <time>2015-09-09T07:41:07Z</time>
      </trkpt>
      <trkpt lat="42.79151" lon="-0.17204">
        <ele>2476.4936523438</ele>
        <time>2015-09-09T07:41:23Z</time>
      </trkpt>
      <trkpt lat="42.79148" lon="-0.17199">
        <ele>2478.4162597656</ele>
        <time>2015-09-09T07:41:36Z</time>
      </trkpt>
      <trkpt lat="42.79147" lon="-0.17196">
        <ele>2479.3774414062</ele>
        <time>2015-09-09T07:41:39Z</time>
      </trkpt>
      <trkpt lat="42.79146" lon="-0.1719">
        <ele>2482.2614746094</ele>
        <time>2015-09-09T07:41:53Z</time>
      </trkpt>
      <trkpt lat="42.79144" lon="-0.17187">
        <ele>2483.22265625</ele>
        <time>2015-09-09T07:42:07Z</time>
      </trkpt>
      <trkpt lat="42.79139" lon="-0.17194">
        <ele>2486.1066894531</ele>
        <time>2015-09-09T07:42:23Z</time>
      </trkpt>
      <trkpt lat="42.79136" lon="-0.172">
        <ele>2488.5100097656</ele>
        <time>2015-09-09T07:42:38Z</time>
      </trkpt>
      <trkpt lat="42.79133" lon="-0.17205">
        <ele>2489.4711914062</ele>
        <time>2015-09-09T07:42:55Z</time>
      </trkpt>
      <trkpt lat="42.79129" lon="-0.17211">
        <ele>2490.4323730469</ele>
        <time>2015-09-09T07:43:08Z</time>
      </trkpt>
      <trkpt lat="42.79126" lon="-0.17217">
        <ele>2490.4323730469</ele>
        <time>2015-09-09T07:43:22Z</time>
      </trkpt>
      <trkpt lat="42.79123" lon="-0.17223">
        <ele>2492.8359375</ele>
        <time>2015-09-09T07:43:45Z</time>
      </trkpt>
      <trkpt lat="42.79116" lon="-0.17225">
        <ele>2494.7585449219</ele>
        <time>2015-09-09T07:43:57Z</time>
      </trkpt>
      <trkpt lat="42.79111" lon="-0.17226">
        <ele>2497.1618652344</ele>
        <time>2015-09-09T07:44:14Z</time>
      </trkpt>
      <trkpt lat="42.79107" lon="-0.17219">
        <ele>2498.123046875</ele>
        <time>2015-09-09T07:44:28Z</time>
      </trkpt>
      <trkpt lat="42.79104" lon="-0.17219">
        <ele>2499.0844726562</ele>
        <time>2015-09-09T07:44:44Z</time>
      </trkpt>
      <trkpt lat="42.79099" lon="-0.17226">
        <ele>2499.0844726562</ele>
        <time>2015-09-09T07:45:08Z</time>
      </trkpt>
      <trkpt lat="42.79091" lon="-0.17233">
        <ele>2500.5263671875</ele>
        <time>2015-09-09T07:45:23Z</time>
      </trkpt>
      <trkpt lat="42.7909" lon="-0.17233">
        <ele>2501.0070800781</ele>
        <time>2015-09-09T07:45:24Z</time>
      </trkpt>
      <trkpt lat="42.79084" lon="-0.17231">
        <ele>2502.9296875</ele>
        <time>2015-09-09T07:45:40Z</time>
      </trkpt>
      <trkpt lat="42.79074" lon="-0.17223">
        <ele>2506.2941894531</ele>
        <time>2015-09-09T07:46:01Z</time>
      </trkpt>
      <trkpt lat="42.7907" lon="-0.17217">
        <ele>2506.7749023438</ele>
        <time>2015-09-09T07:46:12Z</time>
      </trkpt>
      <trkpt lat="42.79064" lon="-0.17214">
        <ele>2509.1784667969</ele>
        <time>2015-09-09T07:46:27Z</time>
      </trkpt>
      <trkpt lat="42.79059" lon="-0.17219">
        <ele>2511.5817871094</ele>
        <time>2015-09-09T07:46:39Z</time>
      </trkpt>
      <trkpt lat="42.79051" lon="-0.17226">
        <ele>2513.0236816406</ele>
        <time>2015-09-09T07:46:59Z</time>
      </trkpt>
      <trkpt lat="42.79045" lon="-0.17227">
        <ele>2514.9462890625</ele>
        <time>2015-09-09T07:47:16Z</time>
      </trkpt>
      <trkpt lat="42.7904" lon="-0.17226">
        <ele>2517.3493652344</ele>
        <time>2015-09-09T07:47:33Z</time>
      </trkpt>
      <trkpt lat="42.79029" lon="-0.17233">
        <ele>2518.3107910156</ele>
        <time>2015-09-09T07:47:48Z</time>
      </trkpt>
      <trkpt lat="42.79024" lon="-0.17242">
        <ele>2518.3107910156</ele>
        <time>2015-09-09T07:48:02Z</time>
      </trkpt>
      <trkpt lat="42.79024" lon="-0.1725">
        <ele>2517.830078125</ele>
        <time>2015-09-09T07:48:37Z</time>
      </trkpt>
      <trkpt lat="42.79021" lon="-0.1725">
        <ele>2516.3881835938</ele>
        <time>2015-09-09T07:48:54Z</time>
      </trkpt>
      <trkpt lat="42.79018" lon="-0.17246">
        <ele>2515.9074707031</ele>
        <time>2015-09-09T07:49:06Z</time>
      </trkpt>
      <trkpt lat="42.79009" lon="-0.17247">
        <ele>2514.4655761719</ele>
        <time>2015-09-09T07:49:17Z</time>
      </trkpt>
      <trkpt lat="42.79005" lon="-0.1725">
        <ele>2513.9848632812</ele>
        <time>2015-09-09T07:49:29Z</time>
      </trkpt>
      <trkpt lat="42.79005" lon="-0.17248">
        <ele>2513.5041503906</ele>
        <time>2015-09-09T07:49:42Z</time>
      </trkpt>
      <trkpt lat="42.79004" lon="-0.17253">
        <ele>2513.0236816406</ele>
        <time>2015-09-09T07:50:03Z</time>
      </trkpt>
      <trkpt lat="42.78996" lon="-0.17245">
        <ele>2514.4655761719</ele>
        <time>2015-09-09T07:50:16Z</time>
      </trkpt>
      <trkpt lat="42.78998" lon="-0.17252">
        <ele>2517.3493652344</ele>
        <time>2015-09-09T07:50:42Z</time>
      </trkpt>
      <trkpt lat="42.7899" lon="-0.17257">
        <ele>2519.2722167969</ele>
        <time>2015-09-09T07:51:07Z</time>
      </trkpt>
      <trkpt lat="42.78987" lon="-0.17258">
        <ele>2520.2333984375</ele>
        <time>2015-09-09T07:51:23Z</time>
      </trkpt>
      <trkpt lat="42.78979" lon="-0.17265">
        <ele>2520.7141113281</ele>
        <time>2015-09-09T07:51:47Z</time>
      </trkpt>
      <trkpt lat="42.78976" lon="-0.17269">
        <ele>2520.2333984375</ele>
        <time>2015-09-09T07:52:05Z</time>
      </trkpt>
      <trkpt lat="42.7897" lon="-0.17273">
        <ele>2519.7526855469</ele>
        <time>2015-09-09T07:52:26Z</time>
      </trkpt>
      <trkpt lat="42.78966" lon="-0.17273">
        <ele>2519.7526855469</ele>
        <time>2015-09-09T07:52:41Z</time>
      </trkpt>
      <trkpt lat="42.78953" lon="-0.1727">
        <ele>2519.2722167969</ele>
        <time>2015-09-09T07:53:05Z</time>
      </trkpt>
      <trkpt lat="42.78948" lon="-0.17268">
        <ele>2516.8688964844</ele>
        <time>2015-09-09T07:53:21Z</time>
      </trkpt>
      <trkpt lat="42.78936" lon="-0.17275">
        <ele>2515.9074707031</ele>
        <time>2015-09-09T07:53:38Z</time>
      </trkpt>
      <trkpt lat="42.78923" lon="-0.1728">
        <ele>2515.4270019531</ele>
        <time>2015-09-09T07:53:57Z</time>
      </trkpt>
      <trkpt lat="42.78919" lon="-0.17282">
        <ele>2515.4270019531</ele>
        <time>2015-09-09T07:54:09Z</time>
      </trkpt>
      <trkpt lat="42.78909" lon="-0.17284">
        <ele>2517.830078125</ele>
        <time>2015-09-09T07:54:22Z</time>
      </trkpt>
      <trkpt lat="42.78901" lon="-0.17283">
        <ele>2518.7915039062</ele>
        <time>2015-09-09T07:54:37Z</time>
      </trkpt>
      <trkpt lat="42.78894" lon="-0.17282">
        <ele>2521.1945800781</ele>
        <time>2015-09-09T07:54:46Z</time>
      </trkpt>
      <trkpt lat="42.78884" lon="-0.17288">
        <ele>2523.1174316406</ele>
        <time>2015-09-09T07:55:00Z</time>
      </trkpt>
      <trkpt lat="42.78878" lon="-0.17296">
        <ele>2522.63671875</ele>
        <time>2015-09-09T07:55:12Z</time>
      </trkpt>
      <trkpt lat="42.7887" lon="-0.173">
        <ele>2525.5207519531</ele>
        <time>2015-09-09T07:55:25Z</time>
      </trkpt>
      <trkpt lat="42.78857" lon="-0.17309">
        <ele>2526.4821777344</ele>
        <time>2015-09-09T07:55:41Z</time>
      </trkpt>
      <trkpt lat="42.78857" lon="-0.17313">
        <ele>2526.4821777344</ele>
        <time>2015-09-09T07:55:56Z</time>
      </trkpt>
      <trkpt lat="42.78857" lon="-0.17312">
        <ele>2526.0014648438</ele>
        <time>2015-09-09T07:56:19Z</time>
      </trkpt>
      <trkpt lat="42.78863" lon="-0.17309">
        <ele>2527.443359375</ele>
        <time>2015-09-09T07:57:58Z</time>
      </trkpt>
    </trkseg>
  </trk>
  <trk>
    <name><![CDATA[ACTIVE LOG 010]]></name>
    <trkseg>
      <trkpt lat="42.78857" lon="-0.17311">
        <ele>2526.4821777344</ele>
        <time>2015-09-09T07:58:30Z</time>
      </trkpt>
    </trkseg>
  </trk>
  <trk>
    <name><![CDATA[ACTIVE LOG 011]]></name>
    <trkseg>
      <trkpt lat="42.78881" lon="-0.17305">
        <ele>2526.4821777344</ele>
        <time>2015-09-09T07:58:33Z</time>
      </trkpt>
      <trkpt lat="42.7886" lon="-0.17312">
        <ele>2526.0014648438</ele>
        <time>2015-09-09T08:00:36Z</time>
      </trkpt>
      <trkpt lat="42.7886" lon="-0.17311">
        <ele>2526.4821777344</ele>
        <time>2015-09-09T08:01:01Z</time>
      </trkpt>
      <trkpt lat="42.7886" lon="-0.17311">
        <ele>2526.962890625</ele>
        <time>2015-09-09T08:01:22Z</time>
      </trkpt>
      <trkpt lat="42.78859" lon="-0.17311">
        <ele>2526.4821777344</ele>
        <time>2015-09-09T08:01:37Z</time>
      </trkpt>
      <trkpt lat="42.78856" lon="-0.17313">
        <ele>2526.962890625</ele>
        <time>2015-09-09T08:02:02Z</time>
      </trkpt>
      <trkpt lat="42.78859" lon="-0.17312">
        <ele>2525.5207519531</ele>
        <time>2015-09-09T08:03:15Z</time>
      </trkpt>
      <trkpt lat="42.78857" lon="-0.17311">
        <ele>2525.5207519531</ele>
        <time>2015-09-09T08:03:40Z</time>
      </trkpt>
      <trkpt lat="42.78866" lon="-0.17309">
        <ele>2527.443359375</ele>
        <time>2015-09-09T08:05:52Z</time>
      </trkpt>
      <trkpt lat="42.7886" lon="-0.17307">
        <ele>2526.0014648438</ele>
        <time>2015-09-09T08:06:24Z</time>
      </trkpt>
      <trkpt lat="42.78857" lon="-0.1731">
        <ele>2525.0400390625</ele>
        <time>2015-09-09T08:07:37Z</time>
      </trkpt>
      <trkpt lat="42.78857" lon="-0.17311">
        <ele>2526.0014648438</ele>
        <time>2015-09-09T08:08:02Z</time>
      </trkpt>
      <trkpt lat="42.78858" lon="-0.17311">
        <ele>2524.5595703125</ele>
        <time>2015-09-09T08:08:27Z</time>
      </trkpt>
      <trkpt lat="42.78859" lon="-0.17311">
        <ele>2526.0014648438</ele>
        <time>2015-09-09T08:08:48Z</time>
      </trkpt>
      <trkpt lat="42.78859" lon="-0.17315">
        <ele>2526.0014648438</ele>
        <time>2015-09-09T08:09:10Z</time>
      </trkpt>
      <trkpt lat="42.78862" lon="-0.17304">
        <ele>2524.5595703125</ele>
        <time>2015-09-09T08:09:33Z</time>
      </trkpt>
      <trkpt lat="42.78863" lon="-0.17287">
        <ele>2525.0400390625</ele>
        <time>2015-09-09T08:09:47Z</time>
      </trkpt>
      <trkpt lat="42.78858" lon="-0.17277">
        <ele>2522.1560058594</ele>
        <time>2015-09-09T08:09:59Z</time>
      </trkpt>
      <trkpt lat="42.78856" lon="-0.17266">
        <ele>2520.2333984375</ele>
        <time>2015-09-09T08:10:12Z</time>
      </trkpt>
      <trkpt lat="42.78855" lon="-0.1726">
        <ele>2519.2722167969</ele>
        <time>2015-09-09T08:10:20Z</time>
      </trkpt>
      <trkpt lat="42.78857" lon="-0.17245">
        <ele>2518.7915039062</ele>
        <time>2015-09-09T08:10:32Z</time>
      </trkpt>
      <trkpt lat="42.78861" lon="-0.17236">
        <ele>2520.2333984375</ele>
        <time>2015-09-09T08:10:43Z</time>
      </trkpt>
      <trkpt lat="42.7886" lon="-0.17229">
        <ele>2520.2333984375</ele>
        <time>2015-09-09T08:10:56Z</time>
      </trkpt>
      <trkpt lat="42.78853" lon="-0.17223">
        <ele>2520.2333984375</ele>
        <time>2015-09-09T08:11:12Z</time>
      </trkpt>
      <trkpt lat="42.78849" lon="-0.17217">
        <ele>2519.7526855469</ele>
        <time>2015-09-09T08:11:24Z</time>
      </trkpt>
      <trkpt lat="42.78844" lon="-0.17209">
        <ele>2519.2722167969</ele>
        <time>2015-09-09T08:11:38Z</time>
      </trkpt>
      <trkpt lat="42.78838" lon="-0.17196">
        <ele>2518.3107910156</ele>
        <time>2015-09-09T08:11:55Z</time>
      </trkpt>
      <trkpt lat="42.78835" lon="-0.17187">
        <ele>2517.830078125</ele>
        <time>2015-09-09T08:12:06Z</time>
      </trkpt>
      <trkpt lat="42.78831" lon="-0.17178">
        <ele>2517.830078125</ele>
        <time>2015-09-09T08:12:15Z</time>
      </trkpt>
      <trkpt lat="42.7882" lon="-0.17164">
        <ele>2518.3107910156</ele>
        <time>2015-09-09T08:12:31Z</time>
      </trkpt>
      <trkpt lat="42.78812" lon="-0.17143">
        <ele>2518.7915039062</ele>
        <time>2015-09-09T08:12:48Z</time>
      </trkpt>
      <trkpt lat="42.78799" lon="-0.17126">
        <ele>2515.9074707031</ele>
        <time>2015-09-09T08:13:06Z</time>
      </trkpt>
      <trkpt lat="42.78794" lon="-0.17112">
        <ele>2516.8688964844</ele>
        <time>2015-09-09T08:13:19Z</time>
      </trkpt>
      <trkpt lat="42.78785" lon="-0.171">
        <ele>2517.3493652344</ele>
        <time>2015-09-09T08:13:35Z</time>
      </trkpt>
      <trkpt lat="42.78775" lon="-0.1709">
        <ele>2517.830078125</ele>
        <time>2015-09-09T08:13:52Z</time>
      </trkpt>
      <trkpt lat="42.78778" lon="-0.17091">
        <ele>2516.8688964844</ele>
        <time>2015-09-09T08:14:09Z</time>
      </trkpt>
      <trkpt lat="42.78772" lon="-0.17083">
        <ele>2516.3881835938</ele>
        <time>2015-09-09T08:14:32Z</time>
      </trkpt>
      <trkpt lat="42.78775" lon="-0.17073">
        <ele>2514.9462890625</ele>
        <time>2015-09-09T08:14:48Z</time>
      </trkpt>
      <trkpt lat="42.78775" lon="-0.1707">
        <ele>2513.9848632812</ele>
        <time>2015-09-09T08:14:52Z</time>
      </trkpt>
      <trkpt lat="42.78775" lon="-0.17065">
        <ele>2512.54296875</ele>
        <time>2015-09-09T08:14:58Z</time>
      </trkpt>
      <trkpt lat="42.78775" lon="-0.17052">
        <ele>2509.1784667969</ele>
        <time>2015-09-09T08:15:14Z</time>
      </trkpt>
      <trkpt lat="42.78774" lon="-0.17037">
        <ele>2505.3330078125</ele>
        <time>2015-09-09T08:15:30Z</time>
      </trkpt>
      <trkpt lat="42.78773" lon="-0.17025">
        <ele>2502.9296875</ele>
        <time>2015-09-09T08:15:46Z</time>
      </trkpt>
      <trkpt lat="42.78776" lon="-0.17019">
        <ele>2501.4877929688</ele>
        <time>2015-09-09T08:16:01Z</time>
      </trkpt>
      <trkpt lat="42.78778" lon="-0.17014">
        <ele>2501.0070800781</ele>
        <time>2015-09-09T08:16:24Z</time>
      </trkpt>
      <trkpt lat="42.78775" lon="-0.17007">
        <ele>2498.6037597656</ele>
        <time>2015-09-09T08:16:40Z</time>
      </trkpt>
      <trkpt lat="42.78774" lon="-0.17001">
        <ele>2497.1618652344</ele>
        <time>2015-09-09T08:16:58Z</time>
      </trkpt>
      <trkpt lat="42.78776" lon="-0.16997">
        <ele>2494.2778320312</ele>
        <time>2015-09-09T08:17:20Z</time>
      </trkpt>
      <trkpt lat="42.78774" lon="-0.16986">
        <ele>2490.9130859375</ele>
        <time>2015-09-09T08:17:38Z</time>
      </trkpt>
      <trkpt lat="42.78772" lon="-0.16977">
        <ele>2487.5485839844</ele>
        <time>2015-09-09T08:17:51Z</time>
      </trkpt>
      <trkpt lat="42.78771" lon="-0.16976">
        <ele>2487.5485839844</ele>
        <time>2015-09-09T08:17:52Z</time>
      </trkpt>
      <trkpt lat="42.78771" lon="-0.16971">
        <ele>2484.1840820312</ele>
        <time>2015-09-09T08:17:59Z</time>
      </trkpt>
      <trkpt lat="42.78773" lon="-0.16959">
        <ele>2482.2614746094</ele>
        <time>2015-09-09T08:18:12Z</time>
      </trkpt>
      <trkpt lat="42.78774" lon="-0.16959">
        <ele>2482.2614746094</ele>
        <time>2015-09-09T08:18:13Z</time>
      </trkpt>
      <trkpt lat="42.78776" lon="-0.16948">
        <ele>2479.8581542969</ele>
        <time>2015-09-09T08:18:27Z</time>
      </trkpt>
      <trkpt lat="42.78778" lon="-0.16936">
        <ele>2477.935546875</ele>
        <time>2015-09-09T08:18:44Z</time>
      </trkpt>
      <trkpt lat="42.78778" lon="-0.16925">
        <ele>2475.0512695312</ele>
        <time>2015-09-09T08:18:57Z</time>
      </trkpt>
      <trkpt lat="42.78778" lon="-0.16924">
        <ele>2475.0512695312</ele>
        <time>2015-09-09T08:18:58Z</time>
      </trkpt>
      <trkpt lat="42.78779" lon="-0.16919">
        <ele>2475.0512695312</ele>
        <time>2015-09-09T08:19:02Z</time>
      </trkpt>
      <trkpt lat="42.78783" lon="-0.16915">
        <ele>2476.0129394531</ele>
        <time>2015-09-09T08:19:08Z</time>
      </trkpt>
      <trkpt lat="42.78789" lon="-0.16894">
        <ele>2476.9743652344</ele>
        <time>2015-09-09T08:19:24Z</time>
      </trkpt>
      <trkpt lat="42.78793" lon="-0.16885">
        <ele>2476.4936523438</ele>
        <time>2015-09-09T08:19:34Z</time>
      </trkpt>
      <trkpt lat="42.78799" lon="-0.1687">
        <ele>2476.0129394531</ele>
        <time>2015-09-09T08:19:50Z</time>
      </trkpt>
      <trkpt lat="42.78799" lon="-0.16855">
        <ele>2475.0512695312</ele>
        <time>2015-09-09T08:20:04Z</time>
      </trkpt>
      <trkpt lat="42.78803" lon="-0.1685">
        <ele>2471.6867675781</ele>
        <time>2015-09-09T08:20:13Z</time>
      </trkpt>
      <trkpt lat="42.78807" lon="-0.16845">
        <ele>2471.2060546875</ele>
        <time>2015-09-09T08:20:20Z</time>
      </trkpt>
      <trkpt lat="42.78813" lon="-0.16843">
        <ele>2471.2060546875</ele>
        <time>2015-09-09T08:20:26Z</time>
      </trkpt>
      <trkpt lat="42.7882" lon="-0.16826">
        <ele>2470.7255859375</ele>
        <time>2015-09-09T08:20:40Z</time>
      </trkpt>
      <trkpt lat="42.78819" lon="-0.16815">
        <ele>2468.322265625</ele>
        <time>2015-09-09T08:20:52Z</time>
      </trkpt>
      <trkpt lat="42.7882" lon="-0.16808">
        <ele>2467.3608398438</ele>
        <time>2015-09-09T08:20:58Z</time>
      </trkpt>
      <trkpt lat="42.78823" lon="-0.168">
        <ele>2467.8415527344</ele>
        <time>2015-09-09T08:21:05Z</time>
      </trkpt>
      <trkpt lat="42.78828" lon="-0.16791">
        <ele>2468.8029785156</ele>
        <time>2015-09-09T08:21:18Z</time>
      </trkpt>
      <trkpt lat="42.78829" lon="-0.16789">
        <ele>2468.322265625</ele>
        <time>2015-09-09T08:21:21Z</time>
      </trkpt>
      <trkpt lat="42.78836" lon="-0.16782">
        <ele>2467.8415527344</ele>
        <time>2015-09-09T08:21:35Z</time>
      </trkpt>
      <trkpt lat="42.78842" lon="-0.16777">
        <ele>2466.8803710938</ele>
        <time>2015-09-09T08:21:43Z</time>
      </trkpt>
      <trkpt lat="42.78845" lon="-0.16775">
        <ele>2467.3608398438</ele>
        <time>2015-09-09T08:21:48Z</time>
      </trkpt>
      <trkpt lat="42.78849" lon="-0.16771">
        <ele>2466.3996582031</ele>
        <time>2015-09-09T08:21:54Z</time>
      </trkpt>
      <trkpt lat="42.78864" lon="-0.16765">
        <ele>2467.3608398438</ele>
        <time>2015-09-09T08:22:11Z</time>
      </trkpt>
      <trkpt lat="42.78869" lon="-0.16761">
        <ele>2466.8803710938</ele>
        <time>2015-09-09T08:22:19Z</time>
      </trkpt>
      <trkpt lat="42.7888" lon="-0.16753">
        <ele>2465.4384765625</ele>
        <time>2015-09-09T08:22:33Z</time>
      </trkpt>
      <trkpt lat="42.7889" lon="-0.16745">
        <ele>2465.9189453125</ele>
        <time>2015-09-09T08:22:47Z</time>
      </trkpt>
      <trkpt lat="42.78896" lon="-0.16737">
        <ele>2463.9963378906</ele>
        <time>2015-09-09T08:22:59Z</time>
      </trkpt>
      <trkpt lat="42.78904" lon="-0.16728">
        <ele>2463.9963378906</ele>
        <time>2015-09-09T08:23:10Z</time>
      </trkpt>
      <trkpt lat="42.7891" lon="-0.16713">
        <ele>2463.9963378906</ele>
        <time>2015-09-09T08:23:24Z</time>
      </trkpt>
      <trkpt lat="42.78913" lon="-0.16705">
        <ele>2462.5544433594</ele>
        <time>2015-09-09T08:23:40Z</time>
      </trkpt>
      <trkpt lat="42.7892" lon="-0.16706">
        <ele>2462.5544433594</ele>
        <time>2015-09-09T08:23:59Z</time>
      </trkpt>
      <trkpt lat="42.78928" lon="-0.16697">
        <ele>2463.9963378906</ele>
        <time>2015-09-09T08:24:15Z</time>
      </trkpt>
      <trkpt lat="42.78932" lon="-0.16686">
        <ele>2463.9963378906</ele>
        <time>2015-09-09T08:24:26Z</time>
      </trkpt>
      <trkpt lat="42.78936" lon="-0.16678">
        <ele>2465.4384765625</ele>
        <time>2015-09-09T08:24:34Z</time>
      </trkpt>
      <trkpt lat="42.78944" lon="-0.16665">
        <ele>2464.9577636719</ele>
        <time>2015-09-09T08:24:47Z</time>
      </trkpt>
      <trkpt lat="42.78945" lon="-0.16664">
        <ele>2464.9577636719</ele>
        <time>2015-09-09T08:24:49Z</time>
      </trkpt>
      <trkpt lat="42.78956" lon="-0.16647">
        <ele>2464.9577636719</ele>
        <time>2015-09-09T08:25:05Z</time>
      </trkpt>
      <trkpt lat="42.78963" lon="-0.16639">
        <ele>2464.4770507812</ele>
        <time>2015-09-09T08:25:16Z</time>
      </trkpt>
      <trkpt lat="42.78973" lon="-0.16628">
        <ele>2465.9189453125</ele>
        <time>2015-09-09T08:25:31Z</time>
      </trkpt>
      <trkpt lat="42.78982" lon="-0.16618">
        <ele>2466.8803710938</ele>
        <time>2015-09-09T08:25:46Z</time>
      </trkpt>
      <trkpt lat="42.78983" lon="-0.16613">
        <ele>2464.9577636719</ele>
        <time>2015-09-09T08:25:52Z</time>
      </trkpt>
      <trkpt lat="42.7899" lon="-0.16602">
        <ele>2461.5932617188</ele>
        <time>2015-09-09T08:26:05Z</time>
      </trkpt>
      <trkpt lat="42.78996" lon="-0.16586">
        <ele>2461.1125488281</ele>
        <time>2015-09-09T08:26:20Z</time>
      </trkpt>
      <trkpt lat="42.78998" lon="-0.16584">
        <ele>2460.6318359375</ele>
        <time>2015-09-09T08:26:23Z</time>
      </trkpt>
      <trkpt lat="42.79" lon="-0.16581">
        <ele>2460.6318359375</ele>
        <time>2015-09-09T08:26:26Z</time>
      </trkpt>
      <trkpt lat="42.79011" lon="-0.16575">
        <ele>2459.6701660156</ele>
        <time>2015-09-09T08:26:39Z</time>
      </trkpt>
      <trkpt lat="42.79018" lon="-0.16559">
        <ele>2458.2282714844</ele>
        <time>2015-09-09T08:26:54Z</time>
      </trkpt>
      <trkpt lat="42.79028" lon="-0.16543">
        <ele>2457.2670898438</ele>
        <time>2015-09-09T08:27:10Z</time>
      </trkpt>
      <trkpt lat="42.79037" lon="-0.16538">
        <ele>2458.2282714844</ele>
        <time>2015-09-09T08:27:20Z</time>
      </trkpt>
      <trkpt lat="42.79039" lon="-0.16535">
        <ele>2457.2670898438</ele>
        <time>2015-09-09T08:27:24Z</time>
      </trkpt>
      <trkpt lat="42.79041" lon="-0.16533">
        <ele>2457.7478027344</ele>
        <time>2015-09-09T08:27:27Z</time>
      </trkpt>
      <trkpt lat="42.79048" lon="-0.16525">
        <ele>2456.3056640625</ele>
        <time>2015-09-09T08:27:39Z</time>
      </trkpt>
      <trkpt lat="42.79058" lon="-0.16505">
        <ele>2456.3056640625</ele>
        <time>2015-09-09T08:27:56Z</time>
      </trkpt>
      <trkpt lat="42.79066" lon="-0.16494">
        <ele>2455.3444824219</ele>
        <time>2015-09-09T08:28:10Z</time>
      </trkpt>
      <trkpt lat="42.79068" lon="-0.16482">
        <ele>2454.8637695312</ele>
        <time>2015-09-09T08:28:22Z</time>
      </trkpt>
      <trkpt lat="42.79071" lon="-0.16468">
        <ele>2454.8637695312</ele>
        <time>2015-09-09T08:28:36Z</time>
      </trkpt>
      <trkpt lat="42.79074" lon="-0.16459">
        <ele>2453.421875</ele>
        <time>2015-09-09T08:28:48Z</time>
      </trkpt>
      <trkpt lat="42.79073" lon="-0.16458">
        <ele>2453.9025878906</ele>
        <time>2015-09-09T08:29:00Z</time>
      </trkpt>
      <trkpt lat="42.79081" lon="-0.16451">
        <ele>2453.421875</ele>
        <time>2015-09-09T08:29:23Z</time>
      </trkpt>
      <trkpt lat="42.79092" lon="-0.16433">
        <ele>2451.9797363281</ele>
        <time>2015-09-09T08:29:41Z</time>
      </trkpt>
      <trkpt lat="42.79102" lon="-0.1642">
        <ele>2450.5378417969</ele>
        <time>2015-09-09T08:29:58Z</time>
      </trkpt>
      <trkpt lat="42.79109" lon="-0.16409">
        <ele>2449.5766601562</ele>
        <time>2015-09-09T08:30:11Z</time>
      </trkpt>
      <trkpt lat="42.79117" lon="-0.16401">
        <ele>2449.5766601562</ele>
        <time>2015-09-09T08:30:23Z</time>
      </trkpt>
      <trkpt lat="42.79125" lon="-0.16395">
        <ele>2450.0573730469</ele>
        <time>2015-09-09T08:30:33Z</time>
      </trkpt>
      <trkpt lat="42.79137" lon="-0.16378">
        <ele>2451.9797363281</ele>
        <time>2015-09-09T08:30:51Z</time>
      </trkpt>
      <trkpt lat="42.79139" lon="-0.16374">
        <ele>2452.4604492188</ele>
        <time>2015-09-09T08:30:58Z</time>
      </trkpt>
      <trkpt lat="42.79145" lon="-0.16365">
        <ele>2452.9411621094</ele>
        <time>2015-09-09T08:31:09Z</time>
      </trkpt>
      <trkpt lat="42.79151" lon="-0.16361">
        <ele>2454.3830566406</ele>
        <time>2015-09-09T08:31:19Z</time>
      </trkpt>
      <trkpt lat="42.79157" lon="-0.16353">
        <ele>2455.8249511719</ele>
        <time>2015-09-09T08:31:37Z</time>
      </trkpt>
      <trkpt lat="42.79163" lon="-0.16344">
        <ele>2456.3056640625</ele>
        <time>2015-09-09T08:31:47Z</time>
      </trkpt>
      <trkpt lat="42.79167" lon="-0.1634">
        <ele>2456.3056640625</ele>
        <time>2015-09-09T08:31:52Z</time>
      </trkpt>
      <trkpt lat="42.79175" lon="-0.16329">
        <ele>2457.7478027344</ele>
        <time>2015-09-09T08:32:07Z</time>
      </trkpt>
      <trkpt lat="42.79181" lon="-0.16314">
        <ele>2459.1896972656</ele>
        <time>2015-09-09T08:32:21Z</time>
      </trkpt>
      <trkpt lat="42.79189" lon="-0.16306">
        <ele>2459.6701660156</ele>
        <time>2015-09-09T08:32:35Z</time>
      </trkpt>
      <trkpt lat="42.79189" lon="-0.16293">
        <ele>2460.1511230469</ele>
        <time>2015-09-09T08:32:47Z</time>
      </trkpt>
      <trkpt lat="42.79185" lon="-0.1628">
        <ele>2460.6318359375</ele>
        <time>2015-09-09T08:32:59Z</time>
      </trkpt>
      <trkpt lat="42.79179" lon="-0.16271">
        <ele>2459.1896972656</ele>
        <time>2015-09-09T08:33:19Z</time>
      </trkpt>
      <trkpt lat="42.79181" lon="-0.16261">
        <ele>2459.6701660156</ele>
        <time>2015-09-09T08:33:34Z</time>
      </trkpt>
      <trkpt lat="42.7919" lon="-0.16248">
        <ele>2458.708984375</ele>
        <time>2015-09-09T08:33:49Z</time>
      </trkpt>
      <trkpt lat="42.79189" lon="-0.16236">
        <ele>2458.2282714844</ele>
        <time>2015-09-09T08:34:00Z</time>
      </trkpt>
      <trkpt lat="42.79189" lon="-0.16216">
        <ele>2459.1896972656</ele>
        <time>2015-09-09T08:34:18Z</time>
      </trkpt>
      <trkpt lat="42.79192" lon="-0.16207">
        <ele>2462.5544433594</ele>
        <time>2015-09-09T08:34:28Z</time>
      </trkpt>
      <trkpt lat="42.79193" lon="-0.16206">
        <ele>2462.0737304688</ele>
        <time>2015-09-09T08:34:29Z</time>
      </trkpt>
      <trkpt lat="42.79196" lon="-0.16191">
        <ele>2463.515625</ele>
        <time>2015-09-09T08:34:44Z</time>
      </trkpt>
      <trkpt lat="42.79198" lon="-0.16182">
        <ele>2464.9577636719</ele>
        <time>2015-09-09T08:34:56Z</time>
      </trkpt>
      <trkpt lat="42.79199" lon="-0.16172">
        <ele>2464.9577636719</ele>
        <time>2015-09-09T08:35:07Z</time>
      </trkpt>
      <trkpt lat="42.792" lon="-0.16162">
        <ele>2464.9577636719</ele>
        <time>2015-09-09T08:35:22Z</time>
      </trkpt>
      <trkpt lat="42.79202" lon="-0.16153">
        <ele>2466.8803710938</ele>
        <time>2015-09-09T08:35:35Z</time>
      </trkpt>
      <trkpt lat="42.79203" lon="-0.16142">
        <ele>2466.8803710938</ele>
        <time>2015-09-09T08:35:50Z</time>
      </trkpt>
      <trkpt lat="42.79206" lon="-0.16132">
        <ele>2467.8415527344</ele>
        <time>2015-09-09T08:36:03Z</time>
      </trkpt>
      <trkpt lat="42.79209" lon="-0.16122">
        <ele>2468.322265625</ele>
        <time>2015-09-09T08:36:14Z</time>
      </trkpt>
      <trkpt lat="42.79209" lon="-0.16103">
        <ele>2468.8029785156</ele>
        <time>2015-09-09T08:36:31Z</time>
      </trkpt>
      <trkpt lat="42.79209" lon="-0.16093">
        <ele>2470.2448730469</ele>
        <time>2015-09-09T08:36:42Z</time>
      </trkpt>
      <trkpt lat="42.79203" lon="-0.16082">
        <ele>2468.8029785156</ele>
        <time>2015-09-09T08:36:59Z</time>
      </trkpt>
      <trkpt lat="42.79197" lon="-0.16064">
        <ele>2468.322265625</ele>
        <time>2015-09-09T08:37:16Z</time>
      </trkpt>
      <trkpt lat="42.79191" lon="-0.16045">
        <ele>2468.8029785156</ele>
        <time>2015-09-09T08:37:33Z</time>
      </trkpt>
      <trkpt lat="42.7919" lon="-0.16035">
        <ele>2469.7641601562</ele>
        <time>2015-09-09T08:37:45Z</time>
      </trkpt>
      <trkpt lat="42.79187" lon="-0.16022">
        <ele>2469.2836914062</ele>
        <time>2015-09-09T08:37:59Z</time>
      </trkpt>
      <trkpt lat="42.79189" lon="-0.16018">
        <ele>2469.2836914062</ele>
        <time>2015-09-09T08:38:17Z</time>
      </trkpt>
    </trkseg>
  </trk>
  <trk>
    <name><![CDATA[ACTIVE LOG 012]]></name>
    <trkseg>
      <trkpt lat="42.79189" lon="-0.16018">
        <ele>2467.8415527344</ele>
        <time>2015-09-09T08:43:34Z</time>
      </trkpt>
      <trkpt lat="42.79189" lon="-0.16018">
        <ele>2464.9577636719</ele>
        <time>2015-09-09T08:43:35Z</time>
      </trkpt>
    </trkseg>
  </trk>
  <trk>
    <name><![CDATA[ACTIVE LOG 013]]></name>
    <trkseg>
      <trkpt lat="42.79183" lon="-0.1602">
        <ele>2464.9577636719</ele>
        <time>2015-09-09T08:43:38Z</time>
      </trkpt>
      <trkpt lat="42.79185" lon="-0.16023">
        <ele>2466.3996582031</ele>
        <time>2015-09-09T08:43:51Z</time>
      </trkpt>
      <trkpt lat="42.79189" lon="-0.16021">
        <ele>2467.8415527344</ele>
        <time>2015-09-09T08:44:41Z</time>
      </trkpt>
      <trkpt lat="42.79186" lon="-0.16012">
        <ele>2468.8029785156</ele>
        <time>2015-09-09T08:45:08Z</time>
      </trkpt>
      <trkpt lat="42.79181" lon="-0.16005">
        <ele>2469.2836914062</ele>
        <time>2015-09-09T08:45:18Z</time>
      </trkpt>
      <trkpt lat="42.79176" lon="-0.15981">
        <ele>2471.2060546875</ele>
        <time>2015-09-09T08:45:38Z</time>
      </trkpt>
      <trkpt lat="42.79173" lon="-0.1597">
        <ele>2472.1674804688</ele>
        <time>2015-09-09T08:45:53Z</time>
      </trkpt>
      <trkpt lat="42.79172" lon="-0.15963">
        <ele>2472.6481933594</ele>
        <time>2015-09-09T08:46:03Z</time>
      </trkpt>
      <trkpt lat="42.79169" lon="-0.15952">
        <ele>2474.5708007812</ele>
        <time>2015-09-09T08:46:16Z</time>
      </trkpt>
      <trkpt lat="42.79165" lon="-0.15938">
        <ele>2475.5319824219</ele>
        <time>2015-09-09T08:46:30Z</time>
      </trkpt>
      <trkpt lat="42.79162" lon="-0.15917">
        <ele>2476.0129394531</ele>
        <time>2015-09-09T08:46:47Z</time>
      </trkpt>
      <trkpt lat="42.79161" lon="-0.15906">
        <ele>2475.5319824219</ele>
        <time>2015-09-09T08:47:00Z</time>
      </trkpt>
      <trkpt lat="42.79157" lon="-0.15894">
        <ele>2473.609375</ele>
        <time>2015-09-09T08:47:17Z</time>
      </trkpt>
      <trkpt lat="42.79152" lon="-0.15887">
        <ele>2473.12890625</ele>
        <time>2015-09-09T08:47:29Z</time>
      </trkpt>
      <trkpt lat="42.79151" lon="-0.15884">
        <ele>2473.609375</ele>
        <time>2015-09-09T08:47:33Z</time>
      </trkpt>
      <trkpt lat="42.79148" lon="-0.15881">
        <ele>2474.5708007812</ele>
        <time>2015-09-09T08:47:38Z</time>
      </trkpt>
      <trkpt lat="42.79143" lon="-0.15869">
        <ele>2477.935546875</ele>
        <time>2015-09-09T08:47:53Z</time>
      </trkpt>
      <trkpt lat="42.7914" lon="-0.15858">
        <ele>2478.8967285156</ele>
        <time>2015-09-09T08:48:07Z</time>
      </trkpt>
      <trkpt lat="42.79135" lon="-0.15849">
        <ele>2478.4162597656</ele>
        <time>2015-09-09T08:48:21Z</time>
      </trkpt>
      <trkpt lat="42.79134" lon="-0.15841">
        <ele>2482.2614746094</ele>
        <time>2015-09-09T08:48:32Z</time>
      </trkpt>
      <trkpt lat="42.79132" lon="-0.15837">
        <ele>2483.7033691406</ele>
        <time>2015-09-09T08:48:38Z</time>
      </trkpt>
      <trkpt lat="42.79128" lon="-0.15832">
        <ele>2484.1840820312</ele>
        <time>2015-09-09T08:48:49Z</time>
      </trkpt>
      <trkpt lat="42.79123" lon="-0.15824">
        <ele>2486.1066894531</ele>
        <time>2015-09-09T08:49:03Z</time>
      </trkpt>
      <trkpt lat="42.79118" lon="-0.15817">
        <ele>2485.6259765625</ele>
        <time>2015-09-09T08:49:15Z</time>
      </trkpt>
      <trkpt lat="42.79117" lon="-0.15808">
        <ele>2487.5485839844</ele>
        <time>2015-09-09T08:49:29Z</time>
      </trkpt>
      <trkpt lat="42.79111" lon="-0.15803">
        <ele>2488.029296875</ele>
        <time>2015-09-09T08:49:42Z</time>
      </trkpt>
      <trkpt lat="42.79105" lon="-0.15793">
        <ele>2490.4323730469</ele>
        <time>2015-09-09T08:49:59Z</time>
      </trkpt>
      <trkpt lat="42.79102" lon="-0.15787">
        <ele>2493.3166503906</ele>
        <time>2015-09-09T08:50:14Z</time>
      </trkpt>
      <trkpt lat="42.79102" lon="-0.15785">
        <ele>2494.7585449219</ele>
        <time>2015-09-09T08:50:17Z</time>
      </trkpt>
      <trkpt lat="42.79096" lon="-0.1578">
        <ele>2497.642578125</ele>
        <time>2015-09-09T08:50:34Z</time>
      </trkpt>
      <trkpt lat="42.79094" lon="-0.15773">
        <ele>2500.5263671875</ele>
        <time>2015-09-09T08:50:45Z</time>
      </trkpt>
      <trkpt lat="42.7909" lon="-0.15763">
        <ele>2501.4877929688</ele>
        <time>2015-09-09T08:50:56Z</time>
      </trkpt>
      <trkpt lat="42.79082" lon="-0.15751">
        <ele>2502.9296875</ele>
        <time>2015-09-09T08:51:12Z</time>
      </trkpt>
      <trkpt lat="42.79075" lon="-0.15742">
        <ele>2504.8522949219</ele>
        <time>2015-09-09T08:51:28Z</time>
      </trkpt>
      <trkpt lat="42.79068" lon="-0.15734">
        <ele>2507.736328125</ele>
        <time>2015-09-09T08:51:43Z</time>
      </trkpt>
      <trkpt lat="42.79064" lon="-0.15727">
        <ele>2509.6589355469</ele>
        <time>2015-09-09T08:51:52Z</time>
      </trkpt>
      <trkpt lat="42.79062" lon="-0.15725">
        <ele>2510.1396484375</ele>
        <time>2015-09-09T08:52:04Z</time>
      </trkpt>
      <trkpt lat="42.79055" lon="-0.15716">
        <ele>2512.0622558594</ele>
        <time>2015-09-09T08:52:17Z</time>
      </trkpt>
      <trkpt lat="42.79049" lon="-0.15712">
        <ele>2513.0236816406</ele>
        <time>2015-09-09T08:52:32Z</time>
      </trkpt>
      <trkpt lat="42.79043" lon="-0.15706">
        <ele>2514.4655761719</ele>
        <time>2015-09-09T08:52:49Z</time>
      </trkpt>
      <trkpt lat="42.79039" lon="-0.15705">
        <ele>2516.8688964844</ele>
        <time>2015-09-09T08:53:34Z</time>
      </trkpt>
      <trkpt lat="42.79036" lon="-0.15698">
        <ele>2519.7526855469</ele>
        <time>2015-09-09T08:53:49Z</time>
      </trkpt>
      <trkpt lat="42.79033" lon="-0.15692">
        <ele>2522.63671875</ele>
        <time>2015-09-09T08:54:02Z</time>
      </trkpt>
      <trkpt lat="42.79027" lon="-0.15695">
        <ele>2525.0400390625</ele>
        <time>2015-09-09T08:54:15Z</time>
      </trkpt>
      <trkpt lat="42.79019" lon="-0.15701">
        <ele>2526.4821777344</ele>
        <time>2015-09-09T08:54:27Z</time>
      </trkpt>
      <trkpt lat="42.79012" lon="-0.15699">
        <ele>2528.8852539062</ele>
        <time>2015-09-09T08:54:42Z</time>
      </trkpt>
      <trkpt lat="42.79011" lon="-0.15699">
        <ele>2528.8852539062</ele>
        <time>2015-09-09T08:54:43Z</time>
      </trkpt>
      <trkpt lat="42.79009" lon="-0.15691">
        <ele>2532.25</ele>
        <time>2015-09-09T08:54:57Z</time>
      </trkpt>
      <trkpt lat="42.79006" lon="-0.15692">
        <ele>2533.2111816406</ele>
        <time>2015-09-09T08:55:27Z</time>
      </trkpt>
      <trkpt lat="42.78999" lon="-0.15694">
        <ele>2535.1337890625</ele>
        <time>2015-09-09T08:55:39Z</time>
      </trkpt>
      <trkpt lat="42.78995" lon="-0.15689">
        <ele>2537.0563964844</ele>
        <time>2015-09-09T08:55:49Z</time>
      </trkpt>
      <trkpt lat="42.78992" lon="-0.15684">
        <ele>2539.4597167969</ele>
        <time>2015-09-09T08:56:03Z</time>
      </trkpt>
      <trkpt lat="42.78989" lon="-0.15688">
        <ele>2540.4211425781</ele>
        <time>2015-09-09T08:56:14Z</time>
      </trkpt>
      <trkpt lat="42.78985" lon="-0.15686">
        <ele>2541.86328125</ele>
        <time>2015-09-09T08:56:28Z</time>
      </trkpt>
      <trkpt lat="42.78981" lon="-0.15694">
        <ele>2544.2663574219</ele>
        <time>2015-09-09T08:56:43Z</time>
      </trkpt>
      <trkpt lat="42.78975" lon="-0.15699">
        <ele>2545.7084960938</ele>
        <time>2015-09-09T08:57:14Z</time>
      </trkpt>
      <trkpt lat="42.78966" lon="-0.15697">
        <ele>2546.6696777344</ele>
        <time>2015-09-09T08:57:28Z</time>
      </trkpt>
      <trkpt lat="42.7896" lon="-0.15697">
        <ele>2549.0729980469</ele>
        <time>2015-09-09T08:57:44Z</time>
      </trkpt>
      <trkpt lat="42.7896" lon="-0.15688">
        <ele>2550.9956054688</ele>
        <time>2015-09-09T08:58:00Z</time>
      </trkpt>
      <trkpt lat="42.78956" lon="-0.15681">
        <ele>2551.9567871094</ele>
        <time>2015-09-09T08:58:21Z</time>
      </trkpt>
      <trkpt lat="42.78953" lon="-0.15675">
        <ele>2555.3215332031</ele>
        <time>2015-09-09T08:58:32Z</time>
      </trkpt>
      <trkpt lat="42.78949" lon="-0.15664">
        <ele>2557.2443847656</ele>
        <time>2015-09-09T08:58:49Z</time>
      </trkpt>
      <trkpt lat="42.78953" lon="-0.15657">
        <ele>2559.1669921875</ele>
        <time>2015-09-09T08:59:01Z</time>
      </trkpt>
      <trkpt lat="42.78958" lon="-0.15656">
        <ele>2560.6088867188</ele>
        <time>2015-09-09T08:59:20Z</time>
      </trkpt>
      <trkpt lat="42.78954" lon="-0.15648">
        <ele>2563.4926757812</ele>
        <time>2015-09-09T08:59:38Z</time>
      </trkpt>
      <trkpt lat="42.78951" lon="-0.15643">
        <ele>2564.4541015625</ele>
        <time>2015-09-09T08:59:46Z</time>
      </trkpt>
      <trkpt lat="42.78947" lon="-0.15636">
        <ele>2567.337890625</ele>
        <time>2015-09-09T08:59:57Z</time>
      </trkpt>
      <trkpt lat="42.78942" lon="-0.15629">
        <ele>2569.2607421875</ele>
        <time>2015-09-09T09:00:09Z</time>
      </trkpt>
      <trkpt lat="42.78942" lon="-0.15628">
        <ele>2570.2219238281</ele>
        <time>2015-09-09T09:00:11Z</time>
      </trkpt>
      <trkpt lat="42.78935" lon="-0.15621">
        <ele>2572.1447753906</ele>
        <time>2015-09-09T09:00:29Z</time>
      </trkpt>
      <trkpt lat="42.78932" lon="-0.15613">
        <ele>2574.5480957031</ele>
        <time>2015-09-09T09:00:52Z</time>
      </trkpt>
      <trkpt lat="42.78926" lon="-0.15606">
        <ele>2577.4318847656</ele>
        <time>2015-09-09T09:01:08Z</time>
      </trkpt>
      <trkpt lat="42.78915" lon="-0.15603">
        <ele>2579.3544921875</ele>
        <time>2015-09-09T09:01:24Z</time>
      </trkpt>
      <trkpt lat="42.78913" lon="-0.15598">
        <ele>2580.3159179688</ele>
        <time>2015-09-09T09:01:35Z</time>
      </trkpt>
      <trkpt lat="42.78912" lon="-0.15594">
        <ele>2582.7189941406</ele>
        <time>2015-09-09T09:01:50Z</time>
      </trkpt>
      <trkpt lat="42.78911" lon="-0.15584">
        <ele>2584.1611328125</ele>
        <time>2015-09-09T09:02:03Z</time>
      </trkpt>
      <trkpt lat="42.78912" lon="-0.15577">
        <ele>2587.5256347656</ele>
        <time>2015-09-09T09:02:14Z</time>
      </trkpt>
      <trkpt lat="42.7891" lon="-0.15568">
        <ele>2588.9677734375</ele>
        <time>2015-09-09T09:02:29Z</time>
      </trkpt>
      <trkpt lat="42.78912" lon="-0.15564">
        <ele>2588.9677734375</ele>
        <time>2015-09-09T09:02:43Z</time>
      </trkpt>
      <trkpt lat="42.78908" lon="-0.15567">
        <ele>2590.4096679688</ele>
        <time>2015-09-09T09:02:56Z</time>
      </trkpt>
      <trkpt lat="42.78906" lon="-0.15561">
        <ele>2590.4096679688</ele>
        <time>2015-09-09T09:03:16Z</time>
      </trkpt>
      <trkpt lat="42.78904" lon="-0.15562">
        <ele>2590.4096679688</ele>
        <time>2015-09-09T09:03:31Z</time>
      </trkpt>
      <trkpt lat="42.78907" lon="-0.15568">
        <ele>2590.4096679688</ele>
        <time>2015-09-09T09:03:46Z</time>
      </trkpt>
      <trkpt lat="42.78907" lon="-0.15563">
        <ele>2589.4484863281</ele>
        <time>2015-09-09T09:04:07Z</time>
      </trkpt>
      <trkpt lat="42.78907" lon="-0.15566">
        <ele>2589.9291992188</ele>
        <time>2015-09-09T09:04:24Z</time>
      </trkpt>
      <trkpt lat="42.78906" lon="-0.15567">
        <ele>2589.4484863281</ele>
        <time>2015-09-09T09:05:14Z</time>
      </trkpt>
      <trkpt lat="42.78907" lon="-0.15566">
        <ele>2588.4873046875</ele>
        <time>2015-09-09T09:05:43Z</time>
      </trkpt>
      <trkpt lat="42.78907" lon="-0.15566">
        <ele>2589.4484863281</ele>
        <time>2015-09-09T09:05:54Z</time>
      </trkpt>
      <trkpt lat="42.78907" lon="-0.15567">
        <ele>2588.4873046875</ele>
        <time>2015-09-09T09:07:24Z</time>
      </trkpt>
      <trkpt lat="42.78907" lon="-0.15567">
        <ele>2589.9291992188</ele>
        <time>2015-09-09T09:08:25Z</time>
      </trkpt>
      <trkpt lat="42.78907" lon="-0.15567">
        <ele>2589.4484863281</ele>
        <time>2015-09-09T09:09:01Z</time>
      </trkpt>
      <trkpt lat="42.78911" lon="-0.15558">
        <ele>2589.4484863281</ele>
        <time>2015-09-09T09:09:18Z</time>
      </trkpt>
      <trkpt lat="42.78912" lon="-0.15542">
        <ele>2585.6030273438</ele>
        <time>2015-09-09T09:09:33Z</time>
      </trkpt>
      <trkpt lat="42.78917" lon="-0.15526">
        <ele>2583.6804199219</ele>
        <time>2015-09-09T09:09:54Z</time>
      </trkpt>
      <trkpt lat="42.78922" lon="-0.15518">
        <ele>2580.7966308594</ele>
        <time>2015-09-09T09:10:06Z</time>
      </trkpt>
      <trkpt lat="42.78927" lon="-0.15512">
        <ele>2577.4318847656</ele>
        <time>2015-09-09T09:10:25Z</time>
      </trkpt>
      <trkpt lat="42.78926" lon="-0.15509">
        <ele>2576.9514160156</ele>
        <time>2015-09-09T09:10:30Z</time>
      </trkpt>
      <trkpt lat="42.78923" lon="-0.15502">
        <ele>2575.0285644531</ele>
        <time>2015-09-09T09:10:44Z</time>
      </trkpt>
      <trkpt lat="42.78924" lon="-0.15495">
        <ele>2571.6638183594</ele>
        <time>2015-09-09T09:10:57Z</time>
      </trkpt>
      <trkpt lat="42.78926" lon="-0.15486">
        <ele>2568.7800292969</ele>
        <time>2015-09-09T09:11:14Z</time>
      </trkpt>
      <trkpt lat="42.78935" lon="-0.15488">
        <ele>2566.3767089844</ele>
        <time>2015-09-09T09:11:30Z</time>
      </trkpt>
      <trkpt lat="42.78939" lon="-0.15482">
        <ele>2563.4926757812</ele>
        <time>2015-09-09T09:11:44Z</time>
      </trkpt>
      <trkpt lat="42.7894" lon="-0.15472">
        <ele>2561.5703125</ele>
        <time>2015-09-09T09:11:57Z</time>
      </trkpt>
      <trkpt lat="42.78941" lon="-0.15466">
        <ele>2558.6862792969</ele>
        <time>2015-09-09T09:12:06Z</time>
      </trkpt>
      <trkpt lat="42.78946" lon="-0.15461">
        <ele>2556.2829589844</ele>
        <time>2015-09-09T09:12:22Z</time>
      </trkpt>
      <trkpt lat="42.7895" lon="-0.15458">
        <ele>2553.8796386719</ele>
        <time>2015-09-09T09:12:37Z</time>
      </trkpt>
      <trkpt lat="42.78951" lon="-0.15452">
        <ele>2550.5148925781</ele>
        <time>2015-09-09T09:12:47Z</time>
      </trkpt>
      <trkpt lat="42.78949" lon="-0.15444">
        <ele>2547.150390625</ele>
        <time>2015-09-09T09:13:01Z</time>
      </trkpt>
      <trkpt lat="42.78947" lon="-0.15429">
        <ele>2544.2663574219</ele>
        <time>2015-09-09T09:13:19Z</time>
      </trkpt>
      <trkpt lat="42.78948" lon="-0.15421">
        <ele>2541.3825683594</ele>
        <time>2015-09-09T09:13:33Z</time>
      </trkpt>
      <trkpt lat="42.78949" lon="-0.15411">
        <ele>2538.9790039062</ele>
        <time>2015-09-09T09:13:51Z</time>
      </trkpt>
      <trkpt lat="42.78951" lon="-0.15407">
        <ele>2537.0563964844</ele>
        <time>2015-09-09T09:13:59Z</time>
      </trkpt>
      <trkpt lat="42.78953" lon="-0.15401">
        <ele>2535.1337890625</ele>
        <time>2015-09-09T09:14:12Z</time>
      </trkpt>
      <trkpt lat="42.78953" lon="-0.15392">
        <ele>2531.7692871094</ele>
        <time>2015-09-09T09:14:25Z</time>
      </trkpt>
      <trkpt lat="42.78955" lon="-0.1538">
        <ele>2529.8466796875</ele>
        <time>2015-09-09T09:14:42Z</time>
      </trkpt>
      <trkpt lat="42.78955" lon="-0.15372">
        <ele>2527.443359375</ele>
        <time>2015-09-09T09:14:50Z</time>
      </trkpt>
      <trkpt lat="42.78957" lon="-0.15368">
        <ele>2526.4821777344</ele>
        <time>2015-09-09T09:14:54Z</time>
      </trkpt>
      <trkpt lat="42.78963" lon="-0.15358">
        <ele>2523.1174316406</ele>
        <time>2015-09-09T09:15:07Z</time>
      </trkpt>
      <trkpt lat="42.78968" lon="-0.15351">
        <ele>2520.7141113281</ele>
        <time>2015-09-09T09:15:17Z</time>
      </trkpt>
      <trkpt lat="42.78974" lon="-0.15335">
        <ele>2518.7915039062</ele>
        <time>2015-09-09T09:15:35Z</time>
      </trkpt>
      <trkpt lat="42.78977" lon="-0.15332">
        <ele>2515.9074707031</ele>
        <time>2015-09-09T09:15:41Z</time>
      </trkpt>
      <trkpt lat="42.78981" lon="-0.1532">
        <ele>2513.9848632812</ele>
        <time>2015-09-09T09:15:58Z</time>
      </trkpt>
      <trkpt lat="42.78982" lon="-0.15309">
        <ele>2511.1010742188</ele>
        <time>2015-09-09T09:16:14Z</time>
      </trkpt>
      <trkpt lat="42.78984" lon="-0.15299">
        <ele>2508.6977539062</ele>
        <time>2015-09-09T09:16:30Z</time>
      </trkpt>
      <trkpt lat="42.78985" lon="-0.15294">
        <ele>2505.3330078125</ele>
        <time>2015-09-09T09:16:38Z</time>
      </trkpt>
      <trkpt lat="42.78984" lon="-0.15294">
        <ele>2505.3330078125</ele>
        <time>2015-09-09T09:16:39Z</time>
      </trkpt>
      <trkpt lat="42.78987" lon="-0.15291">
        <ele>2502.9296875</ele>
        <time>2015-09-09T09:16:45Z</time>
      </trkpt>
      <trkpt lat="42.7899" lon="-0.15283">
        <ele>2502.4489746094</ele>
        <time>2015-09-09T09:17:01Z</time>
      </trkpt>
      <trkpt lat="42.7899" lon="-0.15277">
        <ele>2499.0844726562</ele>
        <time>2015-09-09T09:17:11Z</time>
      </trkpt>
      <trkpt lat="42.78994" lon="-0.15267">
        <ele>2496.6811523438</ele>
        <time>2015-09-09T09:17:23Z</time>
      </trkpt>
      <trkpt lat="42.78996" lon="-0.15263">
        <ele>2495.2392578125</ele>
        <time>2015-09-09T09:17:29Z</time>
      </trkpt>
      <trkpt lat="42.79003" lon="-0.15252">
        <ele>2492.8359375</ele>
        <time>2015-09-09T09:17:47Z</time>
      </trkpt>
      <trkpt lat="42.79006" lon="-0.15245">
        <ele>2489.4711914062</ele>
        <time>2015-09-09T09:17:57Z</time>
      </trkpt>
      <trkpt lat="42.7901" lon="-0.15242">
        <ele>2488.5100097656</ele>
        <time>2015-09-09T09:18:12Z</time>
      </trkpt>
      <trkpt lat="42.79013" lon="-0.15236">
        <ele>2486.1066894531</ele>
        <time>2015-09-09T09:18:26Z</time>
      </trkpt>
      <trkpt lat="42.79016" lon="-0.15231">
        <ele>2483.7033691406</ele>
        <time>2015-09-09T09:18:37Z</time>
      </trkpt>
      <trkpt lat="42.79017" lon="-0.15226">
        <ele>2480.3388671875</ele>
        <time>2015-09-09T09:18:53Z</time>
      </trkpt>
      <trkpt lat="42.79022" lon="-0.15222">
        <ele>2478.4162597656</ele>
        <time>2015-09-09T09:19:09Z</time>
      </trkpt>
      <trkpt lat="42.7902" lon="-0.15216">
        <ele>2475.5319824219</ele>
        <time>2015-09-09T09:19:23Z</time>
      </trkpt>
      <trkpt lat="42.79017" lon="-0.15208">
        <ele>2473.609375</ele>
        <time>2015-09-09T09:19:42Z</time>
      </trkpt>
      <trkpt lat="42.79016" lon="-0.15205">
        <ele>2473.609375</ele>
        <time>2015-09-09T09:19:45Z</time>
      </trkpt>
      <trkpt lat="42.79017" lon="-0.15197">
        <ele>2472.6481933594</ele>
        <time>2015-09-09T09:19:51Z</time>
      </trkpt>
      <trkpt lat="42.79023" lon="-0.15179">
        <ele>2469.7641601562</ele>
        <time>2015-09-09T09:20:10Z</time>
      </trkpt>
      <trkpt lat="42.79027" lon="-0.15173">
        <ele>2467.8415527344</ele>
        <time>2015-09-09T09:20:25Z</time>
      </trkpt>
      <trkpt lat="42.79029" lon="-0.15168">
        <ele>2465.4384765625</ele>
        <time>2015-09-09T09:20:41Z</time>
      </trkpt>
      <trkpt lat="42.79034" lon="-0.1516">
        <ele>2463.03515625</ele>
        <time>2015-09-09T09:20:56Z</time>
      </trkpt>
      <trkpt lat="42.79038" lon="-0.15154">
        <ele>2460.1511230469</ele>
        <time>2015-09-09T09:21:11Z</time>
      </trkpt>
      <trkpt lat="42.79042" lon="-0.15152">
        <ele>2459.1896972656</ele>
        <time>2015-09-09T09:21:26Z</time>
      </trkpt>
      <trkpt lat="42.79047" lon="-0.15142">
        <ele>2456.7863769531</ele>
        <time>2015-09-09T09:21:43Z</time>
      </trkpt>
      <trkpt lat="42.79048" lon="-0.15128">
        <ele>2453.9025878906</ele>
        <time>2015-09-09T09:22:01Z</time>
      </trkpt>
      <trkpt lat="42.79047" lon="-0.15122">
        <ele>2452.4604492188</ele>
        <time>2015-09-09T09:22:09Z</time>
      </trkpt>
      <trkpt lat="42.79052" lon="-0.15116">
        <ele>2450.5378417969</ele>
        <time>2015-09-09T09:22:24Z</time>
      </trkpt>
      <trkpt lat="42.79048" lon="-0.15108">
        <ele>2448.1345214844</ele>
        <time>2015-09-09T09:22:42Z</time>
      </trkpt>
      <trkpt lat="42.79048" lon="-0.15108">
        <ele>2447.6540527344</ele>
        <time>2015-09-09T09:22:43Z</time>
      </trkpt>
      <trkpt lat="42.79053" lon="-0.15103">
        <ele>2445.2507324219</ele>
        <time>2015-09-09T09:22:58Z</time>
      </trkpt>
      <trkpt lat="42.79065" lon="-0.15095">
        <ele>2442.8471679688</ele>
        <time>2015-09-09T09:23:17Z</time>
      </trkpt>
      <trkpt lat="42.79068" lon="-0.15094">
        <ele>2442.3666992188</ele>
        <time>2015-09-09T09:23:24Z</time>
      </trkpt>
      <trkpt lat="42.79072" lon="-0.15083">
        <ele>2440.4438476562</ele>
        <time>2015-09-09T09:23:40Z</time>
      </trkpt>
      <trkpt lat="42.79074" lon="-0.1508">
        <ele>2439.001953125</ele>
        <time>2015-09-09T09:23:52Z</time>
      </trkpt>
      <trkpt lat="42.79075" lon="-0.15067">
        <ele>2435.6374511719</ele>
        <time>2015-09-09T09:24:10Z</time>
      </trkpt>
      <trkpt lat="42.79068" lon="-0.15077">
        <ele>2435.1567382812</ele>
        <time>2015-09-09T09:24:30Z</time>
      </trkpt>
      <trkpt lat="42.79067" lon="-0.15077">
        <ele>2433.71484375</ele>
        <time>2015-09-09T09:24:50Z</time>
      </trkpt>
      <trkpt lat="42.79062" lon="-0.15076">
        <ele>2431.3115234375</ele>
        <time>2015-09-09T09:25:02Z</time>
      </trkpt>
      <trkpt lat="42.79054" lon="-0.15076">
        <ele>2427.9467773438</ele>
        <time>2015-09-09T09:25:17Z</time>
      </trkpt>
      <trkpt lat="42.79057" lon="-0.15065">
        <ele>2424.1015625</ele>
        <time>2015-09-09T09:25:30Z</time>
      </trkpt>
      <trkpt lat="42.79059" lon="-0.15054">
        <ele>2420.7370605469</ele>
        <time>2015-09-09T09:25:44Z</time>
      </trkpt>
      <trkpt lat="42.79062" lon="-0.15041">
        <ele>2418.814453125</ele>
        <time>2015-09-09T09:26:02Z</time>
      </trkpt>
      <trkpt lat="42.79065" lon="-0.15031">
        <ele>2416.8918457031</ele>
        <time>2015-09-09T09:26:18Z</time>
      </trkpt>
      <trkpt lat="42.79066" lon="-0.15019">
        <ele>2415.4499511719</ele>
        <time>2015-09-09T09:26:35Z</time>
      </trkpt>
      <trkpt lat="42.79067" lon="-0.15013">
        <ele>2412.5659179688</ele>
        <time>2015-09-09T09:26:49Z</time>
      </trkpt>
      <trkpt lat="42.79069" lon="-0.15003">
        <ele>2409.681640625</ele>
        <time>2015-09-09T09:27:05Z</time>
      </trkpt>
      <trkpt lat="42.7907" lon="-0.15">
        <ele>2408.7204589844</ele>
        <time>2015-09-09T09:27:24Z</time>
      </trkpt>
      <trkpt lat="42.79067" lon="-0.14996">
        <ele>2407.7592773438</ele>
        <time>2015-09-09T09:27:58Z</time>
      </trkpt>
      <trkpt lat="42.79071" lon="-0.14985">
        <ele>2406.3171386719</ele>
        <time>2015-09-09T09:28:14Z</time>
      </trkpt>
      <trkpt lat="42.79072" lon="-0.14973">
        <ele>2403.9140625</ele>
        <time>2015-09-09T09:28:31Z</time>
      </trkpt>
      <trkpt lat="42.79073" lon="-0.14966">
        <ele>2401.0300292969</ele>
        <time>2015-09-09T09:28:43Z</time>
      </trkpt>
      <trkpt lat="42.79075" lon="-0.14951">
        <ele>2398.6267089844</ele>
        <time>2015-09-09T09:29:00Z</time>
      </trkpt>
      <trkpt lat="42.79074" lon="-0.14941">
        <ele>2395.2619628906</ele>
        <time>2015-09-09T09:29:18Z</time>
      </trkpt>
      <trkpt lat="42.79074" lon="-0.14938">
        <ele>2394.3005371094</ele>
        <time>2015-09-09T09:29:23Z</time>
      </trkpt>
      <trkpt lat="42.79073" lon="-0.14937">
        <ele>2393.8200683594</ele>
        <time>2015-09-09T09:29:39Z</time>
      </trkpt>
      <trkpt lat="42.79073" lon="-0.1494">
        <ele>2392.8586425781</ele>
        <time>2015-09-09T09:30:11Z</time>
      </trkpt>
      <trkpt lat="42.79068" lon="-0.1494">
        <ele>2391.8974609375</ele>
        <time>2015-09-09T09:30:52Z</time>
      </trkpt>
      <trkpt lat="42.79063" lon="-0.14944">
        <ele>2390.4553222656</ele>
        <time>2015-09-09T09:31:02Z</time>
      </trkpt>
      <trkpt lat="42.79057" lon="-0.14951">
        <ele>2388.5329589844</ele>
        <time>2015-09-09T09:31:15Z</time>
      </trkpt>
      <trkpt lat="42.79049" lon="-0.14957">
        <ele>2384.6877441406</ele>
        <time>2015-09-09T09:31:31Z</time>
      </trkpt>
      <trkpt lat="42.79046" lon="-0.1496">
        <ele>2383.2456054688</ele>
        <time>2015-09-09T09:31:37Z</time>
      </trkpt>
      <trkpt lat="42.79042" lon="-0.14961">
        <ele>2379.880859375</ele>
        <time>2015-09-09T09:31:48Z</time>
      </trkpt>
      <trkpt lat="42.79038" lon="-0.14957">
        <ele>2377.4775390625</ele>
        <time>2015-09-09T09:32:02Z</time>
      </trkpt>
      <trkpt lat="42.79032" lon="-0.14962">
        <ele>2374.1130371094</ele>
        <time>2015-09-09T09:32:17Z</time>
      </trkpt>
      <trkpt lat="42.79031" lon="-0.14962">
        <ele>2374.1130371094</ele>
        <time>2015-09-09T09:32:35Z</time>
      </trkpt>
      <trkpt lat="42.79023" lon="-0.14961">
        <ele>2372.1904296875</ele>
        <time>2015-09-09T09:32:53Z</time>
      </trkpt>
      <trkpt lat="42.79014" lon="-0.14961">
        <ele>2369.306640625</ele>
        <time>2015-09-09T09:33:11Z</time>
      </trkpt>
      <trkpt lat="42.79011" lon="-0.14957">
        <ele>2367.3837890625</ele>
        <time>2015-09-09T09:33:27Z</time>
      </trkpt>
      <trkpt lat="42.79006" lon="-0.14956">
        <ele>2364.0192871094</ele>
        <time>2015-09-09T09:33:38Z</time>
      </trkpt>
      <trkpt lat="42.79005" lon="-0.14956">
        <ele>2364.0192871094</ele>
        <time>2015-09-09T09:33:39Z</time>
      </trkpt>
      <trkpt lat="42.79006" lon="-0.14947">
        <ele>2360.6545410156</ele>
        <time>2015-09-09T09:33:51Z</time>
      </trkpt>
      <trkpt lat="42.79004" lon="-0.14942">
        <ele>2358.7319335938</ele>
        <time>2015-09-09T09:34:06Z</time>
      </trkpt>
      <trkpt lat="42.79002" lon="-0.14933">
        <ele>2356.8093261719</ele>
        <time>2015-09-09T09:34:21Z</time>
      </trkpt>
      <trkpt lat="42.78996" lon="-0.14933">
        <ele>2354.88671875</ele>
        <time>2015-09-09T09:34:37Z</time>
      </trkpt>
      <trkpt lat="42.78994" lon="-0.14931">
        <ele>2352.4833984375</ele>
        <time>2015-09-09T09:34:48Z</time>
      </trkpt>
      <trkpt lat="42.78985" lon="-0.14937">
        <ele>2350.5607910156</ele>
        <time>2015-09-09T09:35:02Z</time>
      </trkpt>
      <trkpt lat="42.78985" lon="-0.14928">
        <ele>2348.1574707031</ele>
        <time>2015-09-09T09:35:13Z</time>
      </trkpt>
      <trkpt lat="42.78986" lon="-0.14922">
        <ele>2347.6767578125</ele>
        <time>2015-09-09T09:35:26Z</time>
      </trkpt>
      <trkpt lat="42.78981" lon="-0.14913">
        <ele>2344.3120117188</ele>
        <time>2015-09-09T09:35:40Z</time>
      </trkpt>
      <trkpt lat="42.78978" lon="-0.14902">
        <ele>2341.9089355469</ele>
        <time>2015-09-09T09:35:55Z</time>
      </trkpt>
      <trkpt lat="42.7897" lon="-0.14888">
        <ele>2339.5056152344</ele>
        <time>2015-09-09T09:36:12Z</time>
      </trkpt>
      <trkpt lat="42.78969" lon="-0.14874">
        <ele>2339.986328125</ele>
        <time>2015-09-09T09:36:32Z</time>
      </trkpt>
      <trkpt lat="42.78962" lon="-0.14879">
        <ele>2339.0249023438</ele>
        <time>2015-09-09T09:36:55Z</time>
      </trkpt>
      <trkpt lat="42.78952" lon="-0.14881">
        <ele>2336.6215820312</ele>
        <time>2015-09-09T09:37:13Z</time>
      </trkpt>
      <trkpt lat="42.78952" lon="-0.14877">
        <ele>2335.6604003906</ele>
        <time>2015-09-09T09:37:43Z</time>
      </trkpt>
      <trkpt lat="42.78948" lon="-0.14861">
        <ele>2337.1022949219</ele>
        <time>2015-09-09T09:38:19Z</time>
      </trkpt>
      <trkpt lat="42.78947" lon="-0.14853">
        <ele>2338.0637207031</ele>
        <time>2015-09-09T09:38:30Z</time>
      </trkpt>
      <trkpt lat="42.78944" lon="-0.14844">
        <ele>2337.1022949219</ele>
        <time>2015-09-09T09:38:38Z</time>
      </trkpt>
      <trkpt lat="42.78943" lon="-0.14839">
        <ele>2337.5830078125</ele>
        <time>2015-09-09T09:38:41Z</time>
      </trkpt>
      <trkpt lat="42.78944" lon="-0.14831">
        <ele>2338.0637207031</ele>
        <time>2015-09-09T09:38:47Z</time>
      </trkpt>
      <trkpt lat="42.78945" lon="-0.14813">
        <ele>2335.1796875</ele>
        <time>2015-09-09T09:39:05Z</time>
      </trkpt>
      <trkpt lat="42.78944" lon="-0.148">
        <ele>2331.3342285156</ele>
        <time>2015-09-09T09:39:22Z</time>
      </trkpt>
      <trkpt lat="42.78944" lon="-0.14799">
        <ele>2331.3342285156</ele>
        <time>2015-09-09T09:39:23Z</time>
      </trkpt>
      <trkpt lat="42.78948" lon="-0.14797">
        <ele>2330.373046875</ele>
        <time>2015-09-09T09:39:34Z</time>
      </trkpt>
      <trkpt lat="42.78953" lon="-0.14794">
        <ele>2326.5278320312</ele>
        <time>2015-09-09T09:39:41Z</time>
      </trkpt>
      <trkpt lat="42.78955" lon="-0.1479">
        <ele>2326.0471191406</ele>
        <time>2015-09-09T09:39:54Z</time>
      </trkpt>
      <trkpt lat="42.78951" lon="-0.14786">
        <ele>2325.56640625</ele>
        <time>2015-09-09T09:40:19Z</time>
      </trkpt>
      <trkpt lat="42.78946" lon="-0.14782">
        <ele>2322.2019042969</ele>
        <time>2015-09-09T09:40:34Z</time>
      </trkpt>
      <trkpt lat="42.78935" lon="-0.14781">
        <ele>2320.279296875</ele>
        <time>2015-09-09T09:40:53Z</time>
      </trkpt>
      <trkpt lat="42.78933" lon="-0.14774">
        <ele>2317.3952636719</ele>
        <time>2015-09-09T09:41:07Z</time>
      </trkpt>
      <trkpt lat="42.7893" lon="-0.14769">
        <ele>2314.9919433594</ele>
        <time>2015-09-09T09:41:20Z</time>
      </trkpt>
      <trkpt lat="42.78928" lon="-0.14762">
        <ele>2314.5112304688</ele>
        <time>2015-09-09T09:41:34Z</time>
      </trkpt>
      <trkpt lat="42.78924" lon="-0.14759">
        <ele>2311.1467285156</ele>
        <time>2015-09-09T09:41:42Z</time>
      </trkpt>
      <trkpt lat="42.78922" lon="-0.14756">
        <ele>2309.7045898438</ele>
        <time>2015-09-09T09:41:51Z</time>
      </trkpt>
      <trkpt lat="42.78918" lon="-0.14754">
        <ele>2308.2626953125</ele>
        <time>2015-09-09T09:42:06Z</time>
      </trkpt>
      <trkpt lat="42.78917" lon="-0.1475">
        <ele>2305.859375</ele>
        <time>2015-09-09T09:42:19Z</time>
      </trkpt>
      <trkpt lat="42.78919" lon="-0.14741">
        <ele>2302.9755859375</ele>
        <time>2015-09-09T09:42:34Z</time>
      </trkpt>
      <trkpt lat="42.78914" lon="-0.14736">
        <ele>2302.0141601562</ele>
        <time>2015-09-09T09:42:48Z</time>
      </trkpt>
      <trkpt lat="42.78912" lon="-0.14734">
        <ele>2300.572265625</ele>
        <time>2015-09-09T09:42:52Z</time>
      </trkpt>
      <trkpt lat="42.78911" lon="-0.14733">
        <ele>2300.091796875</ele>
        <time>2015-09-09T09:42:55Z</time>
      </trkpt>
      <trkpt lat="42.78907" lon="-0.14728">
        <ele>2298.6494140625</ele>
        <time>2015-09-09T09:43:02Z</time>
      </trkpt>
      <trkpt lat="42.78905" lon="-0.14721">
        <ele>2296.2463378906</ele>
        <time>2015-09-09T09:43:15Z</time>
      </trkpt>
      <trkpt lat="42.78899" lon="-0.14715">
        <ele>2295.2849121094</ele>
        <time>2015-09-09T09:43:26Z</time>
      </trkpt>
      <trkpt lat="42.78891" lon="-0.14707">
        <ele>2291.9204101562</ele>
        <time>2015-09-09T09:43:43Z</time>
      </trkpt>
      <trkpt lat="42.78886" lon="-0.14695">
        <ele>2290.958984375</ele>
        <time>2015-09-09T09:43:58Z</time>
      </trkpt>
      <trkpt lat="42.78888" lon="-0.14686">
        <ele>2287.1137695312</ele>
        <time>2015-09-09T09:44:11Z</time>
      </trkpt>
      <trkpt lat="42.78893" lon="-0.1468">
        <ele>2283.7490234375</ele>
        <time>2015-09-09T09:44:26Z</time>
      </trkpt>
      <trkpt lat="42.78904" lon="-0.14679">
        <ele>2281.8264160156</ele>
        <time>2015-09-09T09:44:43Z</time>
      </trkpt>
      <trkpt lat="42.78914" lon="-0.14678">
        <ele>2280.3845214844</ele>
        <time>2015-09-09T09:44:58Z</time>
      </trkpt>
      <trkpt lat="42.78921" lon="-0.14677">
        <ele>2276.05859375</ele>
        <time>2015-09-09T09:45:08Z</time>
      </trkpt>
      <trkpt lat="42.7893" lon="-0.1468">
        <ele>2274.6166992188</ele>
        <time>2015-09-09T09:45:25Z</time>
      </trkpt>
      <trkpt lat="42.78932" lon="-0.1468">
        <ele>2273.6552734375</ele>
        <time>2015-09-09T09:45:32Z</time>
      </trkpt>
      <trkpt lat="42.7894" lon="-0.14684">
        <ele>2271.7326660156</ele>
        <time>2015-09-09T09:45:46Z</time>
      </trkpt>
      <trkpt lat="42.78941" lon="-0.14683">
        <ele>2270.771484375</ele>
        <time>2015-09-09T09:45:50Z</time>
      </trkpt>
      <trkpt lat="42.78947" lon="-0.14681">
        <ele>2267.4064941406</ele>
        <time>2015-09-09T09:46:05Z</time>
      </trkpt>
      <trkpt lat="42.7895" lon="-0.14675">
        <ele>2266.4453125</ele>
        <time>2015-09-09T09:46:21Z</time>
      </trkpt>
      <trkpt lat="42.78955" lon="-0.14673">
        <ele>2263.0808105469</ele>
        <time>2015-09-09T09:46:36Z</time>
      </trkpt>
      <trkpt lat="42.78959" lon="-0.14669">
        <ele>2262.1193847656</ele>
        <time>2015-09-09T09:46:52Z</time>
      </trkpt>
      <trkpt lat="42.78956" lon="-0.14667">
        <ele>2259.7160644531</ele>
        <time>2015-09-09T09:46:59Z</time>
      </trkpt>
      <trkpt lat="42.78951" lon="-0.14659">
        <ele>2256.3515625</ele>
        <time>2015-09-09T09:47:13Z</time>
      </trkpt>
      <trkpt lat="42.78955" lon="-0.14657">
        <ele>2253.9484863281</ele>
        <time>2015-09-09T09:47:21Z</time>
      </trkpt>
      <trkpt lat="42.78963" lon="-0.14654">
        <ele>2250.5834960938</ele>
        <time>2015-09-09T09:47:37Z</time>
      </trkpt>
      <trkpt lat="42.78973" lon="-0.14646">
        <ele>2248.1801757812</ele>
        <time>2015-09-09T09:47:54Z</time>
      </trkpt>
      <trkpt lat="42.78966" lon="-0.14638">
        <ele>2245.2963867188</ele>
        <time>2015-09-09T09:48:10Z</time>
      </trkpt>
      <trkpt lat="42.78966" lon="-0.14634">
        <ele>2242.8930664062</ele>
        <time>2015-09-09T09:48:19Z</time>
      </trkpt>
      <trkpt lat="42.78964" lon="-0.14633">
        <ele>2241.9318847656</ele>
        <time>2015-09-09T09:48:23Z</time>
      </trkpt>
      <trkpt lat="42.78961" lon="-0.14627">
        <ele>2240.0092773438</ele>
        <time>2015-09-09T09:48:40Z</time>
      </trkpt>
      <trkpt lat="42.78956" lon="-0.14621">
        <ele>2236.64453125</ele>
        <time>2015-09-09T09:48:52Z</time>
      </trkpt>
      <trkpt lat="42.7895" lon="-0.14613">
        <ele>2233.7604980469</ele>
        <time>2015-09-09T09:49:07Z</time>
      </trkpt>
      <trkpt lat="42.7895" lon="-0.14606">
        <ele>2231.837890625</ele>
        <time>2015-09-09T09:49:22Z</time>
      </trkpt>
      <trkpt lat="42.78951" lon="-0.14602">
        <ele>2230.3959960938</ele>
        <time>2015-09-09T09:49:36Z</time>
      </trkpt>
      <trkpt lat="42.7895" lon="-0.14595">
        <ele>2227.9926757812</ele>
        <time>2015-09-09T09:49:49Z</time>
      </trkpt>
      <trkpt lat="42.7895" lon="-0.1459">
        <ele>2227.0314941406</ele>
        <time>2015-09-09T09:49:57Z</time>
      </trkpt>
      <trkpt lat="42.78951" lon="-0.14581">
        <ele>2223.6667480469</ele>
        <time>2015-09-09T09:50:10Z</time>
      </trkpt>
      <trkpt lat="42.78952" lon="-0.14579">
        <ele>2222.2248535156</ele>
        <time>2015-09-09T09:50:13Z</time>
      </trkpt>
      <trkpt lat="42.78954" lon="-0.14572">
        <ele>2220.3022460938</ele>
        <time>2015-09-09T09:50:27Z</time>
      </trkpt>
      <trkpt lat="42.78962" lon="-0.14563">
        <ele>2216.4567871094</ele>
        <time>2015-09-09T09:50:44Z</time>
      </trkpt>
      <trkpt lat="42.78963" lon="-0.14558">
        <ele>2214.0534667969</ele>
        <time>2015-09-09T09:50:51Z</time>
      </trkpt>
      <trkpt lat="42.78971" lon="-0.14548">
        <ele>2212.6115722656</ele>
        <time>2015-09-09T09:51:06Z</time>
      </trkpt>
      <trkpt lat="42.78978" lon="-0.14542">
        <ele>2211.1696777344</ele>
        <time>2015-09-09T09:51:20Z</time>
      </trkpt>
      <trkpt lat="42.78988" lon="-0.14537">
        <ele>2210.2082519531</ele>
        <time>2015-09-09T09:51:42Z</time>
      </trkpt>
      <trkpt lat="42.7899" lon="-0.14534">
        <ele>2208.7663574219</ele>
        <time>2015-09-09T09:52:01Z</time>
      </trkpt>
      <trkpt lat="42.78996" lon="-0.1453">
        <ele>2208.2856445312</ele>
        <time>2015-09-09T09:52:16Z</time>
      </trkpt>
      <trkpt lat="42.79" lon="-0.14523">
        <ele>2206.84375</ele>
        <time>2015-09-09T09:52:26Z</time>
      </trkpt>
      <trkpt lat="42.79006" lon="-0.14518">
        <ele>2203.9597167969</ele>
        <time>2015-09-09T09:52:42Z</time>
      </trkpt>
      <trkpt lat="42.79013" lon="-0.14517">
        <ele>2202.0368652344</ele>
        <time>2015-09-09T09:52:57Z</time>
      </trkpt>
      <trkpt lat="42.7902" lon="-0.14517">
        <ele>2201.5563964844</ele>
        <time>2015-09-09T09:53:22Z</time>
      </trkpt>
      <trkpt lat="42.79018" lon="-0.14514">
        <ele>2200.1145019531</ele>
        <time>2015-09-09T09:53:43Z</time>
      </trkpt>
      <trkpt lat="42.79015" lon="-0.14507">
        <ele>2197.7111816406</ele>
        <time>2015-09-09T09:54:03Z</time>
      </trkpt>
      <trkpt lat="42.79016" lon="-0.14504">
        <ele>2196.2692871094</ele>
        <time>2015-09-09T09:54:20Z</time>
      </trkpt>
      <trkpt lat="42.79021" lon="-0.145">
        <ele>2193.8659667969</ele>
        <time>2015-09-09T09:54:38Z</time>
      </trkpt>
      <trkpt lat="42.79021" lon="-0.14496">
        <ele>2190.5012207031</ele>
        <time>2015-09-09T09:54:48Z</time>
      </trkpt>
      <trkpt lat="42.79021" lon="-0.14489">
        <ele>2189.0593261719</ele>
        <time>2015-09-09T09:55:06Z</time>
      </trkpt>
      <trkpt lat="42.7902" lon="-0.14479">
        <ele>2184.7333984375</ele>
        <time>2015-09-09T09:55:23Z</time>
      </trkpt>
      <trkpt lat="42.79023" lon="-0.14469">
        <ele>2182.810546875</ele>
        <time>2015-09-09T09:55:40Z</time>
      </trkpt>
      <trkpt lat="42.7902" lon="-0.14471">
        <ele>2180.4074707031</ele>
        <time>2015-09-09T09:55:58Z</time>
      </trkpt>
      <trkpt lat="42.79015" lon="-0.14462">
        <ele>2178.0041503906</ele>
        <time>2015-09-09T09:56:12Z</time>
      </trkpt>
      <trkpt lat="42.79011" lon="-0.14454">
        <ele>2175.1201171875</ele>
        <time>2015-09-09T09:56:23Z</time>
      </trkpt>
      <trkpt lat="42.79013" lon="-0.14443">
        <ele>2174.1589355469</ele>
        <time>2015-09-09T09:56:36Z</time>
      </trkpt>
      <trkpt lat="42.79018" lon="-0.14432">
        <ele>2171.2746582031</ele>
        <time>2015-09-09T09:56:49Z</time>
      </trkpt>
      <trkpt lat="42.7902" lon="-0.1443">
        <ele>2169.8327636719</ele>
        <time>2015-09-09T09:56:52Z</time>
      </trkpt>
      <trkpt lat="42.79022" lon="-0.14416">
        <ele>2167.91015625</ele>
        <time>2015-09-09T09:57:07Z</time>
      </trkpt>
      <trkpt lat="42.79028" lon="-0.14403">
        <ele>2165.9875488281</ele>
        <time>2015-09-09T09:57:22Z</time>
      </trkpt>
      <trkpt lat="42.79032" lon="-0.1439">
        <ele>2164.5456542969</ele>
        <time>2015-09-09T09:57:46Z</time>
      </trkpt>
      <trkpt lat="42.79033" lon="-0.1438">
        <ele>2162.1423339844</ele>
        <time>2015-09-09T09:57:59Z</time>
      </trkpt>
      <trkpt lat="42.79042" lon="-0.14372">
        <ele>2162.1423339844</ele>
        <time>2015-09-09T09:58:12Z</time>
      </trkpt>
      <trkpt lat="42.79044" lon="-0.14373">
        <ele>2161.6618652344</ele>
        <time>2015-09-09T09:58:27Z</time>
      </trkpt>
      <trkpt lat="42.7905" lon="-0.14373">
        <ele>2161.1811523438</ele>
        <time>2015-09-09T09:58:51Z</time>
      </trkpt>
      <trkpt lat="42.79063" lon="-0.14358">
        <ele>2160.2197265625</ele>
        <time>2015-09-09T09:59:11Z</time>
      </trkpt>
      <trkpt lat="42.79065" lon="-0.14355">
        <ele>2159.7390136719</ele>
        <time>2015-09-09T09:59:14Z</time>
      </trkpt>
      <trkpt lat="42.79079" lon="-0.14338">
        <ele>2159.7390136719</ele>
        <time>2015-09-09T09:59:32Z</time>
      </trkpt>
      <trkpt lat="42.79084" lon="-0.14325">
        <ele>2159.2585449219</ele>
        <time>2015-09-09T09:59:44Z</time>
      </trkpt>
      <trkpt lat="42.79099" lon="-0.14313">
        <ele>2158.2971191406</ele>
        <time>2015-09-09T10:00:01Z</time>
      </trkpt>
      <trkpt lat="42.79107" lon="-0.14305">
        <ele>2159.2585449219</ele>
        <time>2015-09-09T10:00:10Z</time>
      </trkpt>
      <trkpt lat="42.79125" lon="-0.14283">
        <ele>2158.7778320312</ele>
        <time>2015-09-09T10:00:31Z</time>
      </trkpt>
      <trkpt lat="42.79142" lon="-0.1427">
        <ele>2157.3359375</ele>
        <time>2015-09-09T10:00:50Z</time>
      </trkpt>
      <trkpt lat="42.79158" lon="-0.14257">
        <ele>2155.4130859375</ele>
        <time>2015-09-09T10:01:05Z</time>
      </trkpt>
      <trkpt lat="42.79171" lon="-0.14237">
        <ele>2154.9323730469</ele>
        <time>2015-09-09T10:01:23Z</time>
      </trkpt>
      <trkpt lat="42.79176" lon="-0.14236">
        <ele>2154.9323730469</ele>
        <time>2015-09-09T10:01:29Z</time>
      </trkpt>
      <trkpt lat="42.79175" lon="-0.14243">
        <ele>2154.9323730469</ele>
        <time>2015-09-09T10:01:34Z</time>
      </trkpt>
      <trkpt lat="42.79179" lon="-0.14246">
        <ele>2154.9323730469</ele>
        <time>2015-09-09T10:01:38Z</time>
      </trkpt>
      <trkpt lat="42.79198" lon="-0.1424">
        <ele>2154.4516601562</ele>
        <time>2015-09-09T10:01:55Z</time>
      </trkpt>
      <trkpt lat="42.79219" lon="-0.14229">
        <ele>2153.4904785156</ele>
        <time>2015-09-09T10:02:14Z</time>
      </trkpt>
      <trkpt lat="42.7922" lon="-0.14228">
        <ele>2153.4904785156</ele>
        <time>2015-09-09T10:02:15Z</time>
      </trkpt>
      <trkpt lat="42.79237" lon="-0.14226">
        <ele>2153.4904785156</ele>
        <time>2015-09-09T10:02:29Z</time>
      </trkpt>
      <trkpt lat="42.79238" lon="-0.14225">
        <ele>2153.4904785156</ele>
        <time>2015-09-09T10:02:30Z</time>
      </trkpt>
      <trkpt lat="42.79242" lon="-0.14221">
        <ele>2153.9711914062</ele>
        <time>2015-09-09T10:02:34Z</time>
      </trkpt>
      <trkpt lat="42.79245" lon="-0.14213">
        <ele>2153.9711914062</ele>
        <time>2015-09-09T10:02:40Z</time>
      </trkpt>
      <trkpt lat="42.7925" lon="-0.14198">
        <ele>2154.4516601562</ele>
        <time>2015-09-09T10:02:52Z</time>
      </trkpt>
      <trkpt lat="42.79264" lon="-0.14184">
        <ele>2153.4904785156</ele>
        <time>2015-09-09T10:03:07Z</time>
      </trkpt>
      <trkpt lat="42.79265" lon="-0.14183">
        <ele>2153.009765625</ele>
        <time>2015-09-09T10:03:08Z</time>
      </trkpt>
      <trkpt lat="42.7927" lon="-0.14181">
        <ele>2153.009765625</ele>
        <time>2015-09-09T10:03:21Z</time>
      </trkpt>
      <trkpt lat="42.79258" lon="-0.14173">
        <ele>2153.009765625</ele>
        <time>2015-09-09T10:03:33Z</time>
      </trkpt>
      <trkpt lat="42.79256" lon="-0.14172">
        <ele>2153.9711914062</ele>
        <time>2015-09-09T10:03:35Z</time>
      </trkpt>
      <trkpt lat="42.79256" lon="-0.14164">
        <ele>2153.4904785156</ele>
        <time>2015-09-09T10:03:39Z</time>
      </trkpt>
      <trkpt lat="42.79265" lon="-0.14159">
        <ele>2153.4904785156</ele>
        <time>2015-09-09T10:03:55Z</time>
      </trkpt>
      <trkpt lat="42.79269" lon="-0.14153">
        <ele>2154.4516601562</ele>
        <time>2015-09-09T10:04:06Z</time>
      </trkpt>
      <trkpt lat="42.79273" lon="-0.14149">
        <ele>2155.8935546875</ele>
        <time>2015-09-09T10:04:18Z</time>
      </trkpt>
      <trkpt lat="42.7927" lon="-0.14141">
        <ele>2156.8552246094</ele>
        <time>2015-09-09T10:04:30Z</time>
      </trkpt>
      <trkpt lat="42.79276" lon="-0.14131">
        <ele>2160.2197265625</ele>
        <time>2015-09-09T10:04:44Z</time>
      </trkpt>
      <trkpt lat="42.79279" lon="-0.14128">
        <ele>2161.6618652344</ele>
        <time>2015-09-09T10:04:57Z</time>
      </trkpt>
      <trkpt lat="42.79276" lon="-0.14129">
        <ele>2160.7004394531</ele>
        <time>2015-09-09T10:05:21Z</time>
      </trkpt>
      <trkpt lat="42.79275" lon="-0.14128">
        <ele>2160.2197265625</ele>
        <time>2015-09-09T10:05:58Z</time>
      </trkpt>
      <trkpt lat="42.79278" lon="-0.14129">
        <ele>2160.2197265625</ele>
        <time>2015-09-09T10:06:30Z</time>
      </trkpt>
      <trkpt lat="42.79276" lon="-0.14131">
        <ele>2160.7004394531</ele>
        <time>2015-09-09T10:07:28Z</time>
      </trkpt>
      <trkpt lat="42.79271" lon="-0.14125">
        <ele>2159.2585449219</ele>
        <time>2015-09-09T10:09:31Z</time>
      </trkpt>
      <trkpt lat="42.79269" lon="-0.14124">
        <ele>2158.7778320312</ele>
        <time>2015-09-09T10:09:45Z</time>
      </trkpt>
      <trkpt lat="42.79269" lon="-0.14127">
        <ele>2157.3359375</ele>
        <time>2015-09-09T10:10:13Z</time>
      </trkpt>
      <trkpt lat="42.79266" lon="-0.14124">
        <ele>2157.8166503906</ele>
        <time>2015-09-09T10:13:26Z</time>
      </trkpt>
      <trkpt lat="42.79265" lon="-0.14124">
        <ele>2156.8552246094</ele>
        <time>2015-09-09T10:30:14Z</time>
      </trkpt>
      <trkpt lat="42.79264" lon="-0.14125">
        <ele>2157.8166503906</ele>
        <time>2015-09-09T10:30:46Z</time>
      </trkpt>
      <trkpt lat="42.79267" lon="-0.14117">
        <ele>2157.8166503906</ele>
        <time>2015-09-09T10:31:23Z</time>
      </trkpt>
      <trkpt lat="42.79267" lon="-0.14122">
        <ele>2158.2971191406</ele>
        <time>2015-09-09T10:31:49Z</time>
      </trkpt>
      <trkpt lat="42.79267" lon="-0.14121">
        <ele>2157.3359375</ele>
        <time>2015-09-09T10:33:35Z</time>
      </trkpt>
      <trkpt lat="42.79265" lon="-0.14125">
        <ele>2156.8552246094</ele>
        <time>2015-09-09T10:36:05Z</time>
      </trkpt>
      <trkpt lat="42.79266" lon="-0.14124">
        <ele>2155.4130859375</ele>
        <time>2015-09-09T10:37:17Z</time>
      </trkpt>
      <trkpt lat="42.79271" lon="-0.14123">
        <ele>2157.3359375</ele>
        <time>2015-09-09T10:40:28Z</time>
      </trkpt>
      <trkpt lat="42.7927" lon="-0.14122">
        <ele>2155.8935546875</ele>
        <time>2015-09-09T10:40:42Z</time>
      </trkpt>
      <trkpt lat="42.79267" lon="-0.14131">
        <ele>2156.8552246094</ele>
        <time>2015-09-09T10:42:25Z</time>
      </trkpt>
      <trkpt lat="42.79269" lon="-0.14129">
        <ele>2156.8552246094</ele>
        <time>2015-09-09T10:42:44Z</time>
      </trkpt>
      <trkpt lat="42.79268" lon="-0.14128">
        <ele>2156.3745117188</ele>
        <time>2015-09-09T10:43:36Z</time>
      </trkpt>
      <trkpt lat="42.79271" lon="-0.14126">
        <ele>2156.3745117188</ele>
        <time>2015-09-09T10:44:25Z</time>
      </trkpt>
      <trkpt lat="42.7927" lon="-0.14127">
        <ele>2156.8552246094</ele>
        <time>2015-09-09T10:45:07Z</time>
      </trkpt>
      <trkpt lat="42.7927" lon="-0.14126">
        <ele>2157.3359375</ele>
        <time>2015-09-09T10:46:44Z</time>
      </trkpt>
      <trkpt lat="42.79273" lon="-0.14126">
        <ele>2157.8166503906</ele>
        <time>2015-09-09T10:47:34Z</time>
      </trkpt>
      <trkpt lat="42.79272" lon="-0.14123">
        <ele>2156.8552246094</ele>
        <time>2015-09-09T10:47:49Z</time>
      </trkpt>
      <trkpt lat="42.79271" lon="-0.14117">
        <ele>2159.2585449219</ele>
        <time>2015-09-09T10:47:59Z</time>
      </trkpt>
      <trkpt lat="42.79273" lon="-0.14105">
        <ele>2160.2197265625</ele>
        <time>2015-09-09T10:48:12Z</time>
      </trkpt>
      <trkpt lat="42.79275" lon="-0.14097">
        <ele>2159.7390136719</ele>
        <time>2015-09-09T10:48:24Z</time>
      </trkpt>
      <trkpt lat="42.79267" lon="-0.14082">
        <ele>2162.623046875</ele>
        <time>2015-09-09T10:48:42Z</time>
      </trkpt>
      <trkpt lat="42.79266" lon="-0.14076">
        <ele>2162.1423339844</ele>
        <time>2015-09-09T10:48:55Z</time>
      </trkpt>
      <trkpt lat="42.79264" lon="-0.14066">
        <ele>2164.0649414062</ele>
        <time>2015-09-09T10:49:06Z</time>
      </trkpt>
      <trkpt lat="42.79255" lon="-0.14047">
        <ele>2163.5842285156</ele>
        <time>2015-09-09T10:49:24Z</time>
      </trkpt>
      <trkpt lat="42.79249" lon="-0.1404">
        <ele>2165.0263671875</ele>
        <time>2015-09-09T10:49:35Z</time>
      </trkpt>
      <trkpt lat="42.79238" lon="-0.14031">
        <ele>2167.91015625</ele>
        <time>2015-09-09T10:49:52Z</time>
      </trkpt>
      <trkpt lat="42.79235" lon="-0.1403">
        <ele>2167.91015625</ele>
        <time>2015-09-09T10:49:55Z</time>
      </trkpt>
      <trkpt lat="42.79222" lon="-0.14024">
        <ele>2170.3134765625</ele>
        <time>2015-09-09T10:50:11Z</time>
      </trkpt>
      <trkpt lat="42.79216" lon="-0.14017">
        <ele>2169.8327636719</ele>
        <time>2015-09-09T10:50:26Z</time>
      </trkpt>
      <trkpt lat="42.79209" lon="-0.14006">
        <ele>2169.8327636719</ele>
        <time>2015-09-09T10:50:43Z</time>
      </trkpt>
      <trkpt lat="42.79204" lon="-0.13996">
        <ele>2170.3134765625</ele>
        <time>2015-09-09T10:51:01Z</time>
      </trkpt>
      <trkpt lat="42.79196" lon="-0.13989">
        <ele>2172.236328125</ele>
        <time>2015-09-09T10:51:15Z</time>
      </trkpt>
      <trkpt lat="42.7919" lon="-0.13982">
        <ele>2173.1977539062</ele>
        <time>2015-09-09T10:51:30Z</time>
      </trkpt>
      <trkpt lat="42.79182" lon="-0.13976">
        <ele>2175.6008300781</ele>
        <time>2015-09-09T10:51:47Z</time>
      </trkpt>
      <trkpt lat="42.79172" lon="-0.13971">
        <ele>2178.0041503906</ele>
        <time>2015-09-09T10:52:06Z</time>
      </trkpt>
      <trkpt lat="42.79166" lon="-0.13965">
        <ele>2179.9267578125</ele>
        <time>2015-09-09T10:52:20Z</time>
      </trkpt>
      <trkpt lat="42.7916" lon="-0.13958">
        <ele>2180.4074707031</ele>
        <time>2015-09-09T10:52:36Z</time>
      </trkpt>
      <trkpt lat="42.79152" lon="-0.13952">
        <ele>2183.2912597656</ele>
        <time>2015-09-09T10:52:51Z</time>
      </trkpt>
      <trkpt lat="42.79144" lon="-0.13946">
        <ele>2185.2138671875</ele>
        <time>2015-09-09T10:53:08Z</time>
      </trkpt>
      <trkpt lat="42.79142" lon="-0.13939">
        <ele>2187.6171875</ele>
        <time>2015-09-09T10:53:21Z</time>
      </trkpt>
      <trkpt lat="42.79134" lon="-0.13932">
        <ele>2188.5788574219</ele>
        <time>2015-09-09T10:53:39Z</time>
      </trkpt>
      <trkpt lat="42.7913" lon="-0.13924">
        <ele>2192.4240722656</ele>
        <time>2015-09-09T10:53:55Z</time>
      </trkpt>
      <trkpt lat="42.79124" lon="-0.13918">
        <ele>2193.3852539062</ele>
        <time>2015-09-09T10:54:14Z</time>
      </trkpt>
      <trkpt lat="42.79113" lon="-0.13915">
        <ele>2195.3078613281</ele>
        <time>2015-09-09T10:54:27Z</time>
      </trkpt>
      <trkpt lat="42.791" lon="-0.13907">
        <ele>2197.23046875</ele>
        <time>2015-09-09T10:54:45Z</time>
      </trkpt>
      <trkpt lat="42.79095" lon="-0.13899">
        <ele>2197.7111816406</ele>
        <time>2015-09-09T10:54:58Z</time>
      </trkpt>
      <trkpt lat="42.79093" lon="-0.13898">
        <ele>2197.7111816406</ele>
        <time>2015-09-09T10:55:00Z</time>
      </trkpt>
      <trkpt lat="42.79086" lon="-0.13893">
        <ele>2198.1916503906</ele>
        <time>2015-09-09T10:55:12Z</time>
      </trkpt>
      <trkpt lat="42.79081" lon="-0.13888">
        <ele>2199.6337890625</ele>
        <time>2015-09-09T10:55:25Z</time>
      </trkpt>
      <trkpt lat="42.79077" lon="-0.13883">
        <ele>2202.517578125</ele>
        <time>2015-09-09T10:55:37Z</time>
      </trkpt>
      <trkpt lat="42.7907" lon="-0.13883">
        <ele>2203.4790039062</ele>
        <time>2015-09-09T10:55:46Z</time>
      </trkpt>
      <trkpt lat="42.79061" lon="-0.13895">
        <ele>2204.4404296875</ele>
        <time>2015-09-09T10:56:02Z</time>
      </trkpt>
      <trkpt lat="42.79051" lon="-0.139">
        <ele>2207.3244628906</ele>
        <time>2015-09-09T10:56:18Z</time>
      </trkpt>
      <trkpt lat="42.79042" lon="-0.13901">
        <ele>2206.3630371094</ele>
        <time>2015-09-09T10:56:29Z</time>
      </trkpt>
      <trkpt lat="42.79028" lon="-0.13898">
        <ele>2205.8823242188</ele>
        <time>2015-09-09T10:56:47Z</time>
      </trkpt>
      <trkpt lat="42.79023" lon="-0.13896">
        <ele>2206.3630371094</ele>
        <time>2015-09-09T10:56:55Z</time>
      </trkpt>
      <trkpt lat="42.79015" lon="-0.13887">
        <ele>2207.3244628906</ele>
        <time>2015-09-09T10:57:07Z</time>
      </trkpt>
      <trkpt lat="42.79008" lon="-0.13883">
        <ele>2209.7275390625</ele>
        <time>2015-09-09T10:57:18Z</time>
      </trkpt>
      <trkpt lat="42.78999" lon="-0.13882">
        <ele>2210.6889648438</ele>
        <time>2015-09-09T10:57:31Z</time>
      </trkpt>
      <trkpt lat="42.78995" lon="-0.1388">
        <ele>2212.130859375</ele>
        <time>2015-09-09T10:57:41Z</time>
      </trkpt>
      <trkpt lat="42.79002" lon="-0.1388">
        <ele>2213.0922851562</ele>
        <time>2015-09-09T10:57:52Z</time>
      </trkpt>
      <trkpt lat="42.79006" lon="-0.13873">
        <ele>2215.4956054688</ele>
        <time>2015-09-09T10:58:12Z</time>
      </trkpt>
      <trkpt lat="42.78993" lon="-0.13865">
        <ele>2218.8601074219</ele>
        <time>2015-09-09T10:58:34Z</time>
      </trkpt>
      <trkpt lat="42.78985" lon="-0.13863">
        <ele>2220.7829589844</ele>
        <time>2015-09-09T10:58:54Z</time>
      </trkpt>
      <trkpt lat="42.78973" lon="-0.1386">
        <ele>2221.744140625</ele>
        <time>2015-09-09T10:59:08Z</time>
      </trkpt>
      <trkpt lat="42.78965" lon="-0.13855">
        <ele>2225.1086425781</ele>
        <time>2015-09-09T10:59:25Z</time>
      </trkpt>
      <trkpt lat="42.78959" lon="-0.13845">
        <ele>2226.55078125</ele>
        <time>2015-09-09T10:59:36Z</time>
      </trkpt>
      <trkpt lat="42.78956" lon="-0.13838">
        <ele>2229.9152832031</ele>
        <time>2015-09-09T11:00:11Z</time>
      </trkpt>
      <trkpt lat="42.78964" lon="-0.13839">
        <ele>2231.3571777344</ele>
        <time>2015-09-09T11:00:19Z</time>
      </trkpt>
      <trkpt lat="42.78974" lon="-0.13841">
        <ele>2231.837890625</ele>
        <time>2015-09-09T11:00:31Z</time>
      </trkpt>
      <trkpt lat="42.78971" lon="-0.13834">
        <ele>2233.7604980469</ele>
        <time>2015-09-09T11:01:01Z</time>
      </trkpt>
      <trkpt lat="42.78963" lon="-0.13822">
        <ele>2237.1252441406</ele>
        <time>2015-09-09T11:01:18Z</time>
      </trkpt>
      <trkpt lat="42.78956" lon="-0.13815">
        <ele>2237.1252441406</ele>
        <time>2015-09-09T11:01:38Z</time>
      </trkpt>
      <trkpt lat="42.78951" lon="-0.13813">
        <ele>2238.5673828125</ele>
        <time>2015-09-09T11:01:47Z</time>
      </trkpt>
      <trkpt lat="42.78943" lon="-0.13813">
        <ele>2239.0478515625</ele>
        <time>2015-09-09T11:01:57Z</time>
      </trkpt>
      <trkpt lat="42.78936" lon="-0.13812">
        <ele>2240.9704589844</ele>
        <time>2015-09-09T11:02:06Z</time>
      </trkpt>
      <trkpt lat="42.78928" lon="-0.13806">
        <ele>2243.3737792969</ele>
        <time>2015-09-09T11:02:24Z</time>
      </trkpt>
      <trkpt lat="42.78921" lon="-0.13807">
        <ele>2245.2963867188</ele>
        <time>2015-09-09T11:02:37Z</time>
      </trkpt>
      <trkpt lat="42.78913" lon="-0.13806">
        <ele>2247.6997070312</ele>
        <time>2015-09-09T11:02:56Z</time>
      </trkpt>
      <trkpt lat="42.78903" lon="-0.13809">
        <ele>2250.5834960938</ele>
        <time>2015-09-09T11:03:26Z</time>
      </trkpt>
      <trkpt lat="42.78901" lon="-0.13807">
        <ele>2252.0256347656</ele>
        <time>2015-09-09T11:03:33Z</time>
      </trkpt>
      <trkpt lat="42.78888" lon="-0.13801">
        <ele>2252.5063476562</ele>
        <time>2015-09-09T11:03:52Z</time>
      </trkpt>
      <trkpt lat="42.78883" lon="-0.13803">
        <ele>2254.9096679688</ele>
        <time>2015-09-09T11:04:06Z</time>
      </trkpt>
      <trkpt lat="42.78881" lon="-0.13804">
        <ele>2256.8322753906</ele>
        <time>2015-09-09T11:04:23Z</time>
      </trkpt>
      <trkpt lat="42.78867" lon="-0.13802">
        <ele>2258.2741699219</ele>
        <time>2015-09-09T11:04:37Z</time>
      </trkpt>
      <trkpt lat="42.78852" lon="-0.13809">
        <ele>2258.7548828125</ele>
        <time>2015-09-09T11:04:54Z</time>
      </trkpt>
      <trkpt lat="42.7885" lon="-0.13805">
        <ele>2258.7548828125</ele>
        <time>2015-09-09T11:05:20Z</time>
      </trkpt>
      <trkpt lat="42.78841" lon="-0.13799">
        <ele>2259.2355957031</ele>
        <time>2015-09-09T11:05:33Z</time>
      </trkpt>
      <trkpt lat="42.7883" lon="-0.13797">
        <ele>2259.2355957031</ele>
        <time>2015-09-09T11:05:44Z</time>
      </trkpt>
      <trkpt lat="42.7882" lon="-0.13791">
        <ele>2260.1967773438</ele>
        <time>2015-09-09T11:06:00Z</time>
      </trkpt>
      <trkpt lat="42.7881" lon="-0.13791">
        <ele>2261.6389160156</ele>
        <time>2015-09-09T11:06:09Z</time>
      </trkpt>
      <trkpt lat="42.78799" lon="-0.13785">
        <ele>2262.6000976562</ele>
        <time>2015-09-09T11:06:30Z</time>
      </trkpt>
      <trkpt lat="42.78794" lon="-0.13778">
        <ele>2264.5227050781</ele>
        <time>2015-09-09T11:06:42Z</time>
      </trkpt>
      <trkpt lat="42.78789" lon="-0.13754">
        <ele>2268.3681640625</ele>
        <time>2015-09-09T11:07:02Z</time>
      </trkpt>
      <trkpt lat="42.78794" lon="-0.13742">
        <ele>2268.8488769531</ele>
        <time>2015-09-09T11:07:13Z</time>
      </trkpt>
      <trkpt lat="42.78811" lon="-0.13739">
        <ele>2270.771484375</ele>
        <time>2015-09-09T11:07:28Z</time>
      </trkpt>
      <trkpt lat="42.78813" lon="-0.13739">
        <ele>2271.251953125</ele>
        <time>2015-09-09T11:07:30Z</time>
      </trkpt>
      <trkpt lat="42.78823" lon="-0.1374">
        <ele>2271.7326660156</ele>
        <time>2015-09-09T11:07:40Z</time>
      </trkpt>
      <trkpt lat="42.78834" lon="-0.13733">
        <ele>2274.1359863281</ele>
        <time>2015-09-09T11:07:55Z</time>
      </trkpt>
      <trkpt lat="42.78836" lon="-0.13726">
        <ele>2276.05859375</ele>
        <time>2015-09-09T11:08:06Z</time>
      </trkpt>
      <trkpt lat="42.78845" lon="-0.13724">
        <ele>2277.0200195312</ele>
        <time>2015-09-09T11:08:16Z</time>
      </trkpt>
      <trkpt lat="42.78856" lon="-0.13725">
        <ele>2277.9812011719</ele>
        <time>2015-09-09T11:08:27Z</time>
      </trkpt>
      <trkpt lat="42.78865" lon="-0.13724">
        <ele>2279.9038085938</ele>
        <time>2015-09-09T11:08:44Z</time>
      </trkpt>
      <trkpt lat="42.78865" lon="-0.13713">
        <ele>2281.345703125</ele>
        <time>2015-09-09T11:09:20Z</time>
      </trkpt>
      <trkpt lat="42.78879" lon="-0.13717">
        <ele>2284.7106933594</ele>
        <time>2015-09-09T11:09:40Z</time>
      </trkpt>
      <trkpt lat="42.78896" lon="-0.13714">
        <ele>2286.6330566406</ele>
        <time>2015-09-09T11:10:15Z</time>
      </trkpt>
      <trkpt lat="42.78915" lon="-0.13711">
        <ele>2289.5170898438</ele>
        <time>2015-09-09T11:10:41Z</time>
      </trkpt>
      <trkpt lat="42.78928" lon="-0.13706">
        <ele>2290.4782714844</ele>
        <time>2015-09-09T11:10:59Z</time>
      </trkpt>
      <trkpt lat="42.7894" lon="-0.137">
        <ele>2291.9204101562</ele>
        <time>2015-09-09T11:11:17Z</time>
      </trkpt>
      <trkpt lat="42.78947" lon="-0.13698">
        <ele>2292.4011230469</ele>
        <time>2015-09-09T11:11:36Z</time>
      </trkpt>
      <trkpt lat="42.78953" lon="-0.13687">
        <ele>2293.3623046875</ele>
        <time>2015-09-09T11:11:49Z</time>
      </trkpt>
      <trkpt lat="42.7896" lon="-0.13679">
        <ele>2294.3234863281</ele>
        <time>2015-09-09T11:12:01Z</time>
      </trkpt>
      <trkpt lat="42.78963" lon="-0.13678">
        <ele>2293.8430175781</ele>
        <time>2015-09-09T11:12:05Z</time>
      </trkpt>
      <trkpt lat="42.78975" lon="-0.13683">
        <ele>2296.2463378906</ele>
        <time>2015-09-09T11:12:17Z</time>
      </trkpt>
      <trkpt lat="42.78979" lon="-0.13685">
        <ele>2296.7268066406</ele>
        <time>2015-09-09T11:12:34Z</time>
      </trkpt>
      <trkpt lat="42.78984" lon="-0.13684">
        <ele>2297.6882324219</ele>
        <time>2015-09-09T11:12:40Z</time>
      </trkpt>
      <trkpt lat="42.78993" lon="-0.13679">
        <ele>2299.1301269531</ele>
        <time>2015-09-09T11:12:52Z</time>
      </trkpt>
      <trkpt lat="42.79002" lon="-0.13672">
        <ele>2300.091796875</ele>
        <time>2015-09-09T11:13:08Z</time>
      </trkpt>
      <trkpt lat="42.79011" lon="-0.13669">
        <ele>2301.5336914062</ele>
        <time>2015-09-09T11:13:20Z</time>
      </trkpt>
      <trkpt lat="42.79018" lon="-0.13668">
        <ele>2303.9370117188</ele>
        <time>2015-09-09T11:13:31Z</time>
      </trkpt>
      <trkpt lat="42.79017" lon="-0.13659">
        <ele>2306.3400878906</ele>
        <time>2015-09-09T11:13:48Z</time>
      </trkpt>
      <trkpt lat="42.79008" lon="-0.13656">
        <ele>2307.3015136719</ele>
        <time>2015-09-09T11:13:59Z</time>
      </trkpt>
      <trkpt lat="42.79006" lon="-0.13647">
        <ele>2308.7434082031</ele>
        <time>2015-09-09T11:14:13Z</time>
      </trkpt>
      <trkpt lat="42.79003" lon="-0.13644">
        <ele>2311.6274414062</ele>
        <time>2015-09-09T11:14:23Z</time>
      </trkpt>
      <trkpt lat="42.79009" lon="-0.13641">
        <ele>2312.1079101562</ele>
        <time>2015-09-09T11:14:34Z</time>
      </trkpt>
      <trkpt lat="42.79016" lon="-0.13638">
        <ele>2313.0693359375</ele>
        <time>2015-09-09T11:14:48Z</time>
      </trkpt>
      <trkpt lat="42.79024" lon="-0.13634">
        <ele>2315.47265625</ele>
        <time>2015-09-09T11:15:04Z</time>
      </trkpt>
      <trkpt lat="42.79031" lon="-0.13636">
        <ele>2315.953125</ele>
        <time>2015-09-09T11:15:14Z</time>
      </trkpt>
      <trkpt lat="42.79028" lon="-0.13631">
        <ele>2318.3566894531</ele>
        <time>2015-09-09T11:15:25Z</time>
      </trkpt>
      <trkpt lat="42.79021" lon="-0.13627">
        <ele>2319.3181152344</ele>
        <time>2015-09-09T11:15:36Z</time>
      </trkpt>
      <trkpt lat="42.79011" lon="-0.13627">
        <ele>2319.7985839844</ele>
        <time>2015-09-09T11:15:47Z</time>
      </trkpt>
      <trkpt lat="42.79005" lon="-0.13621">
        <ele>2320.279296875</ele>
        <time>2015-09-09T11:16:00Z</time>
      </trkpt>
      <trkpt lat="42.79004" lon="-0.13613">
        <ele>2323.6437988281</ele>
        <time>2015-09-09T11:16:16Z</time>
      </trkpt>
      <trkpt lat="42.79018" lon="-0.13612">
        <ele>2326.0471191406</ele>
        <time>2015-09-09T11:16:47Z</time>
      </trkpt>
      <trkpt lat="42.79024" lon="-0.13609">
        <ele>2327.0085449219</ele>
        <time>2015-09-09T11:16:57Z</time>
      </trkpt>
      <trkpt lat="42.79038" lon="-0.13606">
        <ele>2329.4116210938</ele>
        <time>2015-09-09T11:17:20Z</time>
      </trkpt>
      <trkpt lat="42.79034" lon="-0.136">
        <ele>2332.7763671875</ele>
        <time>2015-09-09T11:17:34Z</time>
      </trkpt>
      <trkpt lat="42.79041" lon="-0.13598">
        <ele>2336.1411132812</ele>
        <time>2015-09-09T11:17:56Z</time>
      </trkpt>
      <trkpt lat="42.7904" lon="-0.13589">
        <ele>2336.6215820312</ele>
        <time>2015-09-09T11:18:16Z</time>
      </trkpt>
      <trkpt lat="42.79037" lon="-0.13585">
        <ele>2338.5444335938</ele>
        <time>2015-09-09T11:18:31Z</time>
      </trkpt>
      <trkpt lat="42.79044" lon="-0.13589">
        <ele>2340.466796875</ele>
        <time>2015-09-09T11:18:41Z</time>
      </trkpt>
      <trkpt lat="42.79056" lon="-0.13595">
        <ele>2343.3508300781</ele>
        <time>2015-09-09T11:19:05Z</time>
      </trkpt>
      <trkpt lat="42.79066" lon="-0.13587">
        <ele>2346.2348632812</ele>
        <time>2015-09-09T11:19:28Z</time>
      </trkpt>
      <trkpt lat="42.79054" lon="-0.13587">
        <ele>2348.1574707031</ele>
        <time>2015-09-09T11:19:41Z</time>
      </trkpt>
      <trkpt lat="42.79052" lon="-0.13577">
        <ele>2348.6381835938</ele>
        <time>2015-09-09T11:19:51Z</time>
      </trkpt>
      <trkpt lat="42.79045" lon="-0.13565">
        <ele>2351.5222167969</ele>
        <time>2015-09-09T11:20:07Z</time>
      </trkpt>
      <trkpt lat="42.79042" lon="-0.13561">
        <ele>2352.4833984375</ele>
        <time>2015-09-09T11:20:18Z</time>
      </trkpt>
      <trkpt lat="42.79035" lon="-0.13557">
        <ele>2353.4448242188</ele>
        <time>2015-09-09T11:20:36Z</time>
      </trkpt>
      <trkpt lat="42.79046" lon="-0.13551">
        <ele>2356.3286132812</ele>
        <time>2015-09-09T11:20:51Z</time>
      </trkpt>
      <trkpt lat="42.79053" lon="-0.13548">
        <ele>2357.2900390625</ele>
        <time>2015-09-09T11:21:02Z</time>
      </trkpt>
      <trkpt lat="42.79062" lon="-0.13546">
        <ele>2358.2512207031</ele>
        <time>2015-09-09T11:21:16Z</time>
      </trkpt>
      <trkpt lat="42.79062" lon="-0.13543">
        <ele>2361.6159667969</ele>
        <time>2015-09-09T11:21:29Z</time>
      </trkpt>
      <trkpt lat="42.79054" lon="-0.1354">
        <ele>2362.5771484375</ele>
        <time>2015-09-09T11:21:58Z</time>
      </trkpt>
      <trkpt lat="42.79044" lon="-0.13537">
        <ele>2364.0192871094</ele>
        <time>2015-09-09T11:22:10Z</time>
      </trkpt>
      <trkpt lat="42.79036" lon="-0.1353">
        <ele>2365.9418945312</ele>
        <time>2015-09-09T11:22:25Z</time>
      </trkpt>
      <trkpt lat="42.79034" lon="-0.1353">
        <ele>2365.9418945312</ele>
        <time>2015-09-09T11:22:27Z</time>
      </trkpt>
      <trkpt lat="42.79026" lon="-0.1353">
        <ele>2368.8259277344</ele>
        <time>2015-09-09T11:22:46Z</time>
      </trkpt>
      <trkpt lat="42.79013" lon="-0.13526">
        <ele>2370.7485351562</ele>
        <time>2015-09-09T11:24:08Z</time>
      </trkpt>
      <trkpt lat="42.79008" lon="-0.13519">
        <ele>2372.6711425781</ele>
        <time>2015-09-09T11:24:22Z</time>
      </trkpt>
      <trkpt lat="42.79001" lon="-0.13519">
        <ele>2375.07421875</ele>
        <time>2015-09-09T11:24:38Z</time>
      </trkpt>
      <trkpt lat="42.78988" lon="-0.13522">
        <ele>2376.5163574219</ele>
        <time>2015-09-09T11:24:53Z</time>
      </trkpt>
      <trkpt lat="42.78982" lon="-0.13517">
        <ele>2378.4389648438</ele>
        <time>2015-09-09T11:25:03Z</time>
      </trkpt>
      <trkpt lat="42.78977" lon="-0.13506">
        <ele>2379.880859375</ele>
        <time>2015-09-09T11:25:16Z</time>
      </trkpt>
      <trkpt lat="42.7897" lon="-0.13502">
        <ele>2380.8425292969</ele>
        <time>2015-09-09T11:25:28Z</time>
      </trkpt>
      <trkpt lat="42.78974" lon="-0.13497">
        <ele>2382.7648925781</ele>
        <time>2015-09-09T11:25:44Z</time>
      </trkpt>
      <trkpt lat="42.78983" lon="-0.13497">
        <ele>2383.7263183594</ele>
        <time>2015-09-09T11:25:56Z</time>
      </trkpt>
      <trkpt lat="42.7899" lon="-0.13491">
        <ele>2385.6489257812</ele>
        <time>2015-09-09T11:26:10Z</time>
      </trkpt>
      <trkpt lat="42.78999" lon="-0.13483">
        <ele>2386.1296386719</ele>
        <time>2015-09-09T11:26:25Z</time>
      </trkpt>
      <trkpt lat="42.79006" lon="-0.13479">
        <ele>2386.6101074219</ele>
        <time>2015-09-09T11:26:37Z</time>
      </trkpt>
      <trkpt lat="42.79016" lon="-0.13473">
        <ele>2387.5715332031</ele>
        <time>2015-09-09T11:26:53Z</time>
      </trkpt>
      <trkpt lat="42.79026" lon="-0.13472">
        <ele>2389.9748535156</ele>
        <time>2015-09-09T11:27:09Z</time>
      </trkpt>
      <trkpt lat="42.79032" lon="-0.1347">
        <ele>2391.8974609375</ele>
        <time>2015-09-09T11:27:21Z</time>
      </trkpt>
      <trkpt lat="42.79039" lon="-0.13468">
        <ele>2393.3393554688</ele>
        <time>2015-09-09T11:27:32Z</time>
      </trkpt>
      <trkpt lat="42.79045" lon="-0.13469">
        <ele>2394.78125</ele>
        <time>2015-09-09T11:27:41Z</time>
      </trkpt>
      <trkpt lat="42.79052" lon="-0.1347">
        <ele>2395.7426757812</ele>
        <time>2015-09-09T11:28:00Z</time>
      </trkpt>
      <trkpt lat="42.79059" lon="-0.13462">
        <ele>2398.6267089844</ele>
        <time>2015-09-09T11:28:13Z</time>
      </trkpt>
      <trkpt lat="42.79055" lon="-0.13459">
        <ele>2399.107421875</ele>
        <time>2015-09-09T11:28:30Z</time>
      </trkpt>
      <trkpt lat="42.7905" lon="-0.13454">
        <ele>2399.107421875</ele>
        <time>2015-09-09T11:28:44Z</time>
      </trkpt>
      <trkpt lat="42.79035" lon="-0.13447">
        <ele>2400.5493164062</ele>
        <time>2015-09-09T11:29:04Z</time>
      </trkpt>
      <trkpt lat="42.79017" lon="-0.13448">
        <ele>2401.5107421875</ele>
        <time>2015-09-09T11:29:21Z</time>
      </trkpt>
      <trkpt lat="42.79013" lon="-0.13443">
        <ele>2403.9140625</ele>
        <time>2015-09-09T11:29:32Z</time>
      </trkpt>
      <trkpt lat="42.79016" lon="-0.13428">
        <ele>2403.4333496094</ele>
        <time>2015-09-09T11:29:44Z</time>
      </trkpt>
      <trkpt lat="42.79023" lon="-0.13416">
        <ele>2404.8752441406</ele>
        <time>2015-09-09T11:29:58Z</time>
      </trkpt>
      <trkpt lat="42.79032" lon="-0.13406">
        <ele>2407.2785644531</ele>
        <time>2015-09-09T11:30:11Z</time>
      </trkpt>
      <trkpt lat="42.79043" lon="-0.13395">
        <ele>2408.2397460938</ele>
        <time>2015-09-09T11:30:30Z</time>
      </trkpt>
      <trkpt lat="42.79053" lon="-0.13385">
        <ele>2411.1237792969</ele>
        <time>2015-09-09T11:30:47Z</time>
      </trkpt>
      <trkpt lat="42.79062" lon="-0.13377">
        <ele>2414.0078125</ele>
        <time>2015-09-09T11:31:04Z</time>
      </trkpt>
      <trkpt lat="42.79065" lon="-0.13372">
        <ele>2415.4499511719</ele>
        <time>2015-09-09T11:31:21Z</time>
      </trkpt>
      <trkpt lat="42.79054" lon="-0.13366">
        <ele>2418.3337402344</ele>
        <time>2015-09-09T11:31:40Z</time>
      </trkpt>
      <trkpt lat="42.79047" lon="-0.13363">
        <ele>2419.2951660156</ele>
        <time>2015-09-09T11:31:54Z</time>
      </trkpt>
      <trkpt lat="42.79038" lon="-0.13359">
        <ele>2420.2563476562</ele>
        <time>2015-09-09T11:32:10Z</time>
      </trkpt>
      <trkpt lat="42.79027" lon="-0.13358">
        <ele>2422.6596679688</ele>
        <time>2015-09-09T11:32:27Z</time>
      </trkpt>
      <trkpt lat="42.79028" lon="-0.13352">
        <ele>2425.0627441406</ele>
        <time>2015-09-09T11:32:38Z</time>
      </trkpt>
      <trkpt lat="42.79032" lon="-0.13346">
        <ele>2425.0627441406</ele>
        <time>2015-09-09T11:32:52Z</time>
      </trkpt>
      <trkpt lat="42.7904" lon="-0.13342">
        <ele>2427.4660644531</ele>
        <time>2015-09-09T11:33:15Z</time>
      </trkpt>
      <trkpt lat="42.79049" lon="-0.13335">
        <ele>2431.3115234375</ele>
        <time>2015-09-09T11:33:32Z</time>
      </trkpt>
      <trkpt lat="42.79051" lon="-0.13335">
        <ele>2431.7922363281</ele>
        <time>2015-09-09T11:33:34Z</time>
      </trkpt>
      <trkpt lat="42.79059" lon="-0.13326">
        <ele>2432.7534179688</ele>
        <time>2015-09-09T11:33:52Z</time>
      </trkpt>
      <trkpt lat="42.79058" lon="-0.13323">
        <ele>2433.2341308594</ele>
        <time>2015-09-09T11:34:11Z</time>
      </trkpt>
      <trkpt lat="42.79057" lon="-0.13325">
        <ele>2433.2341308594</ele>
        <time>2015-09-09T11:34:32Z</time>
      </trkpt>
      <trkpt lat="42.7905" lon="-0.13326">
        <ele>2435.6374511719</ele>
        <time>2015-09-09T11:35:02Z</time>
      </trkpt>
      <trkpt lat="42.7904" lon="-0.13324">
        <ele>2438.0407714844</ele>
        <time>2015-09-09T11:35:19Z</time>
      </trkpt>
      <trkpt lat="42.79036" lon="-0.13319">
        <ele>2440.4438476562</ele>
        <time>2015-09-09T11:35:36Z</time>
      </trkpt>
      <trkpt lat="42.79044" lon="-0.13312">
        <ele>2443.3278808594</ele>
        <time>2015-09-09T11:35:52Z</time>
      </trkpt>
      <trkpt lat="42.7905" lon="-0.13303">
        <ele>2444.7700195312</ele>
        <time>2015-09-09T11:36:08Z</time>
      </trkpt>
      <trkpt lat="42.79049" lon="-0.13301">
        <ele>2446.2121582031</ele>
        <time>2015-09-09T11:36:11Z</time>
      </trkpt>
      <trkpt lat="42.79039" lon="-0.13305">
        <ele>2447.1733398438</ele>
        <time>2015-09-09T11:36:28Z</time>
      </trkpt>
      <trkpt lat="42.7903" lon="-0.13305">
        <ele>2449.0959472656</ele>
        <time>2015-09-09T11:36:44Z</time>
      </trkpt>
      <trkpt lat="42.79025" lon="-0.13306">
        <ele>2452.4604492188</ele>
        <time>2015-09-09T11:36:56Z</time>
      </trkpt>
      <trkpt lat="42.7902" lon="-0.13307">
        <ele>2453.9025878906</ele>
        <time>2015-09-09T11:37:16Z</time>
      </trkpt>
      <trkpt lat="42.79011" lon="-0.13306">
        <ele>2454.8637695312</ele>
        <time>2015-09-09T11:37:32Z</time>
      </trkpt>
      <trkpt lat="42.78999" lon="-0.13305">
        <ele>2457.2670898438</ele>
        <time>2015-09-09T11:37:49Z</time>
      </trkpt>
      <trkpt lat="42.78988" lon="-0.13307">
        <ele>2460.1511230469</ele>
        <time>2015-09-09T11:38:07Z</time>
      </trkpt>
      <trkpt lat="42.78995" lon="-0.13294">
        <ele>2462.0737304688</ele>
        <time>2015-09-09T11:38:23Z</time>
      </trkpt>
      <trkpt lat="42.79002" lon="-0.13279">
        <ele>2463.515625</ele>
        <time>2015-09-09T11:38:39Z</time>
      </trkpt>
      <trkpt lat="42.79012" lon="-0.13264">
        <ele>2465.4384765625</ele>
        <time>2015-09-09T11:38:59Z</time>
      </trkpt>
      <trkpt lat="42.79004" lon="-0.13262">
        <ele>2466.8803710938</ele>
        <time>2015-09-09T11:39:15Z</time>
      </trkpt>
      <trkpt lat="42.78995" lon="-0.13257">
        <ele>2470.2448730469</ele>
        <time>2015-09-09T11:39:33Z</time>
      </trkpt>
      <trkpt lat="42.78995" lon="-0.13251">
        <ele>2470.7255859375</ele>
        <time>2015-09-09T11:39:53Z</time>
      </trkpt>
      <trkpt lat="42.78986" lon="-0.13252">
        <ele>2472.6481933594</ele>
        <time>2015-09-09T11:40:09Z</time>
      </trkpt>
      <trkpt lat="42.78979" lon="-0.13259">
        <ele>2473.609375</ele>
        <time>2015-09-09T11:40:22Z</time>
      </trkpt>
      <trkpt lat="42.78969" lon="-0.13258">
        <ele>2475.5319824219</ele>
        <time>2015-09-09T11:40:38Z</time>
      </trkpt>
      <trkpt lat="42.78963" lon="-0.13256">
        <ele>2478.8967285156</ele>
        <time>2015-09-09T11:40:49Z</time>
      </trkpt>
      <trkpt lat="42.78954" lon="-0.13254">
        <ele>2481.3000488281</ele>
        <time>2015-09-09T11:41:05Z</time>
      </trkpt>
      <trkpt lat="42.78953" lon="-0.13255">
        <ele>2480.8195800781</ele>
        <time>2015-09-09T11:41:15Z</time>
      </trkpt>
      <trkpt lat="42.7895" lon="-0.13249">
        <ele>2481.7807617188</ele>
        <time>2015-09-09T11:41:28Z</time>
      </trkpt>
      <trkpt lat="42.78948" lon="-0.13249">
        <ele>2482.2614746094</ele>
        <time>2015-09-09T11:41:48Z</time>
      </trkpt>
      <trkpt lat="42.78938" lon="-0.1325">
        <ele>2484.6647949219</ele>
        <time>2015-09-09T11:42:05Z</time>
      </trkpt>
      <trkpt lat="42.7893" lon="-0.13249">
        <ele>2487.5485839844</ele>
        <time>2015-09-09T11:42:19Z</time>
      </trkpt>
      <trkpt lat="42.78925" lon="-0.13254">
        <ele>2488.5100097656</ele>
        <time>2015-09-09T11:42:32Z</time>
      </trkpt>
      <trkpt lat="42.78917" lon="-0.13262">
        <ele>2489.4711914062</ele>
        <time>2015-09-09T11:42:47Z</time>
      </trkpt>
      <trkpt lat="42.78907" lon="-0.13265">
        <ele>2492.35546875</ele>
        <time>2015-09-09T11:43:02Z</time>
      </trkpt>
      <trkpt lat="42.78898" lon="-0.13271">
        <ele>2494.7585449219</ele>
        <time>2015-09-09T11:43:17Z</time>
      </trkpt>
      <trkpt lat="42.78893" lon="-0.13285">
        <ele>2493.7973632812</ele>
        <time>2015-09-09T11:43:34Z</time>
      </trkpt>
      <trkpt lat="42.78884" lon="-0.13298">
        <ele>2493.3166503906</ele>
        <time>2015-09-09T11:43:50Z</time>
      </trkpt>
      <trkpt lat="42.78876" lon="-0.13308">
        <ele>2495.7199707031</ele>
        <time>2015-09-09T11:44:07Z</time>
      </trkpt>
      <trkpt lat="42.7887" lon="-0.1331">
        <ele>2497.642578125</ele>
        <time>2015-09-09T11:44:24Z</time>
      </trkpt>
      <trkpt lat="42.78867" lon="-0.13312">
        <ele>2498.123046875</ele>
        <time>2015-09-09T11:44:39Z</time>
      </trkpt>
      <trkpt lat="42.78864" lon="-0.13304">
        <ele>2500.0458984375</ele>
        <time>2015-09-09T11:44:55Z</time>
      </trkpt>
      <trkpt lat="42.78858" lon="-0.13297">
        <ele>2502.4489746094</ele>
        <time>2015-09-09T11:45:09Z</time>
      </trkpt>
      <trkpt lat="42.78851" lon="-0.13302">
        <ele>2505.8134765625</ele>
        <time>2015-09-09T11:45:24Z</time>
      </trkpt>
      <trkpt lat="42.78842" lon="-0.13293">
        <ele>2506.7749023438</ele>
        <time>2015-09-09T11:45:41Z</time>
      </trkpt>
      <trkpt lat="42.78828" lon="-0.13284">
        <ele>2507.736328125</ele>
        <time>2015-09-09T11:46:00Z</time>
      </trkpt>
      <trkpt lat="42.78826" lon="-0.13281">
        <ele>2507.736328125</ele>
        <time>2015-09-09T11:46:03Z</time>
      </trkpt>
      <trkpt lat="42.7882" lon="-0.1327">
        <ele>2508.2170410156</ele>
        <time>2015-09-09T11:46:21Z</time>
      </trkpt>
      <trkpt lat="42.78809" lon="-0.13258">
        <ele>2510.1396484375</ele>
        <time>2015-09-09T11:46:42Z</time>
      </trkpt>
      <trkpt lat="42.78808" lon="-0.13259">
        <ele>2511.1010742188</ele>
        <time>2015-09-09T11:46:50Z</time>
      </trkpt>
      <trkpt lat="42.78805" lon="-0.13269">
        <ele>2511.5817871094</ele>
        <time>2015-09-09T11:47:07Z</time>
      </trkpt>
      <trkpt lat="42.78807" lon="-0.13289">
        <ele>2511.5817871094</ele>
        <time>2015-09-09T11:47:23Z</time>
      </trkpt>
      <trkpt lat="42.78803" lon="-0.13302">
        <ele>2511.1010742188</ele>
        <time>2015-09-09T11:47:37Z</time>
      </trkpt>
      <trkpt lat="42.78793" lon="-0.13311">
        <ele>2512.0622558594</ele>
        <time>2015-09-09T11:47:52Z</time>
      </trkpt>
      <trkpt lat="42.78784" lon="-0.1332">
        <ele>2513.9848632812</ele>
        <time>2015-09-09T11:48:10Z</time>
      </trkpt>
      <trkpt lat="42.78778" lon="-0.1331">
        <ele>2516.3881835938</ele>
        <time>2015-09-09T11:48:27Z</time>
      </trkpt>
      <trkpt lat="42.78773" lon="-0.13307">
        <ele>2517.3493652344</ele>
        <time>2015-09-09T11:48:45Z</time>
      </trkpt>
      <trkpt lat="42.78766" lon="-0.13311">
        <ele>2518.7915039062</ele>
        <time>2015-09-09T11:49:00Z</time>
      </trkpt>
      <trkpt lat="42.7876" lon="-0.13312">
        <ele>2520.7141113281</ele>
        <time>2015-09-09T11:49:15Z</time>
      </trkpt>
      <trkpt lat="42.78749" lon="-0.1331">
        <ele>2524.0788574219</ele>
        <time>2015-09-09T11:49:30Z</time>
      </trkpt>
      <trkpt lat="42.78735" lon="-0.13312">
        <ele>2525.0400390625</ele>
        <time>2015-09-09T11:49:46Z</time>
      </trkpt>
      <trkpt lat="42.78721" lon="-0.13323">
        <ele>2527.443359375</ele>
        <time>2015-09-09T11:50:04Z</time>
      </trkpt>
      <trkpt lat="42.78704" lon="-0.13326">
        <ele>2528.4047851562</ele>
        <time>2015-09-09T11:50:23Z</time>
      </trkpt>
      <trkpt lat="42.7869" lon="-0.13325">
        <ele>2530.3273925781</ele>
        <time>2015-09-09T11:50:40Z</time>
      </trkpt>
      <trkpt lat="42.78672" lon="-0.13326">
        <ele>2533.2111816406</ele>
        <time>2015-09-09T11:51:01Z</time>
      </trkpt>
      <trkpt lat="42.78663" lon="-0.13329">
        <ele>2534.1726074219</ele>
        <time>2015-09-09T11:51:20Z</time>
      </trkpt>
      <trkpt lat="42.78655" lon="-0.13329">
        <ele>2537.0563964844</ele>
        <time>2015-09-09T11:51:35Z</time>
      </trkpt>
      <trkpt lat="42.78642" lon="-0.13333">
        <ele>2538.4985351562</ele>
        <time>2015-09-09T11:51:53Z</time>
      </trkpt>
      <trkpt lat="42.7864" lon="-0.13334">
        <ele>2537.537109375</ele>
        <time>2015-09-09T11:51:55Z</time>
      </trkpt>
      <trkpt lat="42.78624" lon="-0.1334">
        <ele>2539.4597167969</ele>
        <time>2015-09-09T11:52:15Z</time>
      </trkpt>
      <trkpt lat="42.78611" lon="-0.13351">
        <ele>2541.3825683594</ele>
        <time>2015-09-09T11:52:33Z</time>
      </trkpt>
      <trkpt lat="42.78594" lon="-0.13355">
        <ele>2544.2663574219</ele>
        <time>2015-09-09T11:52:54Z</time>
      </trkpt>
      <trkpt lat="42.78585" lon="-0.13365">
        <ele>2545.7084960938</ele>
        <time>2015-09-09T11:53:11Z</time>
      </trkpt>
      <trkpt lat="42.78578" lon="-0.13376">
        <ele>2548.5922851562</ele>
        <time>2015-09-09T11:53:31Z</time>
      </trkpt>
      <trkpt lat="42.78567" lon="-0.13387">
        <ele>2550.9956054688</ele>
        <time>2015-09-09T11:53:49Z</time>
      </trkpt>
      <trkpt lat="42.78551" lon="-0.13402">
        <ele>2553.8796386719</ele>
        <time>2015-09-09T11:54:13Z</time>
      </trkpt>
      <trkpt lat="42.78535" lon="-0.13411">
        <ele>2553.8796386719</ele>
        <time>2015-09-09T11:54:33Z</time>
      </trkpt>
      <trkpt lat="42.78523" lon="-0.13415">
        <ele>2554.8408203125</ele>
        <time>2015-09-09T11:54:50Z</time>
      </trkpt>
      <trkpt lat="42.78514" lon="-0.13431">
        <ele>2557.7250976562</ele>
        <time>2015-09-09T11:55:10Z</time>
      </trkpt>
      <trkpt lat="42.78503" lon="-0.13439">
        <ele>2560.1281738281</ele>
        <time>2015-09-09T11:55:27Z</time>
      </trkpt>
      <trkpt lat="42.78496" lon="-0.13438">
        <ele>2563.0122070312</ele>
        <time>2015-09-09T11:55:45Z</time>
      </trkpt>
      <trkpt lat="42.78495" lon="-0.13434">
        <ele>2564.4541015625</ele>
        <time>2015-09-09T11:56:04Z</time>
      </trkpt>
      <trkpt lat="42.78495" lon="-0.13433">
        <ele>2565.8959960938</ele>
        <time>2015-09-09T11:56:07Z</time>
      </trkpt>
      <trkpt lat="42.78491" lon="-0.13431">
        <ele>2566.3767089844</ele>
        <time>2015-09-09T11:56:20Z</time>
      </trkpt>
      <trkpt lat="42.78485" lon="-0.13433">
        <ele>2568.2993164062</ele>
        <time>2015-09-09T11:56:38Z</time>
      </trkpt>
      <trkpt lat="42.78483" lon="-0.13422">
        <ele>2570.2219238281</ele>
        <time>2015-09-09T11:56:56Z</time>
      </trkpt>
      <trkpt lat="42.78478" lon="-0.13431">
        <ele>2573.1062011719</ele>
        <time>2015-09-09T11:57:11Z</time>
      </trkpt>
      <trkpt lat="42.78474" lon="-0.13439">
        <ele>2574.5480957031</ele>
        <time>2015-09-09T11:57:28Z</time>
      </trkpt>
      <trkpt lat="42.78469" lon="-0.13448">
        <ele>2575.0285644531</ele>
        <time>2015-09-09T11:58:05Z</time>
      </trkpt>
      <trkpt lat="42.78453" lon="-0.13452">
        <ele>2576.9514160156</ele>
        <time>2015-09-09T11:58:25Z</time>
      </trkpt>
      <trkpt lat="42.78452" lon="-0.13453">
        <ele>2576.9514160156</ele>
        <time>2015-09-09T11:58:26Z</time>
      </trkpt>
      <trkpt lat="42.78436" lon="-0.13452">
        <ele>2577.9125976562</ele>
        <time>2015-09-09T11:58:44Z</time>
      </trkpt>
      <trkpt lat="42.78427" lon="-0.13452">
        <ele>2577.9125976562</ele>
        <time>2015-09-09T11:58:53Z</time>
      </trkpt>
      <trkpt lat="42.7841" lon="-0.13449">
        <ele>2579.3544921875</ele>
        <time>2015-09-09T11:59:12Z</time>
      </trkpt>
      <trkpt lat="42.78404" lon="-0.13447">
        <ele>2581.2770996094</ele>
        <time>2015-09-09T11:59:19Z</time>
      </trkpt>
      <trkpt lat="42.78392" lon="-0.13449">
        <ele>2584.1611328125</ele>
        <time>2015-09-09T11:59:37Z</time>
      </trkpt>
      <trkpt lat="42.78384" lon="-0.13453">
        <ele>2586.5642089844</ele>
        <time>2015-09-09T11:59:54Z</time>
      </trkpt>
      <trkpt lat="42.78375" lon="-0.13454">
        <ele>2589.4484863281</ele>
        <time>2015-09-09T12:00:08Z</time>
      </trkpt>
      <trkpt lat="42.78364" lon="-0.13454">
        <ele>2592.8129882812</ele>
        <time>2015-09-09T12:00:26Z</time>
      </trkpt>
      <trkpt lat="42.78363" lon="-0.13445">
        <ele>2594.2548828125</ele>
        <time>2015-09-09T12:00:41Z</time>
      </trkpt>
      <trkpt lat="42.78364" lon="-0.13444">
        <ele>2593.2937011719</ele>
        <time>2015-09-09T12:01:14Z</time>
      </trkpt>
      <trkpt lat="42.78363" lon="-0.13445">
        <ele>2594.2548828125</ele>
        <time>2015-09-09T12:02:55Z</time>
      </trkpt>
      <trkpt lat="42.78362" lon="-0.13441">
        <ele>2595.6970214844</ele>
        <time>2015-09-09T12:03:21Z</time>
      </trkpt>
      <trkpt lat="42.78354" lon="-0.13428">
        <ele>2595.6970214844</ele>
        <time>2015-09-09T12:03:39Z</time>
      </trkpt>
      <trkpt lat="42.7834" lon="-0.13428">
        <ele>2595.6970214844</ele>
        <time>2015-09-09T12:03:58Z</time>
      </trkpt>
      <trkpt lat="42.78331" lon="-0.13437">
        <ele>2597.6196289062</ele>
        <time>2015-09-09T12:04:13Z</time>
      </trkpt>
      <trkpt lat="42.78326" lon="-0.13441">
        <ele>2599.5419921875</ele>
        <time>2015-09-09T12:04:23Z</time>
      </trkpt>
      <trkpt lat="42.78319" lon="-0.13445">
        <ele>2601.46484375</ele>
        <time>2015-09-09T12:04:41Z</time>
      </trkpt>
      <trkpt lat="42.7831" lon="-0.1344">
        <ele>2601.9453125</ele>
        <time>2015-09-09T12:04:56Z</time>
      </trkpt>
      <trkpt lat="42.78297" lon="-0.13439">
        <ele>2601.46484375</ele>
        <time>2015-09-09T12:05:12Z</time>
      </trkpt>
      <trkpt lat="42.78295" lon="-0.13437">
        <ele>2602.9067382812</ele>
        <time>2015-09-09T12:05:15Z</time>
      </trkpt>
      <trkpt lat="42.78282" lon="-0.13433">
        <ele>2602.4262695312</ele>
        <time>2015-09-09T12:05:33Z</time>
      </trkpt>
      <trkpt lat="42.78271" lon="-0.13435">
        <ele>2604.3486328125</ele>
        <time>2015-09-09T12:05:48Z</time>
      </trkpt>
      <trkpt lat="42.78261" lon="-0.13439">
        <ele>2606.751953125</ele>
        <time>2015-09-09T12:06:04Z</time>
      </trkpt>
      <trkpt lat="42.78252" lon="-0.13444">
        <ele>2609.6357421875</ele>
        <time>2015-09-09T12:06:21Z</time>
      </trkpt>
      <trkpt lat="42.78241" lon="-0.13442">
        <ele>2611.0776367188</ele>
        <time>2015-09-09T12:06:38Z</time>
      </trkpt>
      <trkpt lat="42.78237" lon="-0.13443">
        <ele>2612.0395507812</ele>
        <time>2015-09-09T12:06:43Z</time>
      </trkpt>
      <trkpt lat="42.78224" lon="-0.13445">
        <ele>2613.0009765625</ele>
        <time>2015-09-09T12:07:03Z</time>
      </trkpt>
      <trkpt lat="42.78212" lon="-0.13443">
        <ele>2613.9624023438</ele>
        <time>2015-09-09T12:07:20Z</time>
      </trkpt>
      <trkpt lat="42.78208" lon="-0.13443">
        <ele>2616.3657226562</ele>
        <time>2015-09-09T12:07:25Z</time>
      </trkpt>
      <trkpt lat="42.782" lon="-0.13444">
        <ele>2619.2495117188</ele>
        <time>2015-09-09T12:07:41Z</time>
      </trkpt>
      <trkpt lat="42.78195" lon="-0.13444">
        <ele>2620.69140625</ele>
        <time>2015-09-09T12:07:57Z</time>
      </trkpt>
      <trkpt lat="42.78185" lon="-0.13438">
        <ele>2624.0561523438</ele>
        <time>2015-09-09T12:08:15Z</time>
      </trkpt>
      <trkpt lat="42.78181" lon="-0.13432">
        <ele>2623.5751953125</ele>
        <time>2015-09-09T12:08:43Z</time>
      </trkpt>
      <trkpt lat="42.78168" lon="-0.13427">
        <ele>2624.0561523438</ele>
        <time>2015-09-09T12:09:03Z</time>
      </trkpt>
      <trkpt lat="42.78161" lon="-0.1342">
        <ele>2625.0170898438</ele>
        <time>2015-09-09T12:09:18Z</time>
      </trkpt>
      <trkpt lat="42.78154" lon="-0.13414">
        <ele>2627.9008789062</ele>
        <time>2015-09-09T12:09:30Z</time>
      </trkpt>
      <trkpt lat="42.78147" lon="-0.13402">
        <ele>2628.8623046875</ele>
        <time>2015-09-09T12:09:48Z</time>
      </trkpt>
      <trkpt lat="42.78146" lon="-0.13392">
        <ele>2631.7465820312</ele>
        <time>2015-09-09T12:10:06Z</time>
      </trkpt>
      <trkpt lat="42.78138" lon="-0.13389">
        <ele>2632.7075195312</ele>
        <time>2015-09-09T12:10:22Z</time>
      </trkpt>
      <trkpt lat="42.78134" lon="-0.13376">
        <ele>2635.5913085938</ele>
        <time>2015-09-09T12:10:39Z</time>
      </trkpt>
      <trkpt lat="42.78128" lon="-0.13369">
        <ele>2638.4755859375</ele>
        <time>2015-09-09T12:10:54Z</time>
      </trkpt>
      <trkpt lat="42.78128" lon="-0.13369">
        <ele>2638.4755859375</ele>
        <time>2015-09-09T12:10:55Z</time>
      </trkpt>
      <trkpt lat="42.78131" lon="-0.13365">
        <ele>2640.87890625</ele>
        <time>2015-09-09T12:11:01Z</time>
      </trkpt>
      <trkpt lat="42.7814" lon="-0.13359">
        <ele>2642.3208007812</ele>
        <time>2015-09-09T12:11:18Z</time>
      </trkpt>
      <trkpt lat="42.78135" lon="-0.13354">
        <ele>2644.2436523438</ele>
        <time>2015-09-09T12:11:40Z</time>
      </trkpt>
      <trkpt lat="42.7813" lon="-0.13348">
        <ele>2647.1279296875</ele>
        <time>2015-09-09T12:11:54Z</time>
      </trkpt>
      <trkpt lat="42.78119" lon="-0.1334">
        <ele>2648.5698242188</ele>
        <time>2015-09-09T12:12:14Z</time>
      </trkpt>
      <trkpt lat="42.78109" lon="-0.13339">
        <ele>2650.4921875</ele>
        <time>2015-09-09T12:12:31Z</time>
      </trkpt>
      <trkpt lat="42.78112" lon="-0.13332">
        <ele>2652.4150390625</ele>
        <time>2015-09-09T12:12:47Z</time>
      </trkpt>
      <trkpt lat="42.78124" lon="-0.13328">
        <ele>2653.3759765625</ele>
        <time>2015-09-09T12:13:06Z</time>
      </trkpt>
      <trkpt lat="42.78134" lon="-0.13322">
        <ele>2656.2602539062</ele>
        <time>2015-09-09T12:13:24Z</time>
      </trkpt>
      <trkpt lat="42.78125" lon="-0.13317">
        <ele>2658.6630859375</ele>
        <time>2015-09-09T12:13:39Z</time>
      </trkpt>
      <trkpt lat="42.78115" lon="-0.1331">
        <ele>2660.5859375</ele>
        <time>2015-09-09T12:13:57Z</time>
      </trkpt>
      <trkpt lat="42.78104" lon="-0.13304">
        <ele>2662.5087890625</ele>
        <time>2015-09-09T12:14:17Z</time>
      </trkpt>
      <trkpt lat="42.78096" lon="-0.13299">
        <ele>2664.4311523438</ele>
        <time>2015-09-09T12:14:37Z</time>
      </trkpt>
      <trkpt lat="42.78085" lon="-0.13291">
        <ele>2665.873046875</ele>
        <time>2015-09-09T12:14:55Z</time>
      </trkpt>
      <trkpt lat="42.78078" lon="-0.13289">
        <ele>2667.3149414062</ele>
        <time>2015-09-09T12:15:05Z</time>
      </trkpt>
      <trkpt lat="42.78067" lon="-0.13283">
        <ele>2670.19921875</ele>
        <time>2015-09-09T12:15:21Z</time>
      </trkpt>
      <trkpt lat="42.78055" lon="-0.13276">
        <ele>2673.5634765625</ele>
        <time>2015-09-09T12:15:41Z</time>
      </trkpt>
      <trkpt lat="42.78046" lon="-0.13274">
        <ele>2675.0053710938</ele>
        <time>2015-09-09T12:15:59Z</time>
      </trkpt>
      <trkpt lat="42.78037" lon="-0.13271">
        <ele>2675.0053710938</ele>
        <time>2015-09-09T12:16:14Z</time>
      </trkpt>
      <trkpt lat="42.78036" lon="-0.1327">
        <ele>2675.486328125</ele>
        <time>2015-09-09T12:16:16Z</time>
      </trkpt>
      <trkpt lat="42.78027" lon="-0.13268">
        <ele>2677.4091796875</ele>
        <time>2015-09-09T12:16:29Z</time>
      </trkpt>
      <trkpt lat="42.78018" lon="-0.13264">
        <ele>2679.33203125</ele>
        <time>2015-09-09T12:16:44Z</time>
      </trkpt>
      <trkpt lat="42.78009" lon="-0.1326">
        <ele>2680.29296875</ele>
        <time>2015-09-09T12:16:57Z</time>
      </trkpt>
      <trkpt lat="42.78002" lon="-0.13259">
        <ele>2681.2543945312</ele>
        <time>2015-09-09T12:17:15Z</time>
      </trkpt>
      <trkpt lat="42.77993" lon="-0.13254">
        <ele>2684.1381835938</ele>
        <time>2015-09-09T12:17:31Z</time>
      </trkpt>
      <trkpt lat="42.77987" lon="-0.13245">
        <ele>2687.0224609375</ele>
        <time>2015-09-09T12:17:45Z</time>
      </trkpt>
      <trkpt lat="42.77983" lon="-0.13238">
        <ele>2689.4252929688</ele>
        <time>2015-09-09T12:17:58Z</time>
      </trkpt>
      <trkpt lat="42.77973" lon="-0.13232">
        <ele>2691.3481445312</ele>
        <time>2015-09-09T12:18:16Z</time>
      </trkpt>
      <trkpt lat="42.77971" lon="-0.13228">
        <ele>2692.3095703125</ele>
        <time>2015-09-09T12:18:34Z</time>
      </trkpt>
      <trkpt lat="42.77963" lon="-0.13222">
        <ele>2695.673828125</ele>
        <time>2015-09-09T12:18:48Z</time>
      </trkpt>
      <trkpt lat="42.77956" lon="-0.13211">
        <ele>2698.0771484375</ele>
        <time>2015-09-09T12:19:08Z</time>
      </trkpt>
      <trkpt lat="42.77956" lon="-0.13211">
        <ele>2697.5966796875</ele>
        <time>2015-09-09T12:19:09Z</time>
      </trkpt>
      <trkpt lat="42.77953" lon="-0.13208">
        <ele>2699.5190429688</ele>
        <time>2015-09-09T12:19:24Z</time>
      </trkpt>
      <trkpt lat="42.77955" lon="-0.132">
        <ele>2702.8837890625</ele>
        <time>2015-09-09T12:19:42Z</time>
      </trkpt>
      <trkpt lat="42.77952" lon="-0.13194">
        <ele>2703.8452148438</ele>
        <time>2015-09-09T12:19:57Z</time>
      </trkpt>
      <trkpt lat="42.77952" lon="-0.13189">
        <ele>2706.2485351562</ele>
        <time>2015-09-09T12:20:17Z</time>
      </trkpt>
      <trkpt lat="42.77949" lon="-0.13184">
        <ele>2709.1328125</ele>
        <time>2015-09-09T12:20:32Z</time>
      </trkpt>
      <trkpt lat="42.77947" lon="-0.13179">
        <ele>2712.4970703125</ele>
        <time>2015-09-09T12:20:47Z</time>
      </trkpt>
      <trkpt lat="42.77949" lon="-0.13176">
        <ele>2714.419921875</ele>
        <time>2015-09-09T12:21:03Z</time>
      </trkpt>
      <trkpt lat="42.77951" lon="-0.13173">
        <ele>2715.3813476562</ele>
        <time>2015-09-09T12:21:18Z</time>
      </trkpt>
      <trkpt lat="42.77956" lon="-0.13168">
        <ele>2717.7846679688</ele>
        <time>2015-09-09T12:21:32Z</time>
      </trkpt>
      <trkpt lat="42.77961" lon="-0.13168">
        <ele>2719.70703125</ele>
        <time>2015-09-09T12:21:50Z</time>
      </trkpt>
      <trkpt lat="42.7796" lon="-0.13164">
        <ele>2722.1103515625</ele>
        <time>2015-09-09T12:22:05Z</time>
      </trkpt>
      <trkpt lat="42.77953" lon="-0.13158">
        <ele>2724.033203125</ele>
        <time>2015-09-09T12:22:20Z</time>
      </trkpt>
      <trkpt lat="42.77945" lon="-0.1315">
        <ele>2727.3974609375</ele>
        <time>2015-09-09T12:22:35Z</time>
      </trkpt>
      <trkpt lat="42.77944" lon="-0.1315">
        <ele>2727.3974609375</ele>
        <time>2015-09-09T12:22:36Z</time>
      </trkpt>
      <trkpt lat="42.77938" lon="-0.13145">
        <ele>2730.7622070312</ele>
        <time>2015-09-09T12:22:48Z</time>
      </trkpt>
      <trkpt lat="42.77931" lon="-0.1314">
        <ele>2732.2041015625</ele>
        <time>2015-09-09T12:23:01Z</time>
      </trkpt>
      <trkpt lat="42.77928" lon="-0.13137">
        <ele>2732.2041015625</ele>
        <time>2015-09-09T12:23:16Z</time>
      </trkpt>
      <trkpt lat="42.77929" lon="-0.13136">
        <ele>2732.2041015625</ele>
        <time>2015-09-09T12:23:46Z</time>
      </trkpt>
      <trkpt lat="42.77928" lon="-0.13134">
        <ele>2732.6845703125</ele>
        <time>2015-09-09T12:26:00Z</time>
      </trkpt>
      <trkpt lat="42.77929" lon="-0.13133">
        <ele>2733.1655273438</ele>
        <time>2015-09-09T12:27:11Z</time>
      </trkpt>
      <trkpt lat="42.77927" lon="-0.13133">
        <ele>2733.1655273438</ele>
        <time>2015-09-09T12:30:37Z</time>
      </trkpt>
      <trkpt lat="42.77921" lon="-0.13133">
        <ele>2733.1655273438</ele>
        <time>2015-09-09T12:30:58Z</time>
      </trkpt>
      <trkpt lat="42.7791" lon="-0.13136">
        <ele>2733.1655273438</ele>
        <time>2015-09-09T12:31:15Z</time>
      </trkpt>
      <trkpt lat="42.77904" lon="-0.13137">
        <ele>2734.607421875</ele>
        <time>2015-09-09T12:31:31Z</time>
      </trkpt>
      <trkpt lat="42.77905" lon="-0.13136">
        <ele>2735.087890625</ele>
        <time>2015-09-09T12:31:40Z</time>
      </trkpt>
      <trkpt lat="42.77891" lon="-0.13144">
        <ele>2736.0493164062</ele>
        <time>2015-09-09T12:32:11Z</time>
      </trkpt>
      <trkpt lat="42.77882" lon="-0.13141">
        <ele>2737.4912109375</ele>
        <time>2015-09-09T12:32:28Z</time>
      </trkpt>
      <trkpt lat="42.77882" lon="-0.13139">
        <ele>2739.4140625</ele>
        <time>2015-09-09T12:32:48Z</time>
      </trkpt>
      <trkpt lat="42.77882" lon="-0.13139">
        <ele>2739.4140625</ele>
        <time>2015-09-09T12:32:55Z</time>
      </trkpt>
      <trkpt lat="42.77881" lon="-0.13139">
        <ele>2739.4140625</ele>
        <time>2015-09-09T12:33:02Z</time>
      </trkpt>
      <trkpt lat="42.77882" lon="-0.13139">
        <ele>2737.9716796875</ele>
        <time>2015-09-09T12:33:05Z</time>
      </trkpt>
      <trkpt lat="42.77883" lon="-0.1314">
        <ele>2738.4526367188</ele>
        <time>2015-09-09T12:33:34Z</time>
      </trkpt>
      <trkpt lat="42.77883" lon="-0.13139">
        <ele>2737.9716796875</ele>
        <time>2015-09-09T12:34:05Z</time>
      </trkpt>
      <trkpt lat="42.77883" lon="-0.13139">
        <ele>2738.9331054688</ele>
        <time>2015-09-09T12:34:28Z</time>
      </trkpt>
      <trkpt lat="42.77883" lon="-0.13139">
        <ele>2737.4912109375</ele>
        <time>2015-09-09T12:34:42Z</time>
      </trkpt>
      <trkpt lat="42.77884" lon="-0.13138">
        <ele>2737.4912109375</ele>
        <time>2015-09-09T12:35:08Z</time>
      </trkpt>
      <trkpt lat="42.77883" lon="-0.13145">
        <ele>2737.9716796875</ele>
        <time>2015-09-09T12:35:31Z</time>
      </trkpt>
      <trkpt lat="42.77881" lon="-0.13144">
        <ele>2739.89453125</ele>
        <time>2015-09-09T12:35:37Z</time>
      </trkpt>
      <trkpt lat="42.77873" lon="-0.13141">
        <ele>2741.8173828125</ele>
        <time>2015-09-09T12:35:53Z</time>
      </trkpt>
      <trkpt lat="42.7787" lon="-0.13141">
        <ele>2743.2592773438</ele>
        <time>2015-09-09T12:36:06Z</time>
      </trkpt>
      <trkpt lat="42.77866" lon="-0.1314">
        <ele>2746.6240234375</ele>
        <time>2015-09-09T12:36:17Z</time>
      </trkpt>
      <trkpt lat="42.7786" lon="-0.13142">
        <ele>2749.5078125</ele>
        <time>2015-09-09T12:36:32Z</time>
      </trkpt>
      <trkpt lat="42.77855" lon="-0.13146">
        <ele>2751.9111328125</ele>
        <time>2015-09-09T12:36:45Z</time>
      </trkpt>
      <trkpt lat="42.77854" lon="-0.13151">
        <ele>2753.833984375</ele>
        <time>2015-09-09T12:36:51Z</time>
      </trkpt>
      <trkpt lat="42.77853" lon="-0.13154">
        <ele>2754.7954101562</ele>
        <time>2015-09-09T12:36:56Z</time>
      </trkpt>
      <trkpt lat="42.77845" lon="-0.13152">
        <ele>2756.7177734375</ele>
        <time>2015-09-09T12:37:14Z</time>
      </trkpt>
      <trkpt lat="42.77843" lon="-0.13154">
        <ele>2758.1596679688</ele>
        <time>2015-09-09T12:37:19Z</time>
      </trkpt>
      <trkpt lat="42.77837" lon="-0.13151">
        <ele>2761.0434570312</ele>
        <time>2015-09-09T12:37:34Z</time>
      </trkpt>
      <trkpt lat="42.77833" lon="-0.13157">
        <ele>2764.408203125</ele>
        <time>2015-09-09T12:37:45Z</time>
      </trkpt>
      <trkpt lat="42.77826" lon="-0.13152">
        <ele>2766.3305664062</ele>
        <time>2015-09-09T12:38:02Z</time>
      </trkpt>
      <trkpt lat="42.77819" lon="-0.13148">
        <ele>2767.2919921875</ele>
        <time>2015-09-09T12:38:18Z</time>
      </trkpt>
      <trkpt lat="42.77813" lon="-0.1315">
        <ele>2770.1762695312</ele>
        <time>2015-09-09T12:38:31Z</time>
      </trkpt>
      <trkpt lat="42.77809" lon="-0.13153">
        <ele>2773.060546875</ele>
        <time>2015-09-09T12:38:43Z</time>
      </trkpt>
      <trkpt lat="42.77804" lon="-0.13153">
        <ele>2776.4248046875</ele>
        <time>2015-09-09T12:38:55Z</time>
      </trkpt>
      <trkpt lat="42.778" lon="-0.13161">
        <ele>2777.3862304688</ele>
        <time>2015-09-09T12:39:10Z</time>
      </trkpt>
      <trkpt lat="42.778" lon="-0.13163">
        <ele>2779.3090820312</ele>
        <time>2015-09-09T12:39:13Z</time>
      </trkpt>
      <trkpt lat="42.778" lon="-0.13167">
        <ele>2780.2700195312</ele>
        <time>2015-09-09T12:39:18Z</time>
      </trkpt>
      <trkpt lat="42.77794" lon="-0.13166">
        <ele>2782.6733398438</ele>
        <time>2015-09-09T12:39:34Z</time>
      </trkpt>
      <trkpt lat="42.77791" lon="-0.13173">
        <ele>2786.9995117188</ele>
        <time>2015-09-09T12:39:50Z</time>
      </trkpt>
      <trkpt lat="42.77789" lon="-0.13181">
        <ele>2789.40234375</ele>
        <time>2015-09-09T12:40:07Z</time>
      </trkpt>
      <trkpt lat="42.77784" lon="-0.13181">
        <ele>2791.8056640625</ele>
        <time>2015-09-09T12:40:21Z</time>
      </trkpt>
      <trkpt lat="42.77779" lon="-0.13181">
        <ele>2794.6899414062</ele>
        <time>2015-09-09T12:40:35Z</time>
      </trkpt>
      <trkpt lat="42.77771" lon="-0.13179">
        <ele>2796.6123046875</ele>
        <time>2015-09-09T12:40:53Z</time>
      </trkpt>
      <trkpt lat="42.77769" lon="-0.13188">
        <ele>2799.49609375</ele>
        <time>2015-09-09T12:41:09Z</time>
      </trkpt>
      <trkpt lat="42.77768" lon="-0.13193">
        <ele>2801.4189453125</ele>
        <time>2015-09-09T12:41:22Z</time>
      </trkpt>
      <trkpt lat="42.77762" lon="-0.13186">
        <ele>2801.4189453125</ele>
        <time>2015-09-09T12:41:39Z</time>
      </trkpt>
      <trkpt lat="42.77755" lon="-0.13185">
        <ele>2804.7836914062</ele>
        <time>2015-09-09T12:41:55Z</time>
      </trkpt>
      <trkpt lat="42.77751" lon="-0.13189">
        <ele>2807.1870117188</ele>
        <time>2015-09-09T12:42:07Z</time>
      </trkpt>
      <trkpt lat="42.77745" lon="-0.13189">
        <ele>2811.0322265625</ele>
        <time>2015-09-09T12:42:23Z</time>
      </trkpt>
      <trkpt lat="42.77744" lon="-0.13199">
        <ele>2812.4741210938</ele>
        <time>2015-09-09T12:42:39Z</time>
      </trkpt>
      <trkpt lat="42.77742" lon="-0.13205">
        <ele>2813.435546875</ele>
        <time>2015-09-09T12:42:52Z</time>
      </trkpt>
      <trkpt lat="42.77737" lon="-0.13206">
        <ele>2816.8002929688</ele>
        <time>2015-09-09T12:43:03Z</time>
      </trkpt>
      <trkpt lat="42.77734" lon="-0.13205">
        <ele>2818.2421875</ele>
        <time>2015-09-09T12:43:14Z</time>
      </trkpt>
      <trkpt lat="42.77731" lon="-0.13209">
        <ele>2821.1259765625</ele>
        <time>2015-09-09T12:43:28Z</time>
      </trkpt>
      <trkpt lat="42.77728" lon="-0.13216">
        <ele>2824.4907226562</ele>
        <time>2015-09-09T12:43:43Z</time>
      </trkpt>
      <trkpt lat="42.7772" lon="-0.13216">
        <ele>2826.8940429688</ele>
        <time>2015-09-09T12:43:58Z</time>
      </trkpt>
      <trkpt lat="42.77717" lon="-0.13222">
        <ele>2830.7392578125</ele>
        <time>2015-09-09T12:44:10Z</time>
      </trkpt>
      <trkpt lat="42.77717" lon="-0.13223">
        <ele>2830.7392578125</ele>
        <time>2015-09-09T12:44:11Z</time>
      </trkpt>
      <trkpt lat="42.77712" lon="-0.13224">
        <ele>2833.142578125</ele>
        <time>2015-09-09T12:44:29Z</time>
      </trkpt>
      <trkpt lat="42.77704" lon="-0.13218">
        <ele>2835.5454101562</ele>
        <time>2015-09-09T12:44:49Z</time>
      </trkpt>
      <trkpt lat="42.777" lon="-0.13228">
        <ele>2837.94921875</ele>
        <time>2015-09-09T12:45:05Z</time>
      </trkpt>
      <trkpt lat="42.77696" lon="-0.1323">
        <ele>2839.8720703125</ele>
        <time>2015-09-09T12:45:23Z</time>
      </trkpt>
      <trkpt lat="42.77693" lon="-0.13232">
        <ele>2842.755859375</ele>
        <time>2015-09-09T12:45:35Z</time>
      </trkpt>
      <trkpt lat="42.77688" lon="-0.13232">
        <ele>2845.1591796875</ele>
        <time>2015-09-09T12:45:50Z</time>
      </trkpt>
      <trkpt lat="42.77684" lon="-0.13234">
        <ele>2847.08203125</ele>
        <time>2015-09-09T12:46:06Z</time>
      </trkpt>
      <trkpt lat="42.77681" lon="-0.13234">
        <ele>2850.4462890625</ele>
        <time>2015-09-09T12:46:20Z</time>
      </trkpt>
      <trkpt lat="42.77677" lon="-0.13239">
        <ele>2853.330078125</ele>
        <time>2015-09-09T12:46:36Z</time>
      </trkpt>
      <trkpt lat="42.77674" lon="-0.13241">
        <ele>2855.2529296875</ele>
        <time>2015-09-09T12:46:44Z</time>
      </trkpt>
      <trkpt lat="42.77669" lon="-0.13238">
        <ele>2858.6171875</ele>
        <time>2015-09-09T12:46:56Z</time>
      </trkpt>
      <trkpt lat="42.77664" lon="-0.13238">
        <ele>2860.5400390625</ele>
        <time>2015-09-09T12:47:12Z</time>
      </trkpt>
      <trkpt lat="42.77659" lon="-0.13238">
        <ele>2863.9047851562</ele>
        <time>2015-09-09T12:47:29Z</time>
      </trkpt>
      <trkpt lat="42.77657" lon="-0.13236">
        <ele>2864.3852539062</ele>
        <time>2015-09-09T12:47:35Z</time>
      </trkpt>
      <trkpt lat="42.77653" lon="-0.1324">
        <ele>2867.75</ele>
        <time>2015-09-09T12:47:51Z</time>
      </trkpt>
      <trkpt lat="42.77649" lon="-0.13235">
        <ele>2869.6728515625</ele>
        <time>2015-09-09T12:48:06Z</time>
      </trkpt>
      <trkpt lat="42.77645" lon="-0.13241">
        <ele>2871.595703125</ele>
        <time>2015-09-09T12:48:21Z</time>
      </trkpt>
      <trkpt lat="42.7764" lon="-0.13247">
        <ele>2873.9985351562</ele>
        <time>2015-09-09T12:48:36Z</time>
      </trkpt>
      <trkpt lat="42.77636" lon="-0.13243">
        <ele>2876.8828125</ele>
        <time>2015-09-09T12:48:46Z</time>
      </trkpt>
      <trkpt lat="42.77632" lon="-0.13242">
        <ele>2878.8051757812</ele>
        <time>2015-09-09T12:48:57Z</time>
      </trkpt>
      <trkpt lat="42.77628" lon="-0.13246">
        <ele>2882.169921875</ele>
        <time>2015-09-09T12:49:14Z</time>
      </trkpt>
      <trkpt lat="42.77624" lon="-0.13252">
        <ele>2884.0922851562</ele>
        <time>2015-09-09T12:49:30Z</time>
      </trkpt>
      <trkpt lat="42.77621" lon="-0.13251">
        <ele>2887.45703125</ele>
        <time>2015-09-09T12:49:39Z</time>
      </trkpt>
      <trkpt lat="42.77613" lon="-0.13246">
        <ele>2889.8603515625</ele>
        <time>2015-09-09T12:49:58Z</time>
      </trkpt>
      <trkpt lat="42.77606" lon="-0.13247">
        <ele>2892.263671875</ele>
        <time>2015-09-09T12:50:11Z</time>
      </trkpt>
      <trkpt lat="42.776" lon="-0.13239">
        <ele>2894.1860351562</ele>
        <time>2015-09-09T12:50:25Z</time>
      </trkpt>
      <trkpt lat="42.77591" lon="-0.13232">
        <ele>2897.0698242188</ele>
        <time>2015-09-09T12:50:41Z</time>
      </trkpt>
      <trkpt lat="42.77584" lon="-0.13231">
        <ele>2899.4731445312</ele>
        <time>2015-09-09T12:50:55Z</time>
      </trkpt>
      <trkpt lat="42.77581" lon="-0.1324">
        <ele>2902.3579101562</ele>
        <time>2015-09-09T12:51:08Z</time>
      </trkpt>
      <trkpt lat="42.77571" lon="-0.13231">
        <ele>2904.7607421875</ele>
        <time>2015-09-09T12:51:28Z</time>
      </trkpt>
      <trkpt lat="42.77566" lon="-0.13235">
        <ele>2907.1640625</ele>
        <time>2015-09-09T12:51:45Z</time>
      </trkpt>
      <trkpt lat="42.77562" lon="-0.13248">
        <ele>2910.5288085938</ele>
        <time>2015-09-09T12:52:03Z</time>
      </trkpt>
      <trkpt lat="42.77561" lon="-0.13262">
        <ele>2913.4125976562</ele>
        <time>2015-09-09T12:52:18Z</time>
      </trkpt>
      <trkpt lat="42.77566" lon="-0.13274">
        <ele>2916.296875</ele>
        <time>2015-09-09T12:52:35Z</time>
      </trkpt>
      <trkpt lat="42.77568" lon="-0.13285">
        <ele>2919.6611328125</ele>
        <time>2015-09-09T12:52:50Z</time>
      </trkpt>
      <trkpt lat="42.77566" lon="-0.13289">
        <ele>2922.064453125</ele>
        <time>2015-09-09T12:53:09Z</time>
      </trkpt>
      <trkpt lat="42.77559" lon="-0.13289">
        <ele>2923.9873046875</ele>
        <time>2015-09-09T12:53:26Z</time>
      </trkpt>
      <trkpt lat="42.77558" lon="-0.13293">
        <ele>2924.9482421875</ele>
        <time>2015-09-09T12:54:00Z</time>
      </trkpt>
      <trkpt lat="42.77552" lon="-0.13289">
        <ele>2928.3129882812</ele>
        <time>2015-09-09T12:54:11Z</time>
      </trkpt>
      <trkpt lat="42.77552" lon="-0.13288">
        <ele>2927.83203125</ele>
        <time>2015-09-09T12:54:12Z</time>
      </trkpt>
      <trkpt lat="42.77546" lon="-0.13282">
        <ele>2931.1967773438</ele>
        <time>2015-09-09T12:54:22Z</time>
      </trkpt>
      <trkpt lat="42.77539" lon="-0.13284">
        <ele>2933.6005859375</ele>
        <time>2015-09-09T12:54:40Z</time>
      </trkpt>
      <trkpt lat="42.77541" lon="-0.13294">
        <ele>2935.5229492188</ele>
        <time>2015-09-09T12:54:58Z</time>
      </trkpt>
      <trkpt lat="42.7754" lon="-0.13297">
        <ele>2938.8876953125</ele>
        <time>2015-09-09T12:55:07Z</time>
      </trkpt>
      <trkpt lat="42.77542" lon="-0.13305">
        <ele>2939.3686523438</ele>
        <time>2015-09-09T12:55:24Z</time>
      </trkpt>
      <trkpt lat="42.77543" lon="-0.13307">
        <ele>2941.771484375</ele>
        <time>2015-09-09T12:55:29Z</time>
      </trkpt>
      <trkpt lat="42.77538" lon="-0.13308">
        <ele>2942.7329101562</ele>
        <time>2015-09-09T12:55:44Z</time>
      </trkpt>
      <trkpt lat="42.77533" lon="-0.13309">
        <ele>2945.1362304688</ele>
        <time>2015-09-09T12:56:00Z</time>
      </trkpt>
      <trkpt lat="42.77531" lon="-0.13316">
        <ele>2948.5009765625</ele>
        <time>2015-09-09T12:56:15Z</time>
      </trkpt>
      <trkpt lat="42.77529" lon="-0.13318">
        <ele>2949.9428710938</ele>
        <time>2015-09-09T12:56:30Z</time>
      </trkpt>
      <trkpt lat="42.77523" lon="-0.13318">
        <ele>2951.384765625</ele>
        <time>2015-09-09T12:56:45Z</time>
      </trkpt>
      <trkpt lat="42.77524" lon="-0.13325">
        <ele>2953.7880859375</ele>
        <time>2015-09-09T12:57:07Z</time>
      </trkpt>
      <trkpt lat="42.77521" lon="-0.13327">
        <ele>2956.671875</ele>
        <time>2015-09-09T12:57:15Z</time>
      </trkpt>
      <trkpt lat="42.77519" lon="-0.13329">
        <ele>2958.1137695312</ele>
        <time>2015-09-09T12:57:29Z</time>
      </trkpt>
      <trkpt lat="42.77517" lon="-0.13333">
        <ele>2960.0366210938</ele>
        <time>2015-09-09T12:57:50Z</time>
      </trkpt>
      <trkpt lat="42.77518" lon="-0.13341">
        <ele>2962.9204101562</ele>
        <time>2015-09-09T12:58:07Z</time>
      </trkpt>
      <trkpt lat="42.77522" lon="-0.13349">
        <ele>2965.8046875</ele>
        <time>2015-09-09T12:58:23Z</time>
      </trkpt>
      <trkpt lat="42.77525" lon="-0.13357">
        <ele>2968.6884765625</ele>
        <time>2015-09-09T12:58:37Z</time>
      </trkpt>
      <trkpt lat="42.77528" lon="-0.13363">
        <ele>2970.130859375</ele>
        <time>2015-09-09T12:58:53Z</time>
      </trkpt>
      <trkpt lat="42.77529" lon="-0.13363">
        <ele>2971.091796875</ele>
        <time>2015-09-09T12:58:55Z</time>
      </trkpt>
      <trkpt lat="42.77527" lon="-0.13367">
        <ele>2973.9755859375</ele>
        <time>2015-09-09T12:59:10Z</time>
      </trkpt>
      <trkpt lat="42.7753" lon="-0.13378">
        <ele>2976.8598632812</ele>
        <time>2015-09-09T12:59:29Z</time>
      </trkpt>
      <trkpt lat="42.77526" lon="-0.1338">
        <ele>2977.8212890625</ele>
        <time>2015-09-09T12:59:43Z</time>
      </trkpt>
      <trkpt lat="42.77526" lon="-0.13385">
        <ele>2981.185546875</ele>
        <time>2015-09-09T12:59:55Z</time>
      </trkpt>
      <trkpt lat="42.77523" lon="-0.13389">
        <ele>2983.5888671875</ele>
        <time>2015-09-09T13:00:08Z</time>
      </trkpt>
      <trkpt lat="42.77516" lon="-0.13388">
        <ele>2985.51171875</ele>
        <time>2015-09-09T13:00:27Z</time>
      </trkpt>
      <trkpt lat="42.77517" lon="-0.13394">
        <ele>2987.9145507812</ele>
        <time>2015-09-09T13:00:46Z</time>
      </trkpt>
      <trkpt lat="42.77518" lon="-0.13401">
        <ele>2988.8759765625</ele>
        <time>2015-09-09T13:01:04Z</time>
      </trkpt>
      <trkpt lat="42.7752" lon="-0.13409">
        <ele>2991.759765625</ele>
        <time>2015-09-09T13:01:20Z</time>
      </trkpt>
      <trkpt lat="42.77518" lon="-0.13414">
        <ele>2993.2021484375</ele>
        <time>2015-09-09T13:01:36Z</time>
      </trkpt>
      <trkpt lat="42.77518" lon="-0.13414">
        <ele>2994.1630859375</ele>
        <time>2015-09-09T13:01:38Z</time>
      </trkpt>
      <trkpt lat="42.77517" lon="-0.13419">
        <ele>2996.0864257812</ele>
        <time>2015-09-09T13:01:54Z</time>
      </trkpt>
      <trkpt lat="42.77519" lon="-0.13428">
        <ele>2996.5668945312</ele>
        <time>2015-09-09T13:02:07Z</time>
      </trkpt>
      <trkpt lat="42.77521" lon="-0.13434">
        <ele>2999.4506835938</ele>
        <time>2015-09-09T13:02:18Z</time>
      </trkpt>
      <trkpt lat="42.7752" lon="-0.13436">
        <ele>3000.412109375</ele>
        <time>2015-09-09T13:02:45Z</time>
      </trkpt>
      <trkpt lat="42.7752" lon="-0.1344">
        <ele>3003.7768554688</ele>
        <time>2015-09-09T13:02:54Z</time>
      </trkpt>
      <trkpt lat="42.77518" lon="-0.1345">
        <ele>3005.69921875</ele>
        <time>2015-09-09T13:03:12Z</time>
      </trkpt>
      <trkpt lat="42.77518" lon="-0.13455">
        <ele>3007.6220703125</ele>
        <time>2015-09-09T13:03:20Z</time>
      </trkpt>
      <trkpt lat="42.77516" lon="-0.13456">
        <ele>3010.025390625</ele>
        <time>2015-09-09T13:03:39Z</time>
      </trkpt>
      <trkpt lat="42.77512" lon="-0.13453">
        <ele>3011.4672851562</ele>
        <time>2015-09-09T13:03:48Z</time>
      </trkpt>
      <trkpt lat="42.7751" lon="-0.13459">
        <ele>3013.3896484375</ele>
        <time>2015-09-09T13:04:04Z</time>
      </trkpt>
      <trkpt lat="42.77502" lon="-0.1346">
        <ele>3015.79296875</ele>
        <time>2015-09-09T13:04:19Z</time>
      </trkpt>
      <trkpt lat="42.77498" lon="-0.13461">
        <ele>3019.1577148438</ele>
        <time>2015-09-09T13:04:37Z</time>
      </trkpt>
      <trkpt lat="42.77492" lon="-0.13463">
        <ele>3020.599609375</ele>
        <time>2015-09-09T13:04:53Z</time>
      </trkpt>
      <trkpt lat="42.77488" lon="-0.13471">
        <ele>3023.9643554688</ele>
        <time>2015-09-09T13:05:07Z</time>
      </trkpt>
      <trkpt lat="42.77487" lon="-0.13479">
        <ele>3025.40625</ele>
        <time>2015-09-09T13:05:21Z</time>
      </trkpt>
      <trkpt lat="42.77485" lon="-0.13485">
        <ele>3026.3671875</ele>
        <time>2015-09-09T13:05:36Z</time>
      </trkpt>
      <trkpt lat="42.77488" lon="-0.13487">
        <ele>3026.3671875</ele>
        <time>2015-09-09T13:05:56Z</time>
      </trkpt>
      <trkpt lat="42.77485" lon="-0.13484">
        <ele>3027.8090820312</ele>
        <time>2015-09-09T13:06:22Z</time>
      </trkpt>
      <trkpt lat="42.77484" lon="-0.13484">
        <ele>3027.3286132812</ele>
        <time>2015-09-09T13:07:08Z</time>
      </trkpt>
      <trkpt lat="42.77486" lon="-0.13484">
        <ele>3028.2905273438</ele>
        <time>2015-09-09T13:07:43Z</time>
      </trkpt>
      <trkpt lat="42.77483" lon="-0.13484">
        <ele>3028.2905273438</ele>
        <time>2015-09-09T13:08:08Z</time>
      </trkpt>
      <trkpt lat="42.77484" lon="-0.13484">
        <ele>3028.7709960938</ele>
        <time>2015-09-09T13:08:41Z</time>
      </trkpt>
      <trkpt lat="42.77484" lon="-0.13484">
        <ele>3029.251953125</ele>
        <time>2015-09-09T13:09:05Z</time>
      </trkpt>
      <trkpt lat="42.77484" lon="-0.13484">
        <ele>3027.3286132812</ele>
        <time>2015-09-09T13:09:19Z</time>
      </trkpt>
      <trkpt lat="42.77486" lon="-0.13485">
        <ele>3028.2905273438</ele>
        <time>2015-09-09T13:09:45Z</time>
      </trkpt>
      <trkpt lat="42.77486" lon="-0.13484">
        <ele>3027.3286132812</ele>
        <time>2015-09-09T13:10:11Z</time>
      </trkpt>
      <trkpt lat="42.77487" lon="-0.1348">
        <ele>3027.3286132812</ele>
        <time>2015-09-09T13:10:42Z</time>
      </trkpt>
      <trkpt lat="42.7749" lon="-0.13479">
        <ele>3024.4448242188</ele>
        <time>2015-09-09T13:10:57Z</time>
      </trkpt>
      <trkpt lat="42.77494" lon="-0.13475">
        <ele>3023.4833984375</ele>
        <time>2015-09-09T13:11:11Z</time>
      </trkpt>
      <trkpt lat="42.77494" lon="-0.13466">
        <ele>3021.080078125</ele>
        <time>2015-09-09T13:11:26Z</time>
      </trkpt>
      <trkpt lat="42.77495" lon="-0.13459">
        <ele>3020.599609375</ele>
        <time>2015-09-09T13:11:39Z</time>
      </trkpt>
      <trkpt lat="42.77496" lon="-0.13458">
        <ele>3019.6381835938</ele>
        <time>2015-09-09T13:11:53Z</time>
      </trkpt>
      <trkpt lat="42.77505" lon="-0.13462">
        <ele>3018.6767578125</ele>
        <time>2015-09-09T13:12:12Z</time>
      </trkpt>
      <trkpt lat="42.77508" lon="-0.13461">
        <ele>3016.7543945312</ele>
        <time>2015-09-09T13:12:27Z</time>
      </trkpt>
      <trkpt lat="42.77511" lon="-0.13459">
        <ele>3015.3125</ele>
        <time>2015-09-09T13:12:47Z</time>
      </trkpt>
      <trkpt lat="42.77511" lon="-0.13454">
        <ele>3014.8315429688</ele>
        <time>2015-09-09T13:13:07Z</time>
      </trkpt>
      <trkpt lat="42.77515" lon="-0.13458">
        <ele>3012.9091796875</ele>
        <time>2015-09-09T13:13:26Z</time>
      </trkpt>
      <trkpt lat="42.77518" lon="-0.13455">
        <ele>3012.4282226562</ele>
        <time>2015-09-09T13:13:42Z</time>
      </trkpt>
      <trkpt lat="42.77516" lon="-0.13448">
        <ele>3011.4672851562</ele>
        <time>2015-09-09T13:13:58Z</time>
      </trkpt>
      <trkpt lat="42.77518" lon="-0.13441">
        <ele>3008.5834960938</ele>
        <time>2015-09-09T13:14:14Z</time>
      </trkpt>
      <trkpt lat="42.77518" lon="-0.13437">
        <ele>3005.69921875</ele>
        <time>2015-09-09T13:14:28Z</time>
      </trkpt>
      <trkpt lat="42.77517" lon="-0.13433">
        <ele>3004.7377929688</ele>
        <time>2015-09-09T13:14:54Z</time>
      </trkpt>
      <trkpt lat="42.77515" lon="-0.13427">
        <ele>3002.8154296875</ele>
        <time>2015-09-09T13:15:08Z</time>
      </trkpt>
      <trkpt lat="42.77516" lon="-0.13421">
        <ele>3000.412109375</ele>
        <time>2015-09-09T13:15:23Z</time>
      </trkpt>
      <trkpt lat="42.77517" lon="-0.13415">
        <ele>2998.4897460938</ele>
        <time>2015-09-09T13:15:40Z</time>
      </trkpt>
      <trkpt lat="42.77519" lon="-0.13413">
        <ele>2996.0864257812</ele>
        <time>2015-09-09T13:15:49Z</time>
      </trkpt>
      <trkpt lat="42.77518" lon="-0.13406">
        <ele>2995.1245117188</ele>
        <time>2015-09-09T13:16:05Z</time>
      </trkpt>
      <trkpt lat="42.77513" lon="-0.13397">
        <ele>2994.6440429688</ele>
        <time>2015-09-09T13:16:20Z</time>
      </trkpt>
      <trkpt lat="42.77511" lon="-0.13389">
        <ele>2991.759765625</ele>
        <time>2015-09-09T13:16:32Z</time>
      </trkpt>
      <trkpt lat="42.77513" lon="-0.13388">
        <ele>2989.8374023438</ele>
        <time>2015-09-09T13:16:37Z</time>
      </trkpt>
      <trkpt lat="42.77515" lon="-0.13387">
        <ele>2987.9145507812</ele>
        <time>2015-09-09T13:16:51Z</time>
      </trkpt>
      <trkpt lat="42.77523" lon="-0.1339">
        <ele>2985.0307617188</ele>
        <time>2015-09-09T13:17:08Z</time>
      </trkpt>
      <trkpt lat="42.77526" lon="-0.13386">
        <ele>2984.0693359375</ele>
        <time>2015-09-09T13:17:23Z</time>
      </trkpt>
      <trkpt lat="42.77527" lon="-0.1338">
        <ele>2981.185546875</ele>
        <time>2015-09-09T13:17:38Z</time>
      </trkpt>
      <trkpt lat="42.77533" lon="-0.13377">
        <ele>2978.7822265625</ele>
        <time>2015-09-09T13:17:53Z</time>
      </trkpt>
      <trkpt lat="42.77531" lon="-0.13368">
        <ele>2976.37890625</ele>
        <time>2015-09-09T13:18:10Z</time>
      </trkpt>
      <trkpt lat="42.77526" lon="-0.1336">
        <ele>2973.4951171875</ele>
        <time>2015-09-09T13:18:28Z</time>
      </trkpt>
      <trkpt lat="42.77523" lon="-0.13351">
        <ele>2971.091796875</ele>
        <time>2015-09-09T13:18:45Z</time>
      </trkpt>
      <trkpt lat="42.77519" lon="-0.13343">
        <ele>2968.6884765625</ele>
        <time>2015-09-09T13:19:02Z</time>
      </trkpt>
      <trkpt lat="42.77518" lon="-0.13339">
        <ele>2967.2465820312</ele>
        <time>2015-09-09T13:19:09Z</time>
      </trkpt>
      <trkpt lat="42.77522" lon="-0.13333">
        <ele>2963.4008789062</ele>
        <time>2015-09-09T13:19:24Z</time>
      </trkpt>
      <trkpt lat="42.77521" lon="-0.13327">
        <ele>2961.478515625</ele>
        <time>2015-09-09T13:19:38Z</time>
      </trkpt>
      <trkpt lat="42.77522" lon="-0.13327">
        <ele>2959.5556640625</ele>
        <time>2015-09-09T13:19:43Z</time>
      </trkpt>
      <trkpt lat="42.77523" lon="-0.13316">
        <ele>2957.6333007812</ele>
        <time>2015-09-09T13:19:58Z</time>
      </trkpt>
      <trkpt lat="42.7753" lon="-0.13317">
        <ele>2955.2299804688</ele>
        <time>2015-09-09T13:20:13Z</time>
      </trkpt>
      <trkpt lat="42.77531" lon="-0.13309">
        <ele>2951.384765625</ele>
        <time>2015-09-09T13:20:27Z</time>
      </trkpt>
      <trkpt lat="42.77531" lon="-0.13309">
        <ele>2951.865234375</ele>
        <time>2015-09-09T13:20:28Z</time>
      </trkpt>
      <trkpt lat="42.77528" lon="-0.133">
        <ele>2948.5009765625</ele>
        <time>2015-09-09T13:20:42Z</time>
      </trkpt>
      <trkpt lat="42.77531" lon="-0.13299">
        <ele>2947.0590820312</ele>
        <time>2015-09-09T13:20:56Z</time>
      </trkpt>
      <trkpt lat="42.77533" lon="-0.13297">
        <ele>2945.1362304688</ele>
        <time>2015-09-09T13:21:09Z</time>
      </trkpt>
      <trkpt lat="42.77534" lon="-0.13293">
        <ele>2942.2524414062</ele>
        <time>2015-09-09T13:21:30Z</time>
      </trkpt>
      <trkpt lat="42.77534" lon="-0.13293">
        <ele>2942.2524414062</ele>
        <time>2015-09-09T13:21:31Z</time>
      </trkpt>
      <trkpt lat="42.77536" lon="-0.13288">
        <ele>2940.810546875</ele>
        <time>2015-09-09T13:21:44Z</time>
      </trkpt>
      <trkpt lat="42.77537" lon="-0.13281">
        <ele>2940.3295898438</ele>
        <time>2015-09-09T13:21:58Z</time>
      </trkpt>
      <trkpt lat="42.77537" lon="-0.13277">
        <ele>2938.4072265625</ele>
        <time>2015-09-09T13:22:11Z</time>
      </trkpt>
      <trkpt lat="42.7754" lon="-0.13273">
        <ele>2935.0424804688</ele>
        <time>2015-09-09T13:22:19Z</time>
      </trkpt>
      <trkpt lat="42.7754" lon="-0.13266">
        <ele>2932.6391601562</ele>
        <time>2015-09-09T13:22:34Z</time>
      </trkpt>
      <trkpt lat="42.7754" lon="-0.13261">
        <ele>2931.1967773438</ele>
        <time>2015-09-09T13:22:44Z</time>
      </trkpt>
      <trkpt lat="42.77542" lon="-0.13251">
        <ele>2927.3515625</ele>
        <time>2015-09-09T13:23:00Z</time>
      </trkpt>
      <trkpt lat="42.77548" lon="-0.13256">
        <ele>2925.9096679688</ele>
        <time>2015-09-09T13:23:13Z</time>
      </trkpt>
      <trkpt lat="42.77555" lon="-0.13257">
        <ele>2922.544921875</ele>
        <time>2015-09-09T13:23:24Z</time>
      </trkpt>
      <trkpt lat="42.77562" lon="-0.1326">
        <ele>2919.6611328125</ele>
        <time>2015-09-09T13:23:32Z</time>
      </trkpt>
      <trkpt lat="42.77562" lon="-0.1326">
        <ele>2919.6611328125</ele>
        <time>2015-09-09T13:23:33Z</time>
      </trkpt>
      <trkpt lat="42.77563" lon="-0.13246">
        <ele>2917.2578125</ele>
        <time>2015-09-09T13:23:46Z</time>
      </trkpt>
      <trkpt lat="42.77565" lon="-0.13241">
        <ele>2915.8159179688</ele>
        <time>2015-09-09T13:23:51Z</time>
      </trkpt>
      <trkpt lat="42.77567" lon="-0.13228">
        <ele>2914.3740234375</ele>
        <time>2015-09-09T13:24:05Z</time>
      </trkpt>
      <trkpt lat="42.77577" lon="-0.13233">
        <ele>2911.970703125</ele>
        <time>2015-09-09T13:24:19Z</time>
      </trkpt>
      <trkpt lat="42.77583" lon="-0.13236">
        <ele>2909.5673828125</ele>
        <time>2015-09-09T13:24:32Z</time>
      </trkpt>
      <trkpt lat="42.77586" lon="-0.13229">
        <ele>2906.203125</ele>
        <time>2015-09-09T13:24:41Z</time>
      </trkpt>
      <trkpt lat="42.77586" lon="-0.1323">
        <ele>2905.7221679688</ele>
        <time>2015-09-09T13:24:42Z</time>
      </trkpt>
      <trkpt lat="42.77595" lon="-0.13235">
        <ele>2903.3188476562</ele>
        <time>2015-09-09T13:24:56Z</time>
      </trkpt>
      <trkpt lat="42.77604" lon="-0.13243">
        <ele>2899.9541015625</ele>
        <time>2015-09-09T13:25:09Z</time>
      </trkpt>
      <trkpt lat="42.77611" lon="-0.13247">
        <ele>2896.5893554688</ele>
        <time>2015-09-09T13:25:22Z</time>
      </trkpt>
      <trkpt lat="42.77618" lon="-0.13251">
        <ele>2893.2250976562</ele>
        <time>2015-09-09T13:25:35Z</time>
      </trkpt>
      <trkpt lat="42.77625" lon="-0.13251">
        <ele>2890.3408203125</ele>
        <time>2015-09-09T13:25:53Z</time>
      </trkpt>
      <trkpt lat="42.77625" lon="-0.13248">
        <ele>2889.8603515625</ele>
        <time>2015-09-09T13:25:56Z</time>
      </trkpt>
      <trkpt lat="42.77627" lon="-0.13247">
        <ele>2888.4184570312</ele>
        <time>2015-09-09T13:26:09Z</time>
      </trkpt>
      <trkpt lat="42.77629" lon="-0.13242">
        <ele>2886.9765625</ele>
        <time>2015-09-09T13:26:23Z</time>
      </trkpt>
      <trkpt lat="42.77636" lon="-0.13244">
        <ele>2884.5732421875</ele>
        <time>2015-09-09T13:26:35Z</time>
      </trkpt>
      <trkpt lat="42.77642" lon="-0.13247">
        <ele>2881.2084960938</ele>
        <time>2015-09-09T13:26:50Z</time>
      </trkpt>
      <trkpt lat="42.77646" lon="-0.13242">
        <ele>2878.3247070312</ele>
        <time>2015-09-09T13:27:02Z</time>
      </trkpt>
      <trkpt lat="42.77646" lon="-0.13239">
        <ele>2877.8442382812</ele>
        <time>2015-09-09T13:27:23Z</time>
      </trkpt>
      <trkpt lat="42.77647" lon="-0.13236">
        <ele>2877.36328125</ele>
        <time>2015-09-09T13:28:15Z</time>
      </trkpt>
      <trkpt lat="42.77652" lon="-0.1324">
        <ele>2875.4409179688</ele>
        <time>2015-09-09T13:28:30Z</time>
      </trkpt>
      <trkpt lat="42.77654" lon="-0.13237">
        <ele>2873.5180664062</ele>
        <time>2015-09-09T13:28:35Z</time>
      </trkpt>
      <trkpt lat="42.77658" lon="-0.13239">
        <ele>2871.1147460938</ele>
        <time>2015-09-09T13:28:48Z</time>
      </trkpt>
      <trkpt lat="42.77661" lon="-0.13236">
        <ele>2868.2309570312</ele>
        <time>2015-09-09T13:28:56Z</time>
      </trkpt>
      <trkpt lat="42.77666" lon="-0.13237">
        <ele>2865.3466796875</ele>
        <time>2015-09-09T13:29:08Z</time>
      </trkpt>
      <trkpt lat="42.77672" lon="-0.13242">
        <ele>2862.943359375</ele>
        <time>2015-09-09T13:29:20Z</time>
      </trkpt>
      <trkpt lat="42.77675" lon="-0.13239">
        <ele>2861.0205078125</ele>
        <time>2015-09-09T13:29:35Z</time>
      </trkpt>
      <trkpt lat="42.77679" lon="-0.13238">
        <ele>2859.5786132812</ele>
        <time>2015-09-09T13:29:49Z</time>
      </trkpt>
      <trkpt lat="42.77681" lon="-0.13235">
        <ele>2855.7333984375</ele>
        <time>2015-09-09T13:30:01Z</time>
      </trkpt>
      <trkpt lat="42.77686" lon="-0.13232">
        <ele>2854.2915039062</ele>
        <time>2015-09-09T13:30:18Z</time>
      </trkpt>
      <trkpt lat="42.7769" lon="-0.13234">
        <ele>2851.4077148438</ele>
        <time>2015-09-09T13:30:32Z</time>
      </trkpt>
      <trkpt lat="42.77695" lon="-0.13232">
        <ele>2849.0043945312</ele>
        <time>2015-09-09T13:30:48Z</time>
      </trkpt>
      <trkpt lat="42.777" lon="-0.13224">
        <ele>2847.08203125</ele>
        <time>2015-09-09T13:31:06Z</time>
      </trkpt>
      <trkpt lat="42.77701" lon="-0.13221">
        <ele>2844.6787109375</ele>
        <time>2015-09-09T13:31:11Z</time>
      </trkpt>
      <trkpt lat="42.77704" lon="-0.13219">
        <ele>2842.275390625</ele>
        <time>2015-09-09T13:31:20Z</time>
      </trkpt>
      <trkpt lat="42.77711" lon="-0.13223">
        <ele>2840.3525390625</ele>
        <time>2015-09-09T13:31:35Z</time>
      </trkpt>
      <trkpt lat="42.77717" lon="-0.13224">
        <ele>2837.94921875</ele>
        <time>2015-09-09T13:31:48Z</time>
      </trkpt>
      <trkpt lat="42.77718" lon="-0.13216">
        <ele>2834.103515625</ele>
        <time>2015-09-09T13:32:00Z</time>
      </trkpt>
      <trkpt lat="42.77725" lon="-0.13216">
        <ele>2833.623046875</ele>
        <time>2015-09-09T13:32:13Z</time>
      </trkpt>
      <trkpt lat="42.77727" lon="-0.13209">
        <ele>2832.1811523438</ele>
        <time>2015-09-09T13:32:27Z</time>
      </trkpt>
      <trkpt lat="42.77732" lon="-0.13206">
        <ele>2829.7778320312</ele>
        <time>2015-09-09T13:32:42Z</time>
      </trkpt>
      <trkpt lat="42.77736" lon="-0.13203">
        <ele>2826.4130859375</ele>
        <time>2015-09-09T13:32:55Z</time>
      </trkpt>
      <trkpt lat="42.77738" lon="-0.13201">
        <ele>2822.5678710938</ele>
        <time>2015-09-09T13:33:08Z</time>
      </trkpt>
      <trkpt lat="42.77737" lon="-0.13196">
        <ele>2821.1259765625</ele>
        <time>2015-09-09T13:33:22Z</time>
      </trkpt>
      <trkpt lat="42.77737" lon="-0.13191">
        <ele>2818.2421875</ele>
        <time>2015-09-09T13:33:36Z</time>
      </trkpt>
      <trkpt lat="42.77739" lon="-0.13186">
        <ele>2814.8774414062</ele>
        <time>2015-09-09T13:33:51Z</time>
      </trkpt>
      <trkpt lat="42.77738" lon="-0.13174">
        <ele>2814.3969726562</ele>
        <time>2015-09-09T13:34:05Z</time>
      </trkpt>
      <trkpt lat="42.77744" lon="-0.13175">
        <ele>2811.9936523438</ele>
        <time>2015-09-09T13:34:15Z</time>
      </trkpt>
      <trkpt lat="42.77745" lon="-0.13168">
        <ele>2810.0712890625</ele>
        <time>2015-09-09T13:34:22Z</time>
      </trkpt>
      <trkpt lat="42.77753" lon="-0.13165">
        <ele>2806.2260742188</ele>
        <time>2015-09-09T13:34:35Z</time>
      </trkpt>
      <trkpt lat="42.77761" lon="-0.13167">
        <ele>2803.822265625</ele>
        <time>2015-09-09T13:34:50Z</time>
      </trkpt>
      <trkpt lat="42.77767" lon="-0.13165">
        <ele>2801.4189453125</ele>
        <time>2015-09-09T13:35:06Z</time>
      </trkpt>
      <trkpt lat="42.77772" lon="-0.13163">
        <ele>2799.015625</ele>
        <time>2015-09-09T13:35:22Z</time>
      </trkpt>
      <trkpt lat="42.77779" lon="-0.13164">
        <ele>2796.6123046875</ele>
        <time>2015-09-09T13:35:37Z</time>
      </trkpt>
      <trkpt lat="42.77786" lon="-0.13164">
        <ele>2793.248046875</ele>
        <time>2015-09-09T13:35:46Z</time>
      </trkpt>
      <trkpt lat="42.77786" lon="-0.13165">
        <ele>2793.248046875</ele>
        <time>2015-09-09T13:35:47Z</time>
      </trkpt>
      <trkpt lat="42.77792" lon="-0.13166">
        <ele>2789.8833007812</ele>
        <time>2015-09-09T13:35:57Z</time>
      </trkpt>
      <trkpt lat="42.778" lon="-0.13166">
        <ele>2786.5185546875</ele>
        <time>2015-09-09T13:36:15Z</time>
      </trkpt>
      <trkpt lat="42.778" lon="-0.13159">
        <ele>2784.5961914062</ele>
        <time>2015-09-09T13:36:24Z</time>
      </trkpt>
      <trkpt lat="42.77805" lon="-0.13155">
        <ele>2782.6733398438</ele>
        <time>2015-09-09T13:36:38Z</time>
      </trkpt>
      <trkpt lat="42.77813" lon="-0.13156">
        <ele>2779.7895507812</ele>
        <time>2015-09-09T13:36:52Z</time>
      </trkpt>
      <trkpt lat="42.77818" lon="-0.13149">
        <ele>2775.9443359375</ele>
        <time>2015-09-09T13:37:05Z</time>
      </trkpt>
      <trkpt lat="42.77828" lon="-0.13152">
        <ele>2773.541015625</ele>
        <time>2015-09-09T13:37:20Z</time>
      </trkpt>
      <trkpt lat="42.77835" lon="-0.13157">
        <ele>2770.1762695312</ele>
        <time>2015-09-09T13:37:30Z</time>
      </trkpt>
      <trkpt lat="42.77836" lon="-0.13157">
        <ele>2770.6567382812</ele>
        <time>2015-09-09T13:37:31Z</time>
      </trkpt>
      <trkpt lat="42.77839" lon="-0.13152">
        <ele>2768.2534179688</ele>
        <time>2015-09-09T13:37:41Z</time>
      </trkpt>
      <trkpt lat="42.77846" lon="-0.13152">
        <ele>2764.888671875</ele>
        <time>2015-09-09T13:37:55Z</time>
      </trkpt>
      <trkpt lat="42.7785" lon="-0.13149">
        <ele>2762.4858398438</ele>
        <time>2015-09-09T13:38:01Z</time>
      </trkpt>
      <trkpt lat="42.77854" lon="-0.13146">
        <ele>2760.5629882812</ele>
        <time>2015-09-09T13:38:16Z</time>
      </trkpt>
      <trkpt lat="42.77853" lon="-0.13136">
        <ele>2758.1596679688</ele>
        <time>2015-09-09T13:38:28Z</time>
      </trkpt>
      <trkpt lat="42.77853" lon="-0.13133">
        <ele>2757.1982421875</ele>
        <time>2015-09-09T13:38:30Z</time>
      </trkpt>
      <trkpt lat="42.77858" lon="-0.13132">
        <ele>2755.7563476562</ele>
        <time>2015-09-09T13:38:38Z</time>
      </trkpt>
      <trkpt lat="42.77865" lon="-0.13133">
        <ele>2752.3920898438</ele>
        <time>2015-09-09T13:38:47Z</time>
      </trkpt>
      <trkpt lat="42.77866" lon="-0.13133">
        <ele>2752.3920898438</ele>
        <time>2015-09-09T13:38:48Z</time>
      </trkpt>
      <trkpt lat="42.77874" lon="-0.13137">
        <ele>2750.4692382812</ele>
        <time>2015-09-09T13:38:58Z</time>
      </trkpt>
      <trkpt lat="42.77876" lon="-0.13138">
        <ele>2749.9887695312</ele>
        <time>2015-09-09T13:39:01Z</time>
      </trkpt>
      <trkpt lat="42.77884" lon="-0.13142">
        <ele>2747.5854492188</ele>
        <time>2015-09-09T13:39:15Z</time>
      </trkpt>
      <trkpt lat="42.77883" lon="-0.13139">
        <ele>2747.5854492188</ele>
        <time>2015-09-09T13:39:32Z</time>
      </trkpt>
      <trkpt lat="42.77881" lon="-0.13139">
        <ele>2747.5854492188</ele>
        <time>2015-09-09T13:40:36Z</time>
      </trkpt>
      <trkpt lat="42.77882" lon="-0.13138">
        <ele>2745.1821289062</ele>
        <time>2015-09-09T13:41:04Z</time>
      </trkpt>
      <trkpt lat="42.77882" lon="-0.13137">
        <ele>2745.6625976562</ele>
        <time>2015-09-09T13:41:57Z</time>
      </trkpt>
      <trkpt lat="42.77882" lon="-0.13138">
        <ele>2747.5854492188</ele>
        <time>2015-09-09T13:42:25Z</time>
      </trkpt>
      <trkpt lat="42.7788" lon="-0.1314">
        <ele>2746.1435546875</ele>
        <time>2015-09-09T13:42:47Z</time>
      </trkpt>
      <trkpt lat="42.77883" lon="-0.13138">
        <ele>2746.6240234375</ele>
        <time>2015-09-09T13:43:05Z</time>
      </trkpt>
      <trkpt lat="42.77882" lon="-0.13139">
        <ele>2746.1435546875</ele>
        <time>2015-09-09T13:43:17Z</time>
      </trkpt>
      <trkpt lat="42.77884" lon="-0.13142">
        <ele>2748.0659179688</ele>
        <time>2015-09-09T13:44:00Z</time>
      </trkpt>
      <trkpt lat="42.77891" lon="-0.13143">
        <ele>2746.1435546875</ele>
        <time>2015-09-09T13:44:16Z</time>
      </trkpt>
      <trkpt lat="42.77897" lon="-0.13138">
        <ele>2744.220703125</ele>
        <time>2015-09-09T13:44:29Z</time>
      </trkpt>
      <trkpt lat="42.77898" lon="-0.13138">
        <ele>2744.220703125</ele>
        <time>2015-09-09T13:44:31Z</time>
      </trkpt>
      <trkpt lat="42.77916" lon="-0.13134">
        <ele>2742.2983398438</ele>
        <time>2015-09-09T13:44:49Z</time>
      </trkpt>
      <trkpt lat="42.77929" lon="-0.13131">
        <ele>2742.2983398438</ele>
        <time>2015-09-09T13:45:04Z</time>
      </trkpt>
      <trkpt lat="42.77933" lon="-0.13127">
        <ele>2742.7788085938</ele>
        <time>2015-09-09T13:45:11Z</time>
      </trkpt>
      <trkpt lat="42.77935" lon="-0.13116">
        <ele>2742.7788085938</ele>
        <time>2015-09-09T13:45:26Z</time>
      </trkpt>
      <trkpt lat="42.77941" lon="-0.13097">
        <ele>2743.2592773438</ele>
        <time>2015-09-09T13:45:41Z</time>
      </trkpt>
      <trkpt lat="42.77953" lon="-0.13079">
        <ele>2741.3369140625</ele>
        <time>2015-09-09T13:45:59Z</time>
      </trkpt>
      <trkpt lat="42.77967" lon="-0.13057">
        <ele>2741.3369140625</ele>
        <time>2015-09-09T13:46:19Z</time>
      </trkpt>
      <trkpt lat="42.7798" lon="-0.13036">
        <ele>2739.4140625</ele>
        <time>2015-09-09T13:46:38Z</time>
      </trkpt>
      <trkpt lat="42.77992" lon="-0.13008">
        <ele>2738.9331054688</ele>
        <time>2015-09-09T13:46:59Z</time>
      </trkpt>
      <trkpt lat="42.77999" lon="-0.1298">
        <ele>2737.0107421875</ele>
        <time>2015-09-09T13:47:19Z</time>
      </trkpt>
      <trkpt lat="42.78001" lon="-0.12962">
        <ele>2736.5297851562</ele>
        <time>2015-09-09T13:47:36Z</time>
      </trkpt>
      <trkpt lat="42.78002" lon="-0.1295">
        <ele>2732.2041015625</ele>
        <time>2015-09-09T13:47:46Z</time>
      </trkpt>
      <trkpt lat="42.78002" lon="-0.12949">
        <ele>2732.6845703125</ele>
        <time>2015-09-09T13:47:47Z</time>
      </trkpt>
      <trkpt lat="42.78004" lon="-0.12928">
        <ele>2730.7622070312</ele>
        <time>2015-09-09T13:48:06Z</time>
      </trkpt>
      <trkpt lat="42.78005" lon="-0.12909">
        <ele>2729.3203125</ele>
        <time>2015-09-09T13:48:23Z</time>
      </trkpt>
      <trkpt lat="42.78007" lon="-0.12892">
        <ele>2726.9169921875</ele>
        <time>2015-09-09T13:48:39Z</time>
      </trkpt>
      <trkpt lat="42.78005" lon="-0.12889">
        <ele>2724.994140625</ele>
        <time>2015-09-09T13:48:54Z</time>
      </trkpt>
      <trkpt lat="42.78" lon="-0.12899">
        <ele>2723.0717773438</ele>
        <time>2015-09-09T13:49:11Z</time>
      </trkpt>
      <trkpt lat="42.77999" lon="-0.12895">
        <ele>2719.70703125</ele>
        <time>2015-09-09T13:49:26Z</time>
      </trkpt>
      <trkpt lat="42.77999" lon="-0.12895">
        <ele>2719.70703125</ele>
        <time>2015-09-09T13:49:27Z</time>
      </trkpt>
      <trkpt lat="42.77999" lon="-0.12891">
        <ele>2718.2651367188</ele>
        <time>2015-09-09T13:49:30Z</time>
      </trkpt>
      <trkpt lat="42.77997" lon="-0.12877">
        <ele>2716.8232421875</ele>
        <time>2015-09-09T13:49:48Z</time>
      </trkpt>
      <trkpt lat="42.77996" lon="-0.12865">
        <ele>2716.3427734375</ele>
        <time>2015-09-09T13:50:03Z</time>
      </trkpt>
      <trkpt lat="42.77996" lon="-0.12854">
        <ele>2712.9780273438</ele>
        <time>2015-09-09T13:50:14Z</time>
      </trkpt>
      <trkpt lat="42.77999" lon="-0.12833">
        <ele>2710.0942382812</ele>
        <time>2015-09-09T13:50:32Z</time>
      </trkpt>
      <trkpt lat="42.78002" lon="-0.12813">
        <ele>2707.6904296875</ele>
        <time>2015-09-09T13:50:52Z</time>
      </trkpt>
      <trkpt lat="42.78004" lon="-0.12799">
        <ele>2706.2485351562</ele>
        <time>2015-09-09T13:51:09Z</time>
      </trkpt>
      <trkpt lat="42.78007" lon="-0.12782">
        <ele>2704.8061523438</ele>
        <time>2015-09-09T13:51:28Z</time>
      </trkpt>
      <trkpt lat="42.78009" lon="-0.12768">
        <ele>2701.4418945312</ele>
        <time>2015-09-09T13:51:44Z</time>
      </trkpt>
      <trkpt lat="42.78001" lon="-0.12773">
        <ele>2700.48046875</ele>
        <time>2015-09-09T13:51:58Z</time>
      </trkpt>
      <trkpt lat="42.7799" lon="-0.1278">
        <ele>2697.1157226562</ele>
        <time>2015-09-09T13:52:14Z</time>
      </trkpt>
      <trkpt lat="42.77983" lon="-0.12785">
        <ele>2695.673828125</ele>
        <time>2015-09-09T13:52:25Z</time>
      </trkpt>
      <trkpt lat="42.77977" lon="-0.12781">
        <ele>2694.2319335938</ele>
        <time>2015-09-09T13:52:42Z</time>
      </trkpt>
      <trkpt lat="42.77979" lon="-0.12766">
        <ele>2690.8676757812</ele>
        <time>2015-09-09T13:52:56Z</time>
      </trkpt>
      <trkpt lat="42.7798" lon="-0.12759">
        <ele>2690.8676757812</ele>
        <time>2015-09-09T13:53:11Z</time>
      </trkpt>
      <trkpt lat="42.77979" lon="-0.12757">
        <ele>2688.9448242188</ele>
        <time>2015-09-09T13:53:32Z</time>
      </trkpt>
      <trkpt lat="42.77982" lon="-0.12749">
        <ele>2686.5415039062</ele>
        <time>2015-09-09T13:53:43Z</time>
      </trkpt>
      <trkpt lat="42.77989" lon="-0.12734">
        <ele>2683.6577148438</ele>
        <time>2015-09-09T13:54:01Z</time>
      </trkpt>
      <trkpt lat="42.77995" lon="-0.12727">
        <ele>2680.7739257812</ele>
        <time>2015-09-09T13:54:11Z</time>
      </trkpt>
      <trkpt lat="42.77998" lon="-0.12719">
        <ele>2680.7739257812</ele>
        <time>2015-09-09T13:54:25Z</time>
      </trkpt>
      <trkpt lat="42.77999" lon="-0.12708">
        <ele>2678.3706054688</ele>
        <time>2015-09-09T13:54:41Z</time>
      </trkpt>
      <trkpt lat="42.77999" lon="-0.12696">
        <ele>2676.4477539062</ele>
        <time>2015-09-09T13:54:57Z</time>
      </trkpt>
      <trkpt lat="42.78" lon="-0.1268">
        <ele>2673.0830078125</ele>
        <time>2015-09-09T13:55:13Z</time>
      </trkpt>
      <trkpt lat="42.77994" lon="-0.12675">
        <ele>2671.16015625</ele>
        <time>2015-09-09T13:55:28Z</time>
      </trkpt>
      <trkpt lat="42.77985" lon="-0.12677">
        <ele>2668.2763671875</ele>
        <time>2015-09-09T13:55:40Z</time>
      </trkpt>
      <trkpt lat="42.77981" lon="-0.1268">
        <ele>2665.873046875</ele>
        <time>2015-09-09T13:55:47Z</time>
      </trkpt>
      <trkpt lat="42.77968" lon="-0.12683">
        <ele>2663.9506835938</ele>
        <time>2015-09-09T13:56:03Z</time>
      </trkpt>
      <trkpt lat="42.77962" lon="-0.12676">
        <ele>2662.9892578125</ele>
        <time>2015-09-09T13:56:18Z</time>
      </trkpt>
      <trkpt lat="42.77958" lon="-0.12662">
        <ele>2660.10546875</ele>
        <time>2015-09-09T13:56:37Z</time>
      </trkpt>
      <trkpt lat="42.7796" lon="-0.12654">
        <ele>2659.1440429688</ele>
        <time>2015-09-09T13:56:46Z</time>
      </trkpt>
      <trkpt lat="42.7796" lon="-0.12639">
        <ele>2658.1826171875</ele>
        <time>2015-09-09T13:57:00Z</time>
      </trkpt>
      <trkpt lat="42.77959" lon="-0.12621">
        <ele>2655.779296875</ele>
        <time>2015-09-09T13:57:15Z</time>
      </trkpt>
      <trkpt lat="42.77959" lon="-0.12613">
        <ele>2655.298828125</ele>
        <time>2015-09-09T13:57:31Z</time>
      </trkpt>
      <trkpt lat="42.77959" lon="-0.12611">
        <ele>2655.779296875</ele>
        <time>2015-09-09T13:57:46Z</time>
      </trkpt>
      <trkpt lat="42.7796" lon="-0.12585">
        <ele>2654.818359375</ele>
        <time>2015-09-09T13:58:07Z</time>
      </trkpt>
      <trkpt lat="42.7796" lon="-0.12565">
        <ele>2653.8569335938</ele>
        <time>2015-09-09T13:58:27Z</time>
      </trkpt>
      <trkpt lat="42.77957" lon="-0.12549">
        <ele>2655.779296875</ele>
        <time>2015-09-09T13:58:42Z</time>
      </trkpt>
      <trkpt lat="42.77954" lon="-0.12541">
        <ele>2659.1440429688</ele>
        <time>2015-09-09T13:58:54Z</time>
      </trkpt>
      <trkpt lat="42.77953" lon="-0.1254">
        <ele>2658.1826171875</ele>
        <time>2015-09-09T13:58:56Z</time>
      </trkpt>
      <trkpt lat="42.77948" lon="-0.12532">
        <ele>2660.10546875</ele>
        <time>2015-09-09T13:59:02Z</time>
      </trkpt>
      <trkpt lat="42.7794" lon="-0.12518">
        <ele>2660.5859375</ele>
        <time>2015-09-09T13:59:20Z</time>
      </trkpt>
      <trkpt lat="42.77941" lon="-0.12513">
        <ele>2661.5473632812</ele>
        <time>2015-09-09T13:59:24Z</time>
      </trkpt>
      <trkpt lat="42.77937" lon="-0.12487">
        <ele>2662.9892578125</ele>
        <time>2015-09-09T13:59:44Z</time>
      </trkpt>
      <trkpt lat="42.77931" lon="-0.12456">
        <ele>2662.9892578125</ele>
        <time>2015-09-09T14:00:05Z</time>
      </trkpt>
      <trkpt lat="42.77933" lon="-0.1244">
        <ele>2664.4311523438</ele>
        <time>2015-09-09T14:00:21Z</time>
      </trkpt>
      <trkpt lat="42.77933" lon="-0.12439">
        <ele>2664.4311523438</ele>
        <time>2015-09-09T14:00:22Z</time>
      </trkpt>
      <trkpt lat="42.77933" lon="-0.12422">
        <ele>2663.9506835938</ele>
        <time>2015-09-09T14:00:39Z</time>
      </trkpt>
      <trkpt lat="42.77932" lon="-0.12421">
        <ele>2663.9506835938</ele>
        <time>2015-09-09T14:01:02Z</time>
      </trkpt>
      <trkpt lat="42.77932" lon="-0.12421">
        <ele>2662.9892578125</ele>
        <time>2015-09-09T14:01:13Z</time>
      </trkpt>
    </trkseg>
  </trk>
</gpx>